<?xml version="1.0" encoding="utf-8"?>
<gpx xmlns:xsi="http://www.w3.org/2001/XMLSchema-instance" xmlns:xsd="http://www.w3.org/2001/XMLSchema" version="1.1" creator="Shapelink.com" xmlns="http://www.topografix.com/GPX/1/1" xmlns:gpxtpx="http://www.garmin.com/xmlschemas/TrackPointExtension/v1">
  <metadata>
    <name>Kører 18.87 km, 2014-11-08</name>
    <desc></desc>
    <author><name>Stefan Östlund</name></author> 
    <time>2014-11-08T16:16:09Z</time>
  </metadata>
  <trk>
    <name>Kører 18.87 km, 2014-11-08</name>
    <trkseg>
      <trkpt lat="59.98470489867" lon="15.825448175892">
        <ele>104</ele>
        <time>2014-11-08T16:16:09Z</time>
      </trkpt>
      <trkpt lat="59.984741695225" lon="15.825381791219">
        <ele>104</ele>
        <time>2014-11-08T16:16:11Z</time>
      </trkpt>
      <trkpt lat="59.984856192023" lon="15.825167549774">
        <ele>104</ele>
        <time>2014-11-08T16:16:18Z</time>
      </trkpt>
      <trkpt lat="59.985024416819" lon="15.824901759624">
        <ele>103.8</ele>
        <time>2014-11-08T16:16:26Z</time>
      </trkpt>
      <trkpt lat="59.985153917223" lon="15.824650637805">
        <ele>103.6</ele>
        <time>2014-11-08T16:16:33Z</time>
      </trkpt>
      <trkpt lat="59.985261457041" lon="15.824412256479">
        <ele>103.6</ele>
        <time>2014-11-08T16:16:39Z</time>
      </trkpt>
      <trkpt lat="59.985394980758" lon="15.824135486037">
        <ele>103.2</ele>
        <time>2014-11-08T16:16:46Z</time>
      </trkpt>
      <trkpt lat="59.985463796183" lon="15.824079997838">
        <ele>103</ele>
        <time>2014-11-08T16:16:49Z</time>
      </trkpt>
      <trkpt lat="59.985510315746" lon="15.824075806886">
        <ele>103</ele>
        <time>2014-11-08T16:16:51Z</time>
      </trkpt>
      <trkpt lat="59.985644845292" lon="15.824146885425">
        <ele>102.6</ele>
        <time>2014-11-08T16:16:57Z</time>
      </trkpt>
      <trkpt lat="59.985821116716" lon="15.824277307838">
        <ele>102.4</ele>
        <time>2014-11-08T16:17:04Z</time>
      </trkpt>
      <trkpt lat="59.985897140577" lon="15.824329694733">
        <ele>102</ele>
        <time>2014-11-08T16:17:07Z</time>
      </trkpt>
      <trkpt lat="59.985993951559" lon="15.824390966445">
        <ele>101.6</ele>
        <time>2014-11-08T16:17:11Z</time>
      </trkpt>
      <trkpt lat="59.986087828875" lon="15.824417872354">
        <ele>101.6</ele>
        <time>2014-11-08T16:17:15Z</time>
      </trkpt>
      <trkpt lat="59.986130157486" lon="15.824383758008">
        <ele>101.4</ele>
        <time>2014-11-08T16:17:17Z</time>
      </trkpt>
      <trkpt lat="59.986149352044" lon="15.824346626177">
        <ele>101.6</ele>
        <time>2014-11-08T16:17:18Z</time>
      </trkpt>
      <trkpt lat="59.986198302358" lon="15.824229195714">
        <ele>101.6</ele>
        <time>2014-11-08T16:17:21Z</time>
      </trkpt>
      <trkpt lat="59.986255047843" lon="15.824015205726">
        <ele>101.6</ele>
        <time>2014-11-08T16:17:26Z</time>
      </trkpt>
      <trkpt lat="59.986257646233" lon="15.823967093602">
        <ele>101.6</ele>
        <time>2014-11-08T16:17:27Z</time>
      </trkpt>
      <trkpt lat="59.986299304292" lon="15.823714127764">
        <ele>101.4</ele>
        <time>2014-11-08T16:17:32Z</time>
      </trkpt>
      <trkpt lat="59.986368035898" lon="15.823378683999">
        <ele>101.2</ele>
        <time>2014-11-08T16:17:39Z</time>
      </trkpt>
      <trkpt lat="59.986411537975" lon="15.823005689308">
        <ele>101.6</ele>
        <time>2014-11-08T16:17:47Z</time>
      </trkpt>
      <trkpt lat="59.98641807586" lon="15.822966713458">
        <ele>101.6</ele>
        <time>2014-11-08T16:17:48Z</time>
      </trkpt>
      <trkpt lat="59.986469708383" lon="15.822628000751">
        <ele>101.8</ele>
        <time>2014-11-08T16:17:55Z</time>
      </trkpt>
      <trkpt lat="59.986494267359" lon="15.822312422097">
        <ele>101.8</ele>
        <time>2014-11-08T16:18:02Z</time>
      </trkpt>
      <trkpt lat="59.986531566828" lon="15.821911096573">
        <ele>102.2</ele>
        <time>2014-11-08T16:18:10Z</time>
      </trkpt>
      <trkpt lat="59.98653751798" lon="15.821855692193">
        <ele>102.2</ele>
        <time>2014-11-08T16:18:11Z</time>
      </trkpt>
      <trkpt lat="59.986561490223" lon="15.821537766606">
        <ele>102.2</ele>
        <time>2014-11-08T16:18:17Z</time>
      </trkpt>
      <trkpt lat="59.98656350188" lon="15.821310365573">
        <ele>102.2</ele>
        <time>2014-11-08T16:18:21Z</time>
      </trkpt>
      <trkpt lat="59.986605579033" lon="15.820955391973">
        <ele>102</ele>
        <time>2014-11-08T16:18:28Z</time>
      </trkpt>
      <trkpt lat="59.986614631489" lon="15.820902921259">
        <ele>102.2</ele>
        <time>2014-11-08T16:18:29Z</time>
      </trkpt>
      <trkpt lat="59.986646231264" lon="15.820598909631">
        <ele>102.4</ele>
        <time>2014-11-08T16:18:35Z</time>
      </trkpt>
      <trkpt lat="59.986669197679" lon="15.820335298777">
        <ele>102.6</ele>
        <time>2014-11-08T16:18:40Z</time>
      </trkpt>
      <trkpt lat="59.986674562097" lon="15.82001645118">
        <ele>102.6</ele>
        <time>2014-11-08T16:18:46Z</time>
      </trkpt>
      <trkpt lat="59.986660899594" lon="15.819584196433">
        <ele>102.6</ele>
        <time>2014-11-08T16:18:54Z</time>
      </trkpt>
      <trkpt lat="59.986656289548" lon="15.819535581395">
        <ele>102.8</ele>
        <time>2014-11-08T16:18:55Z</time>
      </trkpt>
      <trkpt lat="59.986625695601" lon="15.819294014946">
        <ele>103</ele>
        <time>2014-11-08T16:19:00Z</time>
      </trkpt>
      <trkpt lat="59.986609183252" lon="15.819144062698">
        <ele>103.2</ele>
        <time>2014-11-08T16:19:03Z</time>
      </trkpt>
      <trkpt lat="59.986575739458" lon="15.818780791014">
        <ele>103.2</ele>
        <time>2014-11-08T16:19:10Z</time>
      </trkpt>
      <trkpt lat="59.986571548507" lon="15.818730667233">
        <ele>103.2</ele>
        <time>2014-11-08T16:19:11Z</time>
      </trkpt>
      <trkpt lat="59.986550007015" lon="15.818369910121">
        <ele>102.8</ele>
        <time>2014-11-08T16:19:18Z</time>
      </trkpt>
      <trkpt lat="59.9865547847" lon="15.818272763863">
        <ele>102.6</ele>
        <time>2014-11-08T16:19:20Z</time>
      </trkpt>
      <trkpt lat="59.98663357459" lon="15.81804368645">
        <ele>102.2</ele>
        <time>2014-11-08T16:19:25Z</time>
      </trkpt>
      <trkpt lat="59.986666347831" lon="15.817960454151">
        <ele>102</ele>
        <time>2014-11-08T16:19:27Z</time>
      </trkpt>
      <trkpt lat="59.986732481048" lon="15.817801449448">
        <ele>101.6</ele>
        <time>2014-11-08T16:19:31Z</time>
      </trkpt>
      <trkpt lat="59.986822754145" lon="15.81743767485">
        <ele>101.4</ele>
        <time>2014-11-08T16:19:39Z</time>
      </trkpt>
      <trkpt lat="59.986859718338" lon="15.817066607997">
        <ele>101.4</ele>
        <time>2014-11-08T16:19:46Z</time>
      </trkpt>
      <trkpt lat="59.986858963966" lon="15.816708616912">
        <ele>101.4</ele>
        <time>2014-11-08T16:19:53Z</time>
      </trkpt>
      <trkpt lat="59.986858209595" lon="15.816625384614">
        <ele>101.2</ele>
        <time>2014-11-08T16:19:54Z</time>
      </trkpt>
      <trkpt lat="59.986849827692" lon="15.816268734634">
        <ele>101.4</ele>
        <time>2014-11-08T16:20:01Z</time>
      </trkpt>
      <trkpt lat="59.986849492416" lon="15.816218527034">
        <ele>101.6</ele>
        <time>2014-11-08T16:20:02Z</time>
      </trkpt>
      <trkpt lat="59.986809259281" lon="15.81604141742">
        <ele>101.8</ele>
        <time>2014-11-08T16:20:06Z</time>
      </trkpt>
      <trkpt lat="59.986791322008" lon="15.816007051617">
        <ele>102</ele>
        <time>2014-11-08T16:20:07Z</time>
      </trkpt>
      <trkpt lat="59.986772295088" lon="15.816013840958">
        <ele>102</ele>
        <time>2014-11-08T16:20:08Z</time>
      </trkpt>
      <trkpt lat="59.986713370308" lon="15.816044434905">
        <ele>102.2</ele>
        <time>2014-11-08T16:20:10Z</time>
      </trkpt>
      <trkpt lat="59.986515389755" lon="15.816197069362">
        <ele>102.2</ele>
        <time>2014-11-08T16:20:18Z</time>
      </trkpt>
      <trkpt lat="59.986342387274" lon="15.816345345229">
        <ele>101.8</ele>
        <time>2014-11-08T16:20:25Z</time>
      </trkpt>
      <trkpt lat="59.986216574907" lon="15.816438551992">
        <ele>101.2</ele>
        <time>2014-11-08T16:20:30Z</time>
      </trkpt>
      <trkpt lat="59.986108532175" lon="15.816448275">
        <ele>100.8</ele>
        <time>2014-11-08T16:20:34Z</time>
      </trkpt>
      <trkpt lat="59.986071987078" lon="15.816447185352">
        <ele>100.8</ele>
        <time>2014-11-08T16:20:37Z</time>
      </trkpt>
      <trkpt lat="59.985867803916" lon="15.816396810114">
        <ele>100.6</ele>
        <time>2014-11-08T16:20:43Z</time>
      </trkpt>
      <trkpt lat="59.985838551074" lon="15.81639287062">
        <ele>100.6</ele>
        <time>2014-11-08T16:20:44Z</time>
      </trkpt>
      <trkpt lat="59.985678792" lon="15.816357079893">
        <ele>100.4</ele>
        <time>2014-11-08T16:20:50Z</time>
      </trkpt>
      <trkpt lat="59.985525738448" lon="15.816285414621">
        <ele>100.2</ele>
        <time>2014-11-08T16:20:56Z</time>
      </trkpt>
      <trkpt lat="59.985425490886" lon="15.816162535921">
        <ele>100.2</ele>
        <time>2014-11-08T16:21:01Z</time>
      </trkpt>
      <trkpt lat="59.985312838107" lon="15.81590546295">
        <ele>100.2</ele>
        <time>2014-11-08T16:21:07Z</time>
      </trkpt>
      <trkpt lat="59.985227929428" lon="15.815670685843">
        <ele>100.6</ele>
        <time>2014-11-08T16:21:13Z</time>
      </trkpt>
      <trkpt lat="59.985137153417" lon="15.815393831581">
        <ele>100.8</ele>
        <time>2014-11-08T16:21:19Z</time>
      </trkpt>
      <trkpt lat="59.985049813986" lon="15.815048580989">
        <ele>101.4</ele>
        <time>2014-11-08T16:21:26Z</time>
      </trkpt>
      <trkpt lat="59.985042437911" lon="15.815002564341">
        <ele>101.4</ele>
        <time>2014-11-08T16:21:27Z</time>
      </trkpt>
      <trkpt lat="59.984995666891" lon="15.814798129722">
        <ele>101.6</ele>
        <time>2014-11-08T16:21:33Z</time>
      </trkpt>
      <trkpt lat="59.984939089045" lon="15.814433349296">
        <ele>101.6</ele>
        <time>2014-11-08T16:21:40Z</time>
      </trkpt>
      <trkpt lat="59.984903885052" lon="15.81413352862">
        <ele>101.6</ele>
        <time>2014-11-08T16:21:46Z</time>
      </trkpt>
      <trkpt lat="59.984874129295" lon="15.813848879188">
        <ele>101</ele>
        <time>2014-11-08T16:21:52Z</time>
      </trkpt>
      <trkpt lat="59.984845798463" lon="15.813616449013">
        <ele>101</ele>
        <time>2014-11-08T16:21:57Z</time>
      </trkpt>
      <trkpt lat="59.984800200909" lon="15.813379408792">
        <ele>101</ele>
        <time>2014-11-08T16:22:02Z</time>
      </trkpt>
      <trkpt lat="59.984754938632" lon="15.813142452389">
        <ele>101.4</ele>
        <time>2014-11-08T16:22:07Z</time>
      </trkpt>
      <trkpt lat="59.984684614465" lon="15.812804158777">
        <ele>101.6</ele>
        <time>2014-11-08T16:22:14Z</time>
      </trkpt>
      <trkpt lat="59.98462183401" lon="15.812511965632">
        <ele>101.2</ele>
        <time>2014-11-08T16:22:20Z</time>
      </trkpt>
      <trkpt lat="59.984569363296" lon="15.812268722802">
        <ele>101.2</ele>
        <time>2014-11-08T16:22:25Z</time>
      </trkpt>
      <trkpt lat="59.984561400488" lon="15.811927579343">
        <ele>100.8</ele>
        <time>2014-11-08T16:22:31Z</time>
      </trkpt>
      <trkpt lat="59.984615966678" lon="15.81174954772">
        <ele>100.6</ele>
        <time>2014-11-08T16:22:36Z</time>
      </trkpt>
      <trkpt lat="59.984639268368" lon="15.811725910753">
        <ele>100.6</ele>
        <time>2014-11-08T16:22:38Z</time>
      </trkpt>
      <trkpt lat="59.984681177884" lon="15.811657262966">
        <ele>100.4</ele>
        <time>2014-11-08T16:22:40Z</time>
      </trkpt>
      <trkpt lat="59.984801709652" lon="15.811540167779">
        <ele>100.2</ele>
        <time>2014-11-08T16:22:45Z</time>
      </trkpt>
      <trkpt lat="59.984943531454" lon="15.811390802264">
        <ele>100.4</ele>
        <time>2014-11-08T16:22:50Z</time>
      </trkpt>
      <trkpt lat="59.985070768744" lon="15.811183769256">
        <ele>100.6</ele>
        <time>2014-11-08T16:22:56Z</time>
      </trkpt>
      <trkpt lat="59.98518534936" lon="15.810951758176">
        <ele>100.2</ele>
        <time>2014-11-08T16:23:02Z</time>
      </trkpt>
      <trkpt lat="59.985306048766" lon="15.810745311901">
        <ele>100.4</ele>
        <time>2014-11-08T16:23:08Z</time>
      </trkpt>
      <trkpt lat="59.985437644646" lon="15.810545487329">
        <ele>100.4</ele>
        <time>2014-11-08T16:23:14Z</time>
      </trkpt>
      <trkpt lat="59.98559136875" lon="15.810382207856">
        <ele>100.4</ele>
        <time>2014-11-08T16:23:21Z</time>
      </trkpt>
      <trkpt lat="59.985734447837" lon="15.810275506228">
        <ele>100.4</ele>
        <time>2014-11-08T16:23:27Z</time>
      </trkpt>
      <trkpt lat="59.98586663045" lon="15.81020174548">
        <ele>101.2</ele>
        <time>2014-11-08T16:23:33Z</time>
      </trkpt>
      <trkpt lat="59.985921448097" lon="15.810161260888">
        <ele>102</ele>
        <time>2014-11-08T16:23:35Z</time>
      </trkpt>
      <trkpt lat="59.986024294049" lon="15.810089930892">
        <ele>103</ele>
        <time>2014-11-08T16:23:39Z</time>
      </trkpt>
      <trkpt lat="59.986135102808" lon="15.810007955879">
        <ele>103.6</ele>
        <time>2014-11-08T16:23:44Z</time>
      </trkpt>
      <trkpt lat="59.986271895468" lon="15.809908965603">
        <ele>104</ele>
        <time>2014-11-08T16:23:50Z</time>
      </trkpt>
      <trkpt lat="59.98640156351" lon="15.809851549566">
        <ele>104.6</ele>
        <time>2014-11-08T16:23:55Z</time>
      </trkpt>
      <trkpt lat="59.986543469131" lon="15.809820536524">
        <ele>105</ele>
        <time>2014-11-08T16:24:01Z</time>
      </trkpt>
      <trkpt lat="59.986605411395" lon="15.809807209298">
        <ele>105</ele>
        <time>2014-11-08T16:24:03Z</time>
      </trkpt>
      <trkpt lat="59.986703563482" lon="15.80983646214">
        <ele>105.2</ele>
        <time>2014-11-08T16:24:07Z</time>
      </trkpt>
      <trkpt lat="59.986799452454" lon="15.809935033321">
        <ele>105.4</ele>
        <time>2014-11-08T16:24:11Z</time>
      </trkpt>
      <trkpt lat="59.98688980937" lon="15.810094540939">
        <ele>106</ele>
        <time>2014-11-08T16:24:16Z</time>
      </trkpt>
      <trkpt lat="59.986945800483" lon="15.810244241729">
        <ele>106.2</ele>
        <time>2014-11-08T16:24:20Z</time>
      </trkpt>
      <trkpt lat="59.986972454935" lon="15.810297215357">
        <ele>106.4</ele>
        <time>2014-11-08T16:24:22Z</time>
      </trkpt>
      <trkpt lat="59.98699977994" lon="15.810492681339">
        <ele>107.2</ele>
        <time>2014-11-08T16:24:26Z</time>
      </trkpt>
      <trkpt lat="59.987009754404" lon="15.81055236049">
        <ele>107.8</ele>
        <time>2014-11-08T16:24:27Z</time>
      </trkpt>
      <trkpt lat="59.987033223733" lon="15.810694517568">
        <ele>108.6</ele>
        <time>2014-11-08T16:24:30Z</time>
      </trkpt>
      <trkpt lat="59.987055100501" lon="15.810900125653">
        <ele>109.4</ele>
        <time>2014-11-08T16:24:34Z</time>
      </trkpt>
      <trkpt lat="59.987062392756" lon="15.810962403193">
        <ele>109.6</ele>
        <time>2014-11-08T16:24:35Z</time>
      </trkpt>
      <trkpt lat="59.987092735246" lon="15.811216123402">
        <ele>110.8</ele>
        <time>2014-11-08T16:24:40Z</time>
      </trkpt>
      <trkpt lat="59.987139254808" lon="15.811504963785">
        <ele>111.8</ele>
        <time>2014-11-08T16:24:46Z</time>
      </trkpt>
      <trkpt lat="59.987146714702" lon="15.811555590481">
        <ele>112</ele>
        <time>2014-11-08T16:24:47Z</time>
      </trkpt>
      <trkpt lat="59.987206477672" lon="15.811900002882">
        <ele>112.4</ele>
        <time>2014-11-08T16:24:54Z</time>
      </trkpt>
      <trkpt lat="59.987246207893" lon="15.812168642879">
        <ele>112.8</ele>
        <time>2014-11-08T16:24:59Z</time>
      </trkpt>
      <trkpt lat="59.987274790183" lon="15.812248606235">
        <ele>112.8</ele>
        <time>2014-11-08T16:25:01Z</time>
      </trkpt>
      <trkpt lat="59.987374283373" lon="15.81229143776">
        <ele>112.8</ele>
        <time>2014-11-08T16:25:05Z</time>
      </trkpt>
      <trkpt lat="59.987536724657" lon="15.81222480163">
        <ele>113</ele>
        <time>2014-11-08T16:25:11Z</time>
      </trkpt>
      <trkpt lat="59.987661195919" lon="15.812078788877">
        <ele>113.8</ele>
        <time>2014-11-08T16:25:17Z</time>
      </trkpt>
      <trkpt lat="59.987675026059" lon="15.81196337007">
        <ele>113.8</ele>
        <time>2014-11-08T16:25:19Z</time>
      </trkpt>
      <trkpt lat="59.987674020231" lon="15.811876868829">
        <ele>114.2</ele>
        <time>2014-11-08T16:25:21Z</time>
      </trkpt>
      <trkpt lat="59.987639235333" lon="15.811602277681">
        <ele>114.4</ele>
        <time>2014-11-08T16:25:26Z</time>
      </trkpt>
      <trkpt lat="59.98759095557" lon="15.811244370416">
        <ele>114.2</ele>
        <time>2014-11-08T16:25:33Z</time>
      </trkpt>
      <trkpt lat="59.987581232563" lon="15.811173710972">
        <ele>114.2</ele>
        <time>2014-11-08T16:25:34Z</time>
      </trkpt>
      <trkpt lat="59.987536808476" lon="15.8108250238">
        <ele>114</ele>
        <time>2014-11-08T16:25:41Z</time>
      </trkpt>
      <trkpt lat="59.98750445433" lon="15.810487316921">
        <ele>113.6</ele>
        <time>2014-11-08T16:25:47Z</time>
      </trkpt>
      <trkpt lat="59.987495066598" lon="15.810163524002">
        <ele>113.2</ele>
        <time>2014-11-08T16:25:53Z</time>
      </trkpt>
      <trkpt lat="59.987488696352" lon="15.809944840148">
        <ele>112.8</ele>
        <time>2014-11-08T16:25:56Z</time>
      </trkpt>
      <trkpt lat="59.987497162074" lon="15.809766724706">
        <ele>112.4</ele>
        <time>2014-11-08T16:25:59Z</time>
      </trkpt>
      <trkpt lat="59.987504873425" lon="15.809473274276">
        <ele>111.6</ele>
        <time>2014-11-08T16:26:04Z</time>
      </trkpt>
      <trkpt lat="59.987510070205" lon="15.809414433315">
        <ele>111.8</ele>
        <time>2014-11-08T16:26:05Z</time>
      </trkpt>
      <trkpt lat="59.987530186772" lon="15.809076810256">
        <ele>111</ele>
        <time>2014-11-08T16:26:11Z</time>
      </trkpt>
      <trkpt lat="59.9875364732" lon="15.808848822489">
        <ele>110.6</ele>
        <time>2014-11-08T16:26:15Z</time>
      </trkpt>
      <trkpt lat="59.987540245056" lon="15.808692751452">
        <ele>110.4</ele>
        <time>2014-11-08T16:26:18Z</time>
      </trkpt>
      <trkpt lat="59.987562792376" lon="15.80835797824">
        <ele>109.6</ele>
        <time>2014-11-08T16:26:25Z</time>
      </trkpt>
      <trkpt lat="59.987567905337" lon="15.808324366808">
        <ele>109.6</ele>
        <time>2014-11-08T16:26:26Z</time>
      </trkpt>
      <trkpt lat="59.987572347745" lon="15.808016080409">
        <ele>108.8</ele>
        <time>2014-11-08T16:26:33Z</time>
      </trkpt>
      <trkpt lat="59.987563882023" lon="15.807981714606">
        <ele>108.6</ele>
        <time>2014-11-08T16:26:34Z</time>
      </trkpt>
      <trkpt lat="59.987509818748" lon="15.807740818709">
        <ele>108</ele>
        <time>2014-11-08T16:26:39Z</time>
      </trkpt>
      <trkpt lat="59.987453492358" lon="15.807465137914">
        <ele>107.6</ele>
        <time>2014-11-08T16:26:44Z</time>
      </trkpt>
      <trkpt lat="59.987397752702" lon="15.807266570628">
        <ele>106.8</ele>
        <time>2014-11-08T16:26:48Z</time>
      </trkpt>
      <trkpt lat="59.987387610599" lon="15.807207394391">
        <ele>106.6</ele>
        <time>2014-11-08T16:26:49Z</time>
      </trkpt>
      <trkpt lat="59.987345701084" lon="15.807070266455">
        <ele>106.2</ele>
        <time>2014-11-08T16:26:52Z</time>
      </trkpt>
      <trkpt lat="59.987248051912" lon="15.806863233447">
        <ele>106.4</ele>
        <time>2014-11-08T16:26:57Z</time>
      </trkpt>
      <trkpt lat="59.987124167383" lon="15.806725099683">
        <ele>106.2</ele>
        <time>2014-11-08T16:27:02Z</time>
      </trkpt>
      <trkpt lat="59.986975137144" lon="15.806633401662">
        <ele>106</ele>
        <time>2014-11-08T16:27:07Z</time>
      </trkpt>
      <trkpt lat="59.986828872934" lon="15.806560646743">
        <ele>105.8</ele>
        <time>2014-11-08T16:27:12Z</time>
      </trkpt>
      <trkpt lat="59.98669593595" lon="15.806488394737">
        <ele>105.8</ele>
        <time>2014-11-08T16:27:18Z</time>
      </trkpt>
      <trkpt lat="59.986519413069" lon="15.806355373934">
        <ele>106</ele>
        <time>2014-11-08T16:27:24Z</time>
      </trkpt>
      <trkpt lat="59.986421596259" lon="15.806193351746">
        <ele>106.6</ele>
        <time>2014-11-08T16:27:29Z</time>
      </trkpt>
      <trkpt lat="59.986324282363" lon="15.806002328172">
        <ele>107.2</ele>
        <time>2014-11-08T16:27:34Z</time>
      </trkpt>
      <trkpt lat="59.986204085872" lon="15.805761180818">
        <ele>107.4</ele>
        <time>2014-11-08T16:27:40Z</time>
      </trkpt>
      <trkpt lat="59.986097300425" lon="15.80553336069">
        <ele>107</ele>
        <time>2014-11-08T16:27:45Z</time>
      </trkpt>
      <trkpt lat="59.98596444726" lon="15.805253237486">
        <ele>107.2</ele>
        <time>2014-11-08T16:27:52Z</time>
      </trkpt>
      <trkpt lat="59.985874928534" lon="15.805063555017">
        <ele>107.4</ele>
        <time>2014-11-08T16:27:57Z</time>
      </trkpt>
      <trkpt lat="59.985803682357" lon="15.804911255836">
        <ele>107.6</ele>
        <time>2014-11-08T16:28:01Z</time>
      </trkpt>
      <trkpt lat="59.985736040398" lon="15.804761135951">
        <ele>107.8</ele>
        <time>2014-11-08T16:28:05Z</time>
      </trkpt>
      <trkpt lat="59.985628165305" lon="15.804539183155">
        <ele>108.6</ele>
        <time>2014-11-08T16:28:11Z</time>
      </trkpt>
      <trkpt lat="59.985560020432" lon="15.804353104904">
        <ele>109.2</ele>
        <time>2014-11-08T16:28:15Z</time>
      </trkpt>
      <trkpt lat="59.985490869731" lon="15.804216647521">
        <ele>109.6</ele>
        <time>2014-11-08T16:28:19Z</time>
      </trkpt>
      <trkpt lat="59.985473519191" lon="15.804182784632">
        <ele>109.6</ele>
        <time>2014-11-08T16:28:20Z</time>
      </trkpt>
      <trkpt lat="59.985386095941" lon="15.804009027779">
        <ele>110.2</ele>
        <time>2014-11-08T16:28:25Z</time>
      </trkpt>
      <trkpt lat="59.985274113715" lon="15.803799899295">
        <ele>110.6</ele>
        <time>2014-11-08T16:28:31Z</time>
      </trkpt>
      <trkpt lat="59.985146457329" lon="15.803528074175">
        <ele>111.2</ele>
        <time>2014-11-08T16:28:38Z</time>
      </trkpt>
      <trkpt lat="59.985014358535" lon="15.803270749748">
        <ele>111.4</ele>
        <time>2014-11-08T16:28:45Z</time>
      </trkpt>
      <trkpt lat="59.984977981076" lon="15.803192462772">
        <ele>111.8</ele>
        <time>2014-11-08T16:28:47Z</time>
      </trkpt>
      <trkpt lat="59.984874213114" lon="15.802949219942">
        <ele>112</ele>
        <time>2014-11-08T16:28:53Z</time>
      </trkpt>
      <trkpt lat="59.98478109017" lon="15.802737157792">
        <ele>112.4</ele>
        <time>2014-11-08T16:28:58Z</time>
      </trkpt>
      <trkpt lat="59.984724763781" lon="15.802542865276">
        <ele>112.8</ele>
        <time>2014-11-08T16:29:03Z</time>
      </trkpt>
      <trkpt lat="59.984700037166" lon="15.802442366257">
        <ele>113.2</ele>
        <time>2014-11-08T16:29:05Z</time>
      </trkpt>
      <trkpt lat="59.984656535089" lon="15.802282691002">
        <ele>114</ele>
        <time>2014-11-08T16:29:09Z</time>
      </trkpt>
      <trkpt lat="59.984629126266" lon="15.802213707939">
        <ele>114.2</ele>
        <time>2014-11-08T16:29:11Z</time>
      </trkpt>
      <trkpt lat="59.984577074647" lon="15.802022349089">
        <ele>115</ele>
        <time>2014-11-08T16:29:16Z</time>
      </trkpt>
      <trkpt lat="59.984518066049" lon="15.801810957491">
        <ele>116.2</ele>
        <time>2014-11-08T16:29:21Z</time>
      </trkpt>
      <trkpt lat="59.984504822642" lon="15.801768293604">
        <ele>116.4</ele>
        <time>2014-11-08T16:29:22Z</time>
      </trkpt>
      <trkpt lat="59.98441320844" lon="15.801445171237">
        <ele>117</ele>
        <time>2014-11-08T16:29:29Z</time>
      </trkpt>
      <trkpt lat="59.984343135729" lon="15.801213076338">
        <ele>117.2</ele>
        <time>2014-11-08T16:29:34Z</time>
      </trkpt>
      <trkpt lat="59.984335005283" lon="15.801181895658">
        <ele>117.2</ele>
        <time>2014-11-08T16:29:35Z</time>
      </trkpt>
      <trkpt lat="59.984303908423" lon="15.801076199859">
        <ele>117.4</ele>
        <time>2014-11-08T16:29:37Z</time>
      </trkpt>
      <trkpt lat="59.984256299213" lon="15.800886433572">
        <ele>117.4</ele>
        <time>2014-11-08T16:29:41Z</time>
      </trkpt>
      <trkpt lat="59.984168540686" lon="15.800582338125">
        <ele>117.4</ele>
        <time>2014-11-08T16:29:47Z</time>
      </trkpt>
      <trkpt lat="59.984086146578" lon="15.800309590995">
        <ele>117.6</ele>
        <time>2014-11-08T16:29:53Z</time>
      </trkpt>
      <trkpt lat="59.983992017806" lon="15.800012452528">
        <ele>117.8</ele>
        <time>2014-11-08T16:29:59Z</time>
      </trkpt>
      <trkpt lat="59.98387995176" lon="15.799826458097">
        <ele>117.8</ele>
        <time>2014-11-08T16:30:05Z</time>
      </trkpt>
      <trkpt lat="59.983789846301" lon="15.79971103929">
        <ele>117.6</ele>
        <time>2014-11-08T16:30:10Z</time>
      </trkpt>
      <trkpt lat="59.983629751951" lon="15.799487493932">
        <ele>117.4</ele>
        <time>2014-11-08T16:30:16Z</time>
      </trkpt>
      <trkpt lat="59.983493713662" lon="15.799298565835">
        <ele>117.2</ele>
        <time>2014-11-08T16:30:22Z</time>
      </trkpt>
      <trkpt lat="59.983376115561" lon="15.799130927771">
        <ele>117</ele>
        <time>2014-11-08T16:30:27Z</time>
      </trkpt>
      <trkpt lat="59.98321258463" lon="15.798911238089">
        <ele>117</ele>
        <time>2014-11-08T16:30:34Z</time>
      </trkpt>
      <trkpt lat="59.983089538291" lon="15.798765309155">
        <ele>116.8</ele>
        <time>2014-11-08T16:30:39Z</time>
      </trkpt>
      <trkpt lat="59.982932461426" lon="15.798547798768">
        <ele>116.4</ele>
        <time>2014-11-08T16:30:46Z</time>
      </trkpt>
      <trkpt lat="59.982774881646" lon="15.798342945054">
        <ele>116.2</ele>
        <time>2014-11-08T16:30:53Z</time>
      </trkpt>
      <trkpt lat="59.982742443681" lon="15.798305561766">
        <ele>116.2</ele>
        <time>2014-11-08T16:30:54Z</time>
      </trkpt>
      <trkpt lat="59.982616547495" lon="15.798184443265">
        <ele>116.2</ele>
        <time>2014-11-08T16:30:59Z</time>
      </trkpt>
      <trkpt lat="59.982486711815" lon="15.798071203753">
        <ele>116</ele>
        <time>2014-11-08T16:31:04Z</time>
      </trkpt>
      <trkpt lat="59.982304070145" lon="15.797952516004">
        <ele>115.8</ele>
        <time>2014-11-08T16:31:11Z</time>
      </trkpt>
      <trkpt lat="59.982201308012" lon="15.797862578183">
        <ele>115.8</ele>
        <time>2014-11-08T16:31:15Z</time>
      </trkpt>
      <trkpt lat="59.982043560594" lon="15.797788146883">
        <ele>115.8</ele>
        <time>2014-11-08T16:31:21Z</time>
      </trkpt>
      <trkpt lat="59.981870725751" lon="15.797673566267">
        <ele>115.6</ele>
        <time>2014-11-08T16:31:27Z</time>
      </trkpt>
      <trkpt lat="59.981762263924" lon="15.797567535192">
        <ele>115.4</ele>
        <time>2014-11-08T16:31:32Z</time>
      </trkpt>
      <trkpt lat="59.981702500954" lon="15.79742831178">
        <ele>116.4</ele>
        <time>2014-11-08T16:31:36Z</time>
      </trkpt>
      <trkpt lat="59.981704093516" lon="15.797260757536">
        <ele>117.4</ele>
        <time>2014-11-08T16:31:40Z</time>
      </trkpt>
      <trkpt lat="59.981717085466" lon="15.797180626541">
        <ele>118.2</ele>
        <time>2014-11-08T16:31:42Z</time>
      </trkpt>
      <trkpt lat="59.981727395207" lon="15.797134442255">
        <ele>118.4</ele>
        <time>2014-11-08T16:31:43Z</time>
      </trkpt>
      <trkpt lat="59.981758575886" lon="15.797007959336">
        <ele>119.4</ele>
        <time>2014-11-08T16:31:46Z</time>
      </trkpt>
      <trkpt lat="59.98177818954" lon="15.796925649047">
        <ele>120.2</ele>
        <time>2014-11-08T16:31:48Z</time>
      </trkpt>
      <trkpt lat="59.981800904498" lon="15.796845685691">
        <ele>120.4</ele>
        <time>2014-11-08T16:31:50Z</time>
      </trkpt>
      <trkpt lat="59.981879359111" lon="15.796614512801">
        <ele>121.2</ele>
        <time>2014-11-08T16:31:56Z</time>
      </trkpt>
      <trkpt lat="59.981910707429" lon="15.796536142007">
        <ele>121.6</ele>
        <time>2014-11-08T16:31:58Z</time>
      </trkpt>
      <trkpt lat="59.981985474005" lon="15.796341430396">
        <ele>122.4</ele>
        <time>2014-11-08T16:32:03Z</time>
      </trkpt>
      <trkpt lat="59.982001148164" lon="15.796306561679">
        <ele>122.8</ele>
        <time>2014-11-08T16:32:04Z</time>
      </trkpt>
      <trkpt lat="59.982066107914" lon="15.796141689643">
        <ele>123.6</ele>
        <time>2014-11-08T16:32:08Z</time>
      </trkpt>
      <trkpt lat="59.982143975794" lon="15.795871959999">
        <ele>123.8</ele>
        <time>2014-11-08T16:32:14Z</time>
      </trkpt>
      <trkpt lat="59.982157889754" lon="15.795833738521">
        <ele>124</ele>
        <time>2014-11-08T16:32:15Z</time>
      </trkpt>
      <trkpt lat="59.982225112617" lon="15.795613126829">
        <ele>124.2</ele>
        <time>2014-11-08T16:32:20Z</time>
      </trkpt>
      <trkpt lat="59.982246235013" lon="15.795317245647">
        <ele>124</ele>
        <time>2014-11-08T16:32:26Z</time>
      </trkpt>
      <trkpt lat="59.982228633016" lon="15.795232588425">
        <ele>124</ele>
        <time>2014-11-08T16:32:28Z</time>
      </trkpt>
      <trkpt lat="59.982162164524" lon="15.795137034729">
        <ele>124</ele>
        <time>2014-11-08T16:32:31Z</time>
      </trkpt>
      <trkpt lat="59.982053702697" lon="15.794902592897">
        <ele>123.8</ele>
        <time>2014-11-08T16:32:37Z</time>
      </trkpt>
      <trkpt lat="59.981921100989" lon="15.794588187709">
        <ele>123.6</ele>
        <time>2014-11-08T16:32:44Z</time>
      </trkpt>
      <trkpt lat="59.98180065304" lon="15.794269423932">
        <ele>122.8</ele>
        <time>2014-11-08T16:32:51Z</time>
      </trkpt>
      <trkpt lat="59.981702752411" lon="15.794012434781">
        <ele>122.2</ele>
        <time>2014-11-08T16:32:57Z</time>
      </trkpt>
      <trkpt lat="59.981611557305" lon="15.79376491718">
        <ele>122</ele>
        <time>2014-11-08T16:33:02Z</time>
      </trkpt>
      <trkpt lat="59.981596637517" lon="15.793723594397">
        <ele>121.8</ele>
        <time>2014-11-08T16:33:03Z</time>
      </trkpt>
      <trkpt lat="59.981514662504" lon="15.793314389884">
        <ele>121.2</ele>
        <time>2014-11-08T16:33:11Z</time>
      </trkpt>
      <trkpt lat="59.981530252844" lon="15.793049102649">
        <ele>120.6</ele>
        <time>2014-11-08T16:33:16Z</time>
      </trkpt>
      <trkpt lat="59.9815375451" lon="15.792998643592">
        <ele>120.6</ele>
        <time>2014-11-08T16:33:17Z</time>
      </trkpt>
      <trkpt lat="59.981620945036" lon="15.792811643332">
        <ele>120.6</ele>
        <time>2014-11-08T16:33:22Z</time>
      </trkpt>
      <trkpt lat="59.981757486239" lon="15.792585499585">
        <ele>120.8</ele>
        <time>2014-11-08T16:33:29Z</time>
      </trkpt>
      <trkpt lat="59.981781458482" lon="15.792500590906">
        <ele>120.8</ele>
        <time>2014-11-08T16:33:31Z</time>
      </trkpt>
      <trkpt lat="59.981808364391" lon="15.792356086895">
        <ele>120.8</ele>
        <time>2014-11-08T16:33:34Z</time>
      </trkpt>
      <trkpt lat="59.981818590313" lon="15.792072275653">
        <ele>121.2</ele>
        <time>2014-11-08T16:33:40Z</time>
      </trkpt>
      <trkpt lat="59.981741057709" lon="15.791807239875">
        <ele>121.6</ele>
        <time>2014-11-08T16:33:46Z</time>
      </trkpt>
      <trkpt lat="59.981709374115" lon="15.791714619845">
        <ele>121.8</ele>
        <time>2014-11-08T16:33:48Z</time>
      </trkpt>
      <trkpt lat="59.981656400487" lon="15.791543964297">
        <ele>122.2</ele>
        <time>2014-11-08T16:33:52Z</time>
      </trkpt>
      <trkpt lat="59.981555817649" lon="15.79122427851">
        <ele>122.2</ele>
        <time>2014-11-08T16:33:59Z</time>
      </trkpt>
      <trkpt lat="59.98152798973" lon="15.79113593325">
        <ele>122.2</ele>
        <time>2014-11-08T16:34:01Z</time>
      </trkpt>
      <trkpt lat="59.981426987797" lon="15.790829826146">
        <ele>122.4</ele>
        <time>2014-11-08T16:34:08Z</time>
      </trkpt>
      <trkpt lat="59.981415756047" lon="15.790797472">
        <ele>122.4</ele>
        <time>2014-11-08T16:34:09Z</time>
      </trkpt>
      <trkpt lat="59.981342498213" lon="15.790574429557">
        <ele>122.8</ele>
        <time>2014-11-08T16:34:14Z</time>
      </trkpt>
      <trkpt lat="59.98133235611" lon="15.790530424565">
        <ele>122.6</ele>
        <time>2014-11-08T16:34:15Z</time>
      </trkpt>
      <trkpt lat="59.98131156899" lon="15.790320374072">
        <ele>122.6</ele>
        <time>2014-11-08T16:34:20Z</time>
      </trkpt>
      <trkpt lat="59.981321543455" lon="15.790295479819">
        <ele>122.6</ele>
        <time>2014-11-08T16:34:21Z</time>
      </trkpt>
      <trkpt lat="59.981379378587" lon="15.790202524513">
        <ele>122.6</ele>
        <time>2014-11-08T16:34:24Z</time>
      </trkpt>
      <trkpt lat="59.981417264789" lon="15.790159944445">
        <ele>122.6</ele>
        <time>2014-11-08T16:34:26Z</time>
      </trkpt>
      <trkpt lat="59.981531761587" lon="15.790037987754">
        <ele>123.2</ele>
        <time>2014-11-08T16:34:34Z</time>
      </trkpt>
      <trkpt lat="59.981588926166" lon="15.789984930307">
        <ele>123.4</ele>
        <time>2014-11-08T16:34:40Z</time>
      </trkpt>
      <trkpt lat="59.981637792662" lon="15.789941176772">
        <ele>123.2</ele>
        <time>2014-11-08T16:34:46Z</time>
      </trkpt>
      <trkpt lat="59.982046242803" lon="15.789450164884">
        <ele>124.2</ele>
        <time>2014-11-08T16:35:40Z</time>
      </trkpt>
      <trkpt lat="59.982084212825" lon="15.789406746626">
        <ele>124.2</ele>
        <time>2014-11-08T16:35:42Z</time>
      </trkpt>
      <trkpt lat="59.982197619975" lon="15.789349162951">
        <ele>124.2</ele>
        <time>2014-11-08T16:35:47Z</time>
      </trkpt>
      <trkpt lat="59.982226453722" lon="15.789383277297">
        <ele>124.2</ele>
        <time>2014-11-08T16:35:48Z</time>
      </trkpt>
      <trkpt lat="59.982292251661" lon="15.789467515424">
        <ele>124.2</ele>
        <time>2014-11-08T16:35:51Z</time>
      </trkpt>
      <trkpt lat="59.982437007129" lon="15.789720313624">
        <ele>123.8</ele>
        <time>2014-11-08T16:35:58Z</time>
      </trkpt>
      <trkpt lat="59.982535326853" lon="15.789995826781">
        <ele>123.6</ele>
        <time>2014-11-08T16:36:04Z</time>
      </trkpt>
      <trkpt lat="59.982639010996" lon="15.790301514789">
        <ele>123.6</ele>
        <time>2014-11-08T16:36:11Z</time>
      </trkpt>
      <trkpt lat="59.982719058171" lon="15.790542326868">
        <ele>123.8</ele>
        <time>2014-11-08T16:36:16Z</time>
      </trkpt>
      <trkpt lat="59.982800027356" lon="15.790845332667">
        <ele>123</ele>
        <time>2014-11-08T16:36:22Z</time>
      </trkpt>
      <trkpt lat="59.98282475397" lon="15.790932420641">
        <ele>123.2</ele>
        <time>2014-11-08T16:36:24Z</time>
      </trkpt>
      <trkpt lat="59.982856437564" lon="15.791267277673">
        <ele>123.2</ele>
        <time>2014-11-08T16:36:30Z</time>
      </trkpt>
      <trkpt lat="59.982782844454" lon="15.791484704241">
        <ele>123</ele>
        <time>2014-11-08T16:36:35Z</time>
      </trkpt>
      <trkpt lat="59.982674885541" lon="15.791650079191">
        <ele>122.8</ele>
        <time>2014-11-08T16:36:40Z</time>
      </trkpt>
      <trkpt lat="59.982522502542" lon="15.79186222516">
        <ele>123.6</ele>
        <time>2014-11-08T16:36:48Z</time>
      </trkpt>
      <trkpt lat="59.982361737639" lon="15.79205702059">
        <ele>123.2</ele>
        <time>2014-11-08T16:36:56Z</time>
      </trkpt>
      <trkpt lat="59.982253778726" lon="15.792219629511">
        <ele>122.4</ele>
        <time>2014-11-08T16:37:01Z</time>
      </trkpt>
      <trkpt lat="59.982219496742" lon="15.792278554291">
        <ele>122</ele>
        <time>2014-11-08T16:37:03Z</time>
      </trkpt>
      <trkpt lat="59.982125367969" lon="15.792511152104">
        <ele>121.2</ele>
        <time>2014-11-08T16:37:08Z</time>
      </trkpt>
      <trkpt lat="59.982040291652" lon="15.79262313433">
        <ele>121</ele>
        <time>2014-11-08T16:37:12Z</time>
      </trkpt>
      <trkpt lat="59.981992430985" lon="15.792676107958">
        <ele>121.2</ele>
        <time>2014-11-08T16:37:14Z</time>
      </trkpt>
      <trkpt lat="59.98185521923" lon="15.792833101004">
        <ele>121.2</ele>
        <time>2014-11-08T16:37:20Z</time>
      </trkpt>
      <trkpt lat="59.981708535925" lon="15.793032255024">
        <ele>120.8</ele>
        <time>2014-11-08T16:37:27Z</time>
      </trkpt>
      <trkpt lat="59.981620693579" lon="15.793328555301">
        <ele>120.4</ele>
        <time>2014-11-08T16:37:33Z</time>
      </trkpt>
      <trkpt lat="59.981615077704" lon="15.793569786474">
        <ele>120.4</ele>
        <time>2014-11-08T16:37:38Z</time>
      </trkpt>
      <trkpt lat="59.981672242284" lon="15.79385929741">
        <ele>120.6</ele>
        <time>2014-11-08T16:37:44Z</time>
      </trkpt>
      <trkpt lat="59.981757737696" lon="15.794108239934">
        <ele>121.2</ele>
        <time>2014-11-08T16:37:50Z</time>
      </trkpt>
      <trkpt lat="59.981860667467" lon="15.794403366745">
        <ele>121.8</ele>
        <time>2014-11-08T16:37:57Z</time>
      </trkpt>
      <trkpt lat="59.981918251142" lon="15.794530939311">
        <ele>122</ele>
        <time>2014-11-08T16:38:00Z</time>
      </trkpt>
      <trkpt lat="59.981960747391" lon="15.794656081125">
        <ele>122.2</ele>
        <time>2014-11-08T16:38:03Z</time>
      </trkpt>
      <trkpt lat="59.982070885599" lon="15.794914662838">
        <ele>122.4</ele>
        <time>2014-11-08T16:38:09Z</time>
      </trkpt>
      <trkpt lat="59.982144813985" lon="15.795080959797">
        <ele>123.2</ele>
        <time>2014-11-08T16:38:13Z</time>
      </trkpt>
      <trkpt lat="59.982199128717" lon="15.795196881518">
        <ele>123.6</ele>
        <time>2014-11-08T16:38:16Z</time>
      </trkpt>
      <trkpt lat="59.982278756797" lon="15.795399723575">
        <ele>123.6</ele>
        <time>2014-11-08T16:38:21Z</time>
      </trkpt>
      <trkpt lat="59.982407838106" lon="15.795661658049">
        <ele>123.6</ele>
        <time>2014-11-08T16:38:28Z</time>
      </trkpt>
      <trkpt lat="59.98252610676" lon="15.79587271437">
        <ele>123.6</ele>
        <time>2014-11-08T16:38:34Z</time>
      </trkpt>
      <trkpt lat="59.982664240524" lon="15.796135989949">
        <ele>123.6</ele>
        <time>2014-11-08T16:38:41Z</time>
      </trkpt>
      <trkpt lat="59.982787705958" lon="15.79636188224">
        <ele>123.4</ele>
        <time>2014-11-08T16:38:47Z</time>
      </trkpt>
      <trkpt lat="59.982914691791" lon="15.796550475061">
        <ele>122.8</ele>
        <time>2014-11-08T16:38:53Z</time>
      </trkpt>
      <trkpt lat="59.983036732301" lon="15.796740408987">
        <ele>122.2</ele>
        <time>2014-11-08T16:38:59Z</time>
      </trkpt>
      <trkpt lat="59.983088113368" lon="15.796818193048">
        <ele>122</ele>
        <time>2014-11-08T16:39:01Z</time>
      </trkpt>
      <trkpt lat="59.983177212998" lon="15.796936964616">
        <ele>121.2</ele>
        <time>2014-11-08T16:39:05Z</time>
      </trkpt>
      <trkpt lat="59.983203364536" lon="15.796964038163">
        <ele>121</ele>
        <time>2014-11-08T16:39:06Z</time>
      </trkpt>
      <trkpt lat="59.983311491087" lon="15.797101669014">
        <ele>120.4</ele>
        <time>2014-11-08T16:39:11Z</time>
      </trkpt>
      <trkpt lat="59.983364380896" lon="15.797171406448">
        <ele>119.8</ele>
        <time>2014-11-08T16:39:13Z</time>
      </trkpt>
      <trkpt lat="59.983454737812" lon="15.797270061448">
        <ele>119.2</ele>
        <time>2014-11-08T16:39:17Z</time>
      </trkpt>
      <trkpt lat="59.983535958454" lon="15.7973504439">
        <ele>118.8</ele>
        <time>2014-11-08T16:39:20Z</time>
      </trkpt>
      <trkpt lat="59.983579544351" lon="15.797401322052">
        <ele>118.8</ele>
        <time>2014-11-08T16:39:22Z</time>
      </trkpt>
      <trkpt lat="59.983737543225" lon="15.797577509657">
        <ele>118</ele>
        <time>2014-11-08T16:39:29Z</time>
      </trkpt>
      <trkpt lat="59.98377953656" lon="15.797622101381">
        <ele>117.8</ele>
        <time>2014-11-08T16:39:31Z</time>
      </trkpt>
      <trkpt lat="59.98380635865" lon="15.797653449699">
        <ele>117.6</ele>
        <time>2014-11-08T16:39:32Z</time>
      </trkpt>
      <trkpt lat="59.983955975622" lon="15.797803066671">
        <ele>117.4</ele>
        <time>2014-11-08T16:39:38Z</time>
      </trkpt>
      <trkpt lat="59.984112968668" lon="15.797924520448">
        <ele>117</ele>
        <time>2014-11-08T16:39:44Z</time>
      </trkpt>
      <trkpt lat="59.984266273677" lon="15.798018397763">
        <ele>116.6</ele>
        <time>2014-11-08T16:39:50Z</time>
      </trkpt>
      <trkpt lat="59.984433408827" lon="15.797962322831">
        <ele>116</ele>
        <time>2014-11-08T16:39:56Z</time>
      </trkpt>
      <trkpt lat="59.984513204545" lon="15.797729976475">
        <ele>115.8</ele>
        <time>2014-11-08T16:40:01Z</time>
      </trkpt>
      <trkpt lat="59.984579253942" lon="15.797474412248">
        <ele>116.2</ele>
        <time>2014-11-08T16:40:06Z</time>
      </trkpt>
      <trkpt lat="59.98467547819" lon="15.797163108364">
        <ele>116.4</ele>
        <time>2014-11-08T16:40:12Z</time>
      </trkpt>
      <trkpt lat="59.984705988318" lon="15.797065375373">
        <ele>116.6</ele>
        <time>2014-11-08T16:40:14Z</time>
      </trkpt>
      <trkpt lat="59.984803134575" lon="15.796815594658">
        <ele>117.2</ele>
        <time>2014-11-08T16:40:20Z</time>
      </trkpt>
      <trkpt lat="59.984896592796" lon="15.796656589955">
        <ele>117.4</ele>
        <time>2014-11-08T16:40:25Z</time>
      </trkpt>
      <trkpt lat="59.985037408769" lon="15.796561874449">
        <ele>117.4</ele>
        <time>2014-11-08T16:40:31Z</time>
      </trkpt>
      <trkpt lat="59.985069679096" lon="15.796538488939">
        <ele>117.6</ele>
        <time>2014-11-08T16:40:32Z</time>
      </trkpt>
      <trkpt lat="59.985217954963" lon="15.79643111676">
        <ele>117.4</ele>
        <time>2014-11-08T16:40:38Z</time>
      </trkpt>
      <trkpt lat="59.985362291336" lon="15.796313853934">
        <ele>117.6</ele>
        <time>2014-11-08T16:40:44Z</time>
      </trkpt>
      <trkpt lat="59.98553076759" lon="15.796181000769">
        <ele>117.4</ele>
        <time>2014-11-08T16:40:51Z</time>
      </trkpt>
      <trkpt lat="59.985670661554" lon="15.796047141775">
        <ele>117.4</ele>
        <time>2014-11-08T16:40:57Z</time>
      </trkpt>
      <trkpt lat="59.985799826682" lon="15.795936333016">
        <ele>117.4</ele>
        <time>2014-11-08T16:41:02Z</time>
      </trkpt>
      <trkpt lat="59.985945504159" lon="15.795777998865">
        <ele>117.2</ele>
        <time>2014-11-08T16:41:08Z</time>
      </trkpt>
      <trkpt lat="59.986124793068" lon="15.795575240627">
        <ele>117.4</ele>
        <time>2014-11-08T16:41:16Z</time>
      </trkpt>
      <trkpt lat="59.986246917397" lon="15.795422187075">
        <ele>117.6</ele>
        <time>2014-11-08T16:41:22Z</time>
      </trkpt>
      <trkpt lat="59.98642067425" lon="15.795250274241">
        <ele>118.4</ele>
        <time>2014-11-08T16:41:30Z</time>
      </trkpt>
      <trkpt lat="59.986485633999" lon="15.795201156288">
        <ele>118.6</ele>
        <time>2014-11-08T16:41:33Z</time>
      </trkpt>
      <trkpt lat="59.986574482173" lon="15.795161258429">
        <ele>119.2</ele>
        <time>2014-11-08T16:41:37Z</time>
      </trkpt>
      <trkpt lat="59.986705910414" lon="15.795111721382">
        <ele>119.6</ele>
        <time>2014-11-08T16:41:42Z</time>
      </trkpt>
      <trkpt lat="59.986780509353" lon="15.795085066929">
        <ele>119.8</ele>
        <time>2014-11-08T16:41:45Z</time>
      </trkpt>
      <trkpt lat="59.986855695024" lon="15.795081881806">
        <ele>119.8</ele>
        <time>2014-11-08T16:41:48Z</time>
      </trkpt>
      <trkpt lat="59.987012185156" lon="15.795160671696">
        <ele>120.2</ele>
        <time>2014-11-08T16:41:54Z</time>
      </trkpt>
      <trkpt lat="59.987123748288" lon="15.795312467963">
        <ele>120.2</ele>
        <time>2014-11-08T16:41:59Z</time>
      </trkpt>
      <trkpt lat="59.987231455743" lon="15.795503575355">
        <ele>119.6</ele>
        <time>2014-11-08T16:42:05Z</time>
      </trkpt>
      <trkpt lat="59.987369924784" lon="15.795754445717">
        <ele>118.6</ele>
        <time>2014-11-08T16:42:12Z</time>
      </trkpt>
      <trkpt lat="59.987468663603" lon="15.795943960547">
        <ele>117.8</ele>
        <time>2014-11-08T16:42:17Z</time>
      </trkpt>
      <trkpt lat="59.987538317218" lon="15.796050159261">
        <ele>117.4</ele>
        <time>2014-11-08T16:42:20Z</time>
      </trkpt>
      <trkpt lat="59.987631440163" lon="15.796258701012">
        <ele>116.4</ele>
        <time>2014-11-08T16:42:25Z</time>
      </trkpt>
      <trkpt lat="59.987658094615" lon="15.796290300786">
        <ele>116.4</ele>
        <time>2014-11-08T16:42:26Z</time>
      </trkpt>
      <trkpt lat="59.987746858969" lon="15.796437906101">
        <ele>116</ele>
        <time>2014-11-08T16:42:30Z</time>
      </trkpt>
      <trkpt lat="59.987817266956" lon="15.79655491747">
        <ele>115.2</ele>
        <time>2014-11-08T16:42:33Z</time>
      </trkpt>
      <trkpt lat="59.987926315516" lon="15.796725656837">
        <ele>114.4</ele>
        <time>2014-11-08T16:42:38Z</time>
      </trkpt>
      <trkpt lat="59.987943666056" lon="15.796758513898">
        <ele>114.2</ele>
        <time>2014-11-08T16:42:39Z</time>
      </trkpt>
      <trkpt lat="59.988017007709" lon="15.796890696511">
        <ele>113.6</ele>
        <time>2014-11-08T16:42:43Z</time>
      </trkpt>
      <trkpt lat="59.988039806485" lon="15.796919781715">
        <ele>113.6</ele>
        <time>2014-11-08T16:42:44Z</time>
      </trkpt>
      <trkpt lat="59.988090014085" lon="15.796914501116">
        <ele>113.2</ele>
        <time>2014-11-08T16:42:46Z</time>
      </trkpt>
      <trkpt lat="59.988114153966" lon="15.796904023737">
        <ele>113</ele>
        <time>2014-11-08T16:42:47Z</time>
      </trkpt>
      <trkpt lat="59.988227477297" lon="15.796841243282">
        <ele>112.8</ele>
        <time>2014-11-08T16:42:52Z</time>
      </trkpt>
      <trkpt lat="59.988371143118" lon="15.796692632139">
        <ele>112.4</ele>
        <time>2014-11-08T16:42:58Z</time>
      </trkpt>
      <trkpt lat="59.988474324346" lon="15.796615350991">
        <ele>112.2</ele>
        <time>2014-11-08T16:43:02Z</time>
      </trkpt>
      <trkpt lat="59.988517407328" lon="15.796560365707">
        <ele>112.4</ele>
        <time>2014-11-08T16:43:04Z</time>
      </trkpt>
      <trkpt lat="59.988572392613" lon="15.796492137015">
        <ele>112.2</ele>
        <time>2014-11-08T16:43:07Z</time>
      </trkpt>
      <trkpt lat="59.988619163632" lon="15.79645710066">
        <ele>112</ele>
        <time>2014-11-08T16:43:08Z</time>
      </trkpt>
      <trkpt lat="59.988703653216" lon="15.796380992979">
        <ele>111.8</ele>
        <time>2014-11-08T16:43:11Z</time>
      </trkpt>
      <trkpt lat="59.988854276016" lon="15.796286193654">
        <ele>111.2</ele>
        <time>2014-11-08T16:43:16Z</time>
      </trkpt>
      <trkpt lat="59.988970113918" lon="15.79619131051">
        <ele>111.2</ele>
        <time>2014-11-08T16:43:20Z</time>
      </trkpt>
      <trkpt lat="59.989031888545" lon="15.796137917787">
        <ele>111.4</ele>
        <time>2014-11-08T16:43:22Z</time>
      </trkpt>
      <trkpt lat="59.98909458518" lon="15.796084525064">
        <ele>111.4</ele>
        <time>2014-11-08T16:43:24Z</time>
      </trkpt>
      <trkpt lat="59.989274796098" lon="15.795932728797">
        <ele>111.4</ele>
        <time>2014-11-08T16:43:30Z</time>
      </trkpt>
      <trkpt lat="59.989401195198" lon="15.795826949179">
        <ele>111.2</ele>
        <time>2014-11-08T16:43:35Z</time>
      </trkpt>
      <trkpt lat="59.989454168826" lon="15.79578269273">
        <ele>111</ele>
        <time>2014-11-08T16:43:37Z</time>
      </trkpt>
      <trkpt lat="59.989500269294" lon="15.795751009136">
        <ele>110.8</ele>
        <time>2014-11-08T16:43:39Z</time>
      </trkpt>
      <trkpt lat="59.989534048364" lon="15.795717732981">
        <ele>110.6</ele>
        <time>2014-11-08T16:43:40Z</time>
      </trkpt>
      <trkpt lat="59.989657429978" lon="15.795574318618">
        <ele>110.6</ele>
        <time>2014-11-08T16:43:45Z</time>
      </trkpt>
      <trkpt lat="59.989796904847" lon="15.795397963375">
        <ele>111.2</ele>
        <time>2014-11-08T16:43:51Z</time>
      </trkpt>
      <trkpt lat="59.98988927342" lon="15.795329231769">
        <ele>111.4</ele>
        <time>2014-11-08T16:43:54Z</time>
      </trkpt>
      <trkpt lat="59.989938810468" lon="15.795284891501">
        <ele>111.6</ele>
        <time>2014-11-08T16:43:56Z</time>
      </trkpt>
      <trkpt lat="59.989996226504" lon="15.795212639496">
        <ele>111.6</ele>
        <time>2014-11-08T16:43:58Z</time>
      </trkpt>
      <trkpt lat="59.990120446309" lon="15.795118510723">
        <ele>111.8</ele>
        <time>2014-11-08T16:44:03Z</time>
      </trkpt>
      <trkpt lat="59.990291269496" lon="15.794963948429">
        <ele>111.2</ele>
        <time>2014-11-08T16:44:10Z</time>
      </trkpt>
      <trkpt lat="59.990459997207" lon="15.794798992574">
        <ele>111.6</ele>
        <time>2014-11-08T16:44:17Z</time>
      </trkpt>
      <trkpt lat="59.990530489013" lon="15.794719280675">
        <ele>112.2</ele>
        <time>2014-11-08T16:44:20Z</time>
      </trkpt>
      <trkpt lat="59.990598466247" lon="15.794645184651">
        <ele>112.4</ele>
        <time>2014-11-08T16:44:23Z</time>
      </trkpt>
      <trkpt lat="59.990763925016" lon="15.794489784166">
        <ele>112.8</ele>
        <time>2014-11-08T16:44:29Z</time>
      </trkpt>
      <trkpt lat="59.990792507306" lon="15.794469416142">
        <ele>112.4</ele>
        <time>2014-11-08T16:44:30Z</time>
      </trkpt>
      <trkpt lat="59.990952350199" lon="15.7943344675">
        <ele>112</ele>
        <time>2014-11-08T16:44:36Z</time>
      </trkpt>
      <trkpt lat="59.991087801754" lon="15.794246038422">
        <ele>111.4</ele>
        <time>2014-11-08T16:44:41Z</time>
      </trkpt>
      <trkpt lat="59.991113869473" lon="15.794231956825">
        <ele>111.2</ele>
        <time>2014-11-08T16:44:42Z</time>
      </trkpt>
      <trkpt lat="59.991213530302" lon="15.794182755053">
        <ele>110.8</ele>
        <time>2014-11-08T16:44:46Z</time>
      </trkpt>
      <trkpt lat="59.991363985464" lon="15.794136570767">
        <ele>111</ele>
        <time>2014-11-08T16:44:52Z</time>
      </trkpt>
      <trkpt lat="59.991485690698" lon="15.794065659866">
        <ele>111.2</ele>
        <time>2014-11-08T16:44:57Z</time>
      </trkpt>
      <trkpt lat="59.99163530767" lon="15.793933141977">
        <ele>112.2</ele>
        <time>2014-11-08T16:45:03Z</time>
      </trkpt>
      <trkpt lat="59.991787523031" lon="15.793725606054">
        <ele>112.8</ele>
        <time>2014-11-08T16:45:10Z</time>
      </trkpt>
      <trkpt lat="59.991893721744" lon="15.793570624664">
        <ele>113.4</ele>
        <time>2014-11-08T16:45:15Z</time>
      </trkpt>
      <trkpt lat="59.991915598512" lon="15.793543802574">
        <ele>113.4</ele>
        <time>2014-11-08T16:45:16Z</time>
      </trkpt>
      <trkpt lat="59.992016265169" lon="15.793399550021">
        <ele>113.4</ele>
        <time>2014-11-08T16:45:21Z</time>
      </trkpt>
      <trkpt lat="59.992045434192" lon="15.793375493959">
        <ele>113.6</ele>
        <time>2014-11-08T16:45:22Z</time>
      </trkpt>
      <trkpt lat="59.992105700076" lon="15.793299553916">
        <ele>113.4</ele>
        <time>2014-11-08T16:45:25Z</time>
      </trkpt>
      <trkpt lat="59.992176527157" lon="15.793217495084">
        <ele>113.4</ele>
        <time>2014-11-08T16:45:28Z</time>
      </trkpt>
      <trkpt lat="59.992315834388" lon="15.79307676293">
        <ele>113.6</ele>
        <time>2014-11-08T16:45:34Z</time>
      </trkpt>
      <trkpt lat="59.992457404733" lon="15.79292614013">
        <ele>112.8</ele>
        <time>2014-11-08T16:45:40Z</time>
      </trkpt>
      <trkpt lat="59.992554131895" lon="15.792828742415">
        <ele>112.2</ele>
        <time>2014-11-08T16:45:44Z</time>
      </trkpt>
      <trkpt lat="59.992651026696" lon="15.792736122385">
        <ele>112.2</ele>
        <time>2014-11-08T16:45:48Z</time>
      </trkpt>
      <trkpt lat="59.992751441896" lon="15.792615758255">
        <ele>112.2</ele>
        <time>2014-11-08T16:45:52Z</time>
      </trkpt>
      <trkpt lat="59.992854036391" lon="15.792502183467">
        <ele>112.2</ele>
        <time>2014-11-08T16:45:57Z</time>
      </trkpt>
      <trkpt lat="59.992988817394" lon="15.792356338352">
        <ele>112</ele>
        <time>2014-11-08T16:46:02Z</time>
      </trkpt>
      <trkpt lat="59.993154024705" lon="15.792200015858">
        <ele>111</ele>
        <time>2014-11-08T16:46:08Z</time>
      </trkpt>
      <trkpt lat="59.993256116286" lon="15.792082333937">
        <ele>109.8</ele>
        <time>2014-11-08T16:46:12Z</time>
      </trkpt>
      <trkpt lat="59.99329643324" lon="15.792011255398">
        <ele>109.6</ele>
        <time>2014-11-08T16:46:14Z</time>
      </trkpt>
      <trkpt lat="59.993346557021" lon="15.791952079162">
        <ele>108.8</ele>
        <time>2014-11-08T16:46:16Z</time>
      </trkpt>
      <trkpt lat="59.993418557569" lon="15.791860381141">
        <ele>108.6</ele>
        <time>2014-11-08T16:46:19Z</time>
      </trkpt>
      <trkpt lat="59.993546884507" lon="15.791756948456">
        <ele>108</ele>
        <time>2014-11-08T16:46:24Z</time>
      </trkpt>
      <trkpt lat="59.993637073785" lon="15.791695257649">
        <ele>107.8</ele>
        <time>2014-11-08T16:46:28Z</time>
      </trkpt>
      <trkpt lat="59.993661381304" lon="15.791681678966">
        <ele>107.8</ele>
        <time>2014-11-08T16:46:29Z</time>
      </trkpt>
      <trkpt lat="59.993788953871" lon="15.791547652334">
        <ele>108</ele>
        <time>2014-11-08T16:46:34Z</time>
      </trkpt>
      <trkpt lat="59.993911832571" lon="15.791412368417">
        <ele>108.4</ele>
        <time>2014-11-08T16:46:39Z</time>
      </trkpt>
      <trkpt lat="59.994032364339" lon="15.791267696768">
        <ele>108.8</ele>
        <time>2014-11-08T16:46:44Z</time>
      </trkpt>
      <trkpt lat="59.994128588587" lon="15.791178429499">
        <ele>109.2</ele>
        <time>2014-11-08T16:46:48Z</time>
      </trkpt>
      <trkpt lat="59.994240989909" lon="15.791054293513">
        <ele>109.2</ele>
        <time>2014-11-08T16:46:53Z</time>
      </trkpt>
      <trkpt lat="59.994265213609" lon="15.791016407311">
        <ele>109.2</ele>
        <time>2014-11-08T16:46:54Z</time>
      </trkpt>
      <trkpt lat="59.994311314076" lon="15.790952537209">
        <ele>109.2</ele>
        <time>2014-11-08T16:46:57Z</time>
      </trkpt>
      <trkpt lat="59.994362359866" lon="15.790878608823">
        <ele>109.4</ele>
        <time>2014-11-08T16:46:59Z</time>
      </trkpt>
      <trkpt lat="59.994380883873" lon="15.790847260505">
        <ele>109.6</ele>
        <time>2014-11-08T16:47:00Z</time>
      </trkpt>
      <trkpt lat="59.994430923834" lon="15.790789090097">
        <ele>109.8</ele>
        <time>2014-11-08T16:47:02Z</time>
      </trkpt>
      <trkpt lat="59.994487082586" lon="15.790734440088">
        <ele>110.2</ele>
        <time>2014-11-08T16:47:04Z</time>
      </trkpt>
      <trkpt lat="59.994643153623" lon="15.790596473962">
        <ele>110.2</ele>
        <time>2014-11-08T16:47:10Z</time>
      </trkpt>
      <trkpt lat="59.994744155556" lon="15.790515588596">
        <ele>110.4</ele>
        <time>2014-11-08T16:47:15Z</time>
      </trkpt>
      <trkpt lat="59.994761087" lon="15.790471751243">
        <ele>110.2</ele>
        <time>2014-11-08T16:47:16Z</time>
      </trkpt>
      <trkpt lat="59.994829650968" lon="15.790383154526">
        <ele>110.4</ele>
        <time>2014-11-08T16:47:19Z</time>
      </trkpt>
      <trkpt lat="59.994912464172" lon="15.790309142321">
        <ele>110.4</ele>
        <time>2014-11-08T16:47:22Z</time>
      </trkpt>
      <trkpt lat="59.994965940714" lon="15.790267484263">
        <ele>110.2</ele>
        <time>2014-11-08T16:47:24Z</time>
      </trkpt>
      <trkpt lat="59.994988990948" lon="15.790241081268">
        <ele>110.2</ele>
        <time>2014-11-08T16:47:25Z</time>
      </trkpt>
      <trkpt lat="59.995047915727" lon="15.790169835091">
        <ele>110</ele>
        <time>2014-11-08T16:47:28Z</time>
      </trkpt>
      <trkpt lat="59.995065769181" lon="15.790157346055">
        <ele>110</ele>
        <time>2014-11-08T16:47:29Z</time>
      </trkpt>
      <trkpt lat="59.995148163289" lon="15.790085345507">
        <ele>110</ele>
        <time>2014-11-08T16:47:32Z</time>
      </trkpt>
      <trkpt lat="59.995178254321" lon="15.790061373264">
        <ele>110</ele>
        <time>2014-11-08T16:47:33Z</time>
      </trkpt>
      <trkpt lat="59.995284536853" lon="15.789952911437">
        <ele>110</ele>
        <time>2014-11-08T16:47:37Z</time>
      </trkpt>
      <trkpt lat="59.995425017551" lon="15.789838079363">
        <ele>110.2</ele>
        <time>2014-11-08T16:47:42Z</time>
      </trkpt>
      <trkpt lat="59.995524846017" lon="15.78973883763">
        <ele>110.2</ele>
        <time>2014-11-08T16:47:46Z</time>
      </trkpt>
      <trkpt lat="59.995571617037" lon="15.789709752426">
        <ele>110</ele>
        <time>2014-11-08T16:47:48Z</time>
      </trkpt>
      <trkpt lat="59.995619058609" lon="15.789660383016">
        <ele>110</ele>
        <time>2014-11-08T16:47:50Z</time>
      </trkpt>
      <trkpt lat="59.995652921498" lon="15.789596261457">
        <ele>110.2</ele>
        <time>2014-11-08T16:47:52Z</time>
      </trkpt>
      <trkpt lat="59.995708493516" lon="15.789560135454">
        <ele>110</ele>
        <time>2014-11-08T16:47:54Z</time>
      </trkpt>
      <trkpt lat="59.995773788542" lon="15.789512274787">
        <ele>110.2</ele>
        <time>2014-11-08T16:47:56Z</time>
      </trkpt>
      <trkpt lat="59.99585006386" lon="15.789437675849">
        <ele>110.4</ele>
        <time>2014-11-08T16:47:59Z</time>
      </trkpt>
      <trkpt lat="59.99598341994" lon="15.789331141859">
        <ele>110.8</ele>
        <time>2014-11-08T16:48:04Z</time>
      </trkpt>
      <trkpt lat="59.995997082442" lon="15.789333740249">
        <ele>110.6</ele>
        <time>2014-11-08T16:48:05Z</time>
      </trkpt>
      <trkpt lat="59.996068663895" lon="15.789268696681">
        <ele>110.6</ele>
        <time>2014-11-08T16:48:08Z</time>
      </trkpt>
      <trkpt lat="59.996119793504" lon="15.789165850729">
        <ele>110.6</ele>
        <time>2014-11-08T16:48:10Z</time>
      </trkpt>
      <trkpt lat="59.996147369966" lon="15.789147661999">
        <ele>110.6</ele>
        <time>2014-11-08T16:48:11Z</time>
      </trkpt>
      <trkpt lat="59.996170923114" lon="15.78913542442">
        <ele>110.4</ele>
        <time>2014-11-08T16:48:12Z</time>
      </trkpt>
      <trkpt lat="59.996262621135" lon="15.789051102474">
        <ele>110.4</ele>
        <time>2014-11-08T16:48:15Z</time>
      </trkpt>
      <trkpt lat="59.996281899512" lon="15.789035763592">
        <ele>110.2</ele>
        <time>2014-11-08T16:48:16Z</time>
      </trkpt>
      <trkpt lat="59.996365718544" lon="15.788969127461">
        <ele>110</ele>
        <time>2014-11-08T16:48:19Z</time>
      </trkpt>
      <trkpt lat="59.996519777924" lon="15.788814062253">
        <ele>110</ele>
        <time>2014-11-08T16:48:25Z</time>
      </trkpt>
      <trkpt lat="59.996584234759" lon="15.788732254878">
        <ele>110.2</ele>
        <time>2014-11-08T16:48:28Z</time>
      </trkpt>
      <trkpt lat="59.996678195894" lon="15.788634438068">
        <ele>111</ele>
        <time>2014-11-08T16:48:32Z</time>
      </trkpt>
      <trkpt lat="59.996691942215" lon="15.788611555472">
        <ele>111.2</ele>
        <time>2014-11-08T16:48:33Z</time>
      </trkpt>
      <trkpt lat="59.996773498133" lon="15.788510804996">
        <ele>111.2</ele>
        <time>2014-11-08T16:48:37Z</time>
      </trkpt>
      <trkpt lat="59.996834769845" lon="15.78843687661">
        <ele>111.6</ele>
        <time>2014-11-08T16:48:40Z</time>
      </trkpt>
      <trkpt lat="59.996922109276" lon="15.788402846083">
        <ele>111.8</ele>
        <time>2014-11-08T16:48:43Z</time>
      </trkpt>
      <trkpt lat="59.997001904994" lon="15.788426734507">
        <ele>111.6</ele>
        <time>2014-11-08T16:48:46Z</time>
      </trkpt>
      <trkpt lat="59.997022021562" lon="15.788428746164">
        <ele>111.4</ele>
        <time>2014-11-08T16:48:47Z</time>
      </trkpt>
      <trkpt lat="59.997194940224" lon="15.788391949609">
        <ele>111</ele>
        <time>2014-11-08T16:48:53Z</time>
      </trkpt>
      <trkpt lat="59.997370289639" lon="15.788303771988">
        <ele>110</ele>
        <time>2014-11-08T16:48:58Z</time>
      </trkpt>
      <trkpt lat="59.997479338199" lon="15.788235627115">
        <ele>109</ele>
        <time>2014-11-08T16:49:02Z</time>
      </trkpt>
      <trkpt lat="59.99751043506" lon="15.788218025118">
        <ele>108.8</ele>
        <time>2014-11-08T16:49:03Z</time>
      </trkpt>
      <trkpt lat="59.997645970434" lon="15.788132613525">
        <ele>107.8</ele>
        <time>2014-11-08T16:49:08Z</time>
      </trkpt>
      <trkpt lat="59.997672373429" lon="15.78811484389">
        <ele>107.8</ele>
        <time>2014-11-08T16:49:09Z</time>
      </trkpt>
      <trkpt lat="59.997808830813" lon="15.788020966575">
        <ele>107.4</ele>
        <time>2014-11-08T16:49:14Z</time>
      </trkpt>
      <trkpt lat="59.997919304296" lon="15.787906134501">
        <ele>107.6</ele>
        <time>2014-11-08T16:49:19Z</time>
      </trkpt>
      <trkpt lat="59.998011086136" lon="15.787785518914">
        <ele>107.6</ele>
        <time>2014-11-08T16:49:23Z</time>
      </trkpt>
      <trkpt lat="59.998124660924" lon="15.787673871964">
        <ele>107.6</ele>
        <time>2014-11-08T16:49:28Z</time>
      </trkpt>
      <trkpt lat="59.998200936243" lon="15.7876101695">
        <ele>108</ele>
        <time>2014-11-08T16:49:31Z</time>
      </trkpt>
      <trkpt lat="59.998241672292" lon="15.787570020184">
        <ele>108</ele>
        <time>2014-11-08T16:49:33Z</time>
      </trkpt>
      <trkpt lat="59.998323982581" lon="15.787470107898">
        <ele>108.2</ele>
        <time>2014-11-08T16:49:37Z</time>
      </trkpt>
      <trkpt lat="59.998350217938" lon="15.787433814257">
        <ele>108.2</ele>
        <time>2014-11-08T16:49:38Z</time>
      </trkpt>
      <trkpt lat="59.998393552378" lon="15.787384361029">
        <ele>108.8</ele>
        <time>2014-11-08T16:49:40Z</time>
      </trkpt>
      <trkpt lat="59.998474605381" lon="15.787306996062">
        <ele>109.2</ele>
        <time>2014-11-08T16:49:43Z</time>
      </trkpt>
      <trkpt lat="59.998552054167" lon="15.78719031997">
        <ele>109.4</ele>
        <time>2014-11-08T16:49:47Z</time>
      </trkpt>
      <trkpt lat="59.998675771058" lon="15.786992590874">
        <ele>109.4</ele>
        <time>2014-11-08T16:49:53Z</time>
      </trkpt>
      <trkpt lat="59.998783478513" lon="15.786816570908">
        <ele>109.4</ele>
        <time>2014-11-08T16:49:58Z</time>
      </trkpt>
      <trkpt lat="59.998893281445" lon="15.786679107696">
        <ele>109</ele>
        <time>2014-11-08T16:50:03Z</time>
      </trkpt>
      <trkpt lat="59.998999983072" lon="15.786573076621">
        <ele>109.4</ele>
        <time>2014-11-08T16:50:08Z</time>
      </trkpt>
      <trkpt lat="59.999056560919" lon="15.78653678298">
        <ele>110</ele>
        <time>2014-11-08T16:50:11Z</time>
      </trkpt>
      <trkpt lat="59.999111294746" lon="15.78651339747">
        <ele>110.2</ele>
        <time>2014-11-08T16:50:13Z</time>
      </trkpt>
      <trkpt lat="59.999139374122" lon="15.786499651149">
        <ele>110.2</ele>
        <time>2014-11-08T16:50:14Z</time>
      </trkpt>
      <trkpt lat="59.999224701896" lon="15.786436703056">
        <ele>109.8</ele>
        <time>2014-11-08T16:50:17Z</time>
      </trkpt>
      <trkpt lat="59.999272730201" lon="15.786385070533">
        <ele>109.6</ele>
        <time>2014-11-08T16:50:19Z</time>
      </trkpt>
      <trkpt lat="59.999328805134" lon="15.78633335419">
        <ele>109.8</ele>
        <time>2014-11-08T16:50:21Z</time>
      </trkpt>
      <trkpt lat="59.999360907823" lon="15.786274429411">
        <ele>109.8</ele>
        <time>2014-11-08T16:50:23Z</time>
      </trkpt>
      <trkpt lat="59.999449253082" lon="15.786115340889">
        <ele>110.6</ele>
        <time>2014-11-08T16:50:27Z</time>
      </trkpt>
      <trkpt lat="59.999470878392" lon="15.786086758599">
        <ele>110.6</ele>
        <time>2014-11-08T16:50:28Z</time>
      </trkpt>
      <trkpt lat="59.999592080712" lon="15.785928508267">
        <ele>110.6</ele>
        <time>2014-11-08T16:50:33Z</time>
      </trkpt>
      <trkpt lat="59.999731220305" lon="15.785746956244">
        <ele>109.8</ele>
        <time>2014-11-08T16:50:39Z</time>
      </trkpt>
      <trkpt lat="59.999884692952" lon="15.785539671779">
        <ele>109.8</ele>
        <time>2014-11-08T16:50:45Z</time>
      </trkpt>
      <trkpt lat="59.999962393194" lon="15.785360047594">
        <ele>110</ele>
        <time>2014-11-08T16:50:49Z</time>
      </trkpt>
      <trkpt lat="60.000018384308" lon="15.785200791433">
        <ele>110.6</ele>
        <time>2014-11-08T16:50:53Z</time>
      </trkpt>
      <trkpt lat="60.000036908314" lon="15.785110099241">
        <ele>111.4</ele>
        <time>2014-11-08T16:50:55Z</time>
      </trkpt>
      <trkpt lat="60.000056186691" lon="15.785038517788">
        <ele>112.6</ele>
        <time>2014-11-08T16:50:57Z</time>
      </trkpt>
      <trkpt lat="60.00009004958" lon="15.784946484491">
        <ele>113</ele>
        <time>2014-11-08T16:50:59Z</time>
      </trkpt>
      <trkpt lat="60.000170934945" lon="15.784804495052">
        <ele>113.8</ele>
        <time>2014-11-08T16:51:03Z</time>
      </trkpt>
      <trkpt lat="60.000283839181" lon="15.78460467048">
        <ele>113.4</ele>
        <time>2014-11-08T16:51:09Z</time>
      </trkpt>
      <trkpt lat="60.000325664878" lon="15.784558150917">
        <ele>113.6</ele>
        <time>2014-11-08T16:51:11Z</time>
      </trkpt>
      <trkpt lat="60.000336309895" lon="15.784519007429">
        <ele>113.4</ele>
        <time>2014-11-08T16:51:12Z</time>
      </trkpt>
      <trkpt lat="60.000390792266" lon="15.784474164248">
        <ele>113.4</ele>
        <time>2014-11-08T16:51:14Z</time>
      </trkpt>
      <trkpt lat="60.000503361225" lon="15.784262940288">
        <ele>113.8</ele>
        <time>2014-11-08T16:51:19Z</time>
      </trkpt>
      <trkpt lat="60.000578127801" lon="15.784008549526">
        <ele>114.2</ele>
        <time>2014-11-08T16:51:25Z</time>
      </trkpt>
      <trkpt lat="60.000617858022" lon="15.783831439912">
        <ele>114.6</ele>
        <time>2014-11-08T16:51:29Z</time>
      </trkpt>
      <trkpt lat="60.000624479726" lon="15.783802689984">
        <ele>115</ele>
        <time>2014-11-08T16:51:30Z</time>
      </trkpt>
      <trkpt lat="60.00063017942" lon="15.783695653081">
        <ele>116.4</ele>
        <time>2014-11-08T16:51:33Z</time>
      </trkpt>
      <trkpt lat="60.00062238425" lon="15.783670172095">
        <ele>116.8</ele>
        <time>2014-11-08T16:51:34Z</time>
      </trkpt>
      <trkpt lat="60.000624312088" lon="15.783582162112">
        <ele>117.6</ele>
        <time>2014-11-08T16:51:36Z</time>
      </trkpt>
      <trkpt lat="60.000635879114" lon="15.783502617851">
        <ele>118.6</ele>
        <time>2014-11-08T16:51:38Z</time>
      </trkpt>
      <trkpt lat="60.000648284331" lon="15.783437574282">
        <ele>118.8</ele>
        <time>2014-11-08T16:51:39Z</time>
      </trkpt>
      <trkpt lat="60.000665802509" lon="15.783340260386">
        <ele>119.4</ele>
        <time>2014-11-08T16:51:42Z</time>
      </trkpt>
      <trkpt lat="60.000679632649" lon="15.783229032531">
        <ele>119.8</ele>
        <time>2014-11-08T16:51:44Z</time>
      </trkpt>
      <trkpt lat="60.000723470002" lon="15.783153343946">
        <ele>120</ele>
        <time>2014-11-08T16:51:46Z</time>
      </trkpt>
      <trkpt lat="60.000792620704" lon="15.78301185742">
        <ele>120.4</ele>
        <time>2014-11-08T16:51:50Z</time>
      </trkpt>
      <trkpt lat="60.00083536841" lon="15.782954106107">
        <ele>120.6</ele>
        <time>2014-11-08T16:51:52Z</time>
      </trkpt>
      <trkpt lat="60.000910302624" lon="15.782842459157">
        <ele>120.6</ele>
        <time>2014-11-08T16:51:55Z</time>
      </trkpt>
      <trkpt lat="60.001047682017" lon="15.782658057287">
        <ele>118.6</ele>
        <time>2014-11-08T16:52:00Z</time>
      </trkpt>
      <trkpt lat="60.001141726971" lon="15.782514559105">
        <ele>117.4</ele>
        <time>2014-11-08T16:52:04Z</time>
      </trkpt>
      <trkpt lat="60.001167291775" lon="15.782468961552">
        <ele>117.2</ele>
        <time>2014-11-08T16:52:05Z</time>
      </trkpt>
      <trkpt lat="60.001284386963" lon="15.782304089516">
        <ele>117</ele>
        <time>2014-11-08T16:52:10Z</time>
      </trkpt>
      <trkpt lat="60.00139192678" lon="15.782126560807">
        <ele>117.4</ele>
        <time>2014-11-08T16:52:15Z</time>
      </trkpt>
      <trkpt lat="60.001489324495" lon="15.781986750662">
        <ele>117.6</ele>
        <time>2014-11-08T16:52:19Z</time>
      </trkpt>
      <trkpt lat="60.001592338085" lon="15.781851215288">
        <ele>116.4</ele>
        <time>2014-11-08T16:52:23Z</time>
      </trkpt>
      <trkpt lat="60.001681270078" lon="15.781725654379">
        <ele>115.2</ele>
        <time>2014-11-08T16:52:27Z</time>
      </trkpt>
      <trkpt lat="60.001758299768" lon="15.781597243622">
        <ele>115.2</ele>
        <time>2014-11-08T16:52:32Z</time>
      </trkpt>
      <trkpt lat="60.001751510426" lon="15.781573606655">
        <ele>115.2</ele>
        <time>2014-11-08T16:52:33Z</time>
      </trkpt>
      <trkpt lat="60.001793252304" lon="15.781498588622">
        <ele>115.4</ele>
        <time>2014-11-08T16:52:35Z</time>
      </trkpt>
      <trkpt lat="60.001882519573" lon="15.781358946115">
        <ele>116</ele>
        <time>2014-11-08T16:52:40Z</time>
      </trkpt>
      <trkpt lat="60.001955358312" lon="15.781250400469">
        <ele>116.6</ele>
        <time>2014-11-08T16:52:44Z</time>
      </trkpt>
      <trkpt lat="60.001975139603" lon="15.781209329143">
        <ele>116.6</ele>
        <time>2014-11-08T16:52:45Z</time>
      </trkpt>
      <trkpt lat="60.002071866766" lon="15.781106818467">
        <ele>117.6</ele>
        <time>2014-11-08T16:52:50Z</time>
      </trkpt>
      <trkpt lat="60.002088546753" lon="15.781073123217">
        <ele>117.8</ele>
        <time>2014-11-08T16:52:51Z</time>
      </trkpt>
      <trkpt lat="60.002166917548" lon="15.780959632248">
        <ele>118.6</ele>
        <time>2014-11-08T16:52:55Z</time>
      </trkpt>
      <trkpt lat="60.002204049379" lon="15.780901210383">
        <ele>118.8</ele>
        <time>2014-11-08T16:52:57Z</time>
      </trkpt>
      <trkpt lat="60.002276888117" lon="15.780772631988">
        <ele>119.2</ele>
        <time>2014-11-08T16:53:01Z</time>
      </trkpt>
      <trkpt lat="60.002412255853" lon="15.780556797981">
        <ele>120</ele>
        <time>2014-11-08T16:53:08Z</time>
      </trkpt>
      <trkpt lat="60.002531614155" lon="15.780365858227">
        <ele>120.2</ele>
        <time>2014-11-08T16:53:14Z</time>
      </trkpt>
      <trkpt lat="60.002685589716" lon="15.7801587414">
        <ele>119.4</ele>
        <time>2014-11-08T16:53:20Z</time>
      </trkpt>
      <trkpt lat="60.002727080137" lon="15.780101995915">
        <ele>119</ele>
        <time>2014-11-08T16:53:22Z</time>
      </trkpt>
      <trkpt lat="60.002810899168" lon="15.780006023124">
        <ele>118.4</ele>
        <time>2014-11-08T16:53:26Z</time>
      </trkpt>
      <trkpt lat="60.00281425193" lon="15.77994659543">
        <ele>118.4</ele>
        <time>2014-11-08T16:53:27Z</time>
      </trkpt>
      <trkpt lat="60.002850964665" lon="15.779919186607">
        <ele>118.6</ele>
        <time>2014-11-08T16:53:29Z</time>
      </trkpt>
      <trkpt lat="60.002894634381" lon="15.779840061441">
        <ele>118.6</ele>
        <time>2014-11-08T16:53:31Z</time>
      </trkpt>
      <trkpt lat="60.002937382087" lon="15.779769653454">
        <ele>119.2</ele>
        <time>2014-11-08T16:53:33Z</time>
      </trkpt>
      <trkpt lat="60.003064116463" lon="15.779566224664">
        <ele>119.8</ele>
        <time>2014-11-08T16:53:39Z</time>
      </trkpt>
      <trkpt lat="60.003163190559" lon="15.779427587986">
        <ele>120</ele>
        <time>2014-11-08T16:53:43Z</time>
      </trkpt>
      <trkpt lat="60.003194371238" lon="15.779393222183">
        <ele>120</ele>
        <time>2014-11-08T16:53:44Z</time>
      </trkpt>
      <trkpt lat="60.003336863592" lon="15.779201025143">
        <ele>120.4</ele>
        <time>2014-11-08T16:53:50Z</time>
      </trkpt>
      <trkpt lat="60.003492683172" lon="15.778966415673">
        <ele>120.4</ele>
        <time>2014-11-08T16:53:57Z</time>
      </trkpt>
      <trkpt lat="60.003637690097" lon="15.778736751527">
        <ele>120.8</ele>
        <time>2014-11-08T16:54:04Z</time>
      </trkpt>
      <trkpt lat="60.0036478322" lon="15.778697105125">
        <ele>121</ele>
        <time>2014-11-08T16:54:05Z</time>
      </trkpt>
      <trkpt lat="60.003671972081" lon="15.778498286381">
        <ele>121</ele>
        <time>2014-11-08T16:54:09Z</time>
      </trkpt>
      <trkpt lat="60.003665266559" lon="15.778452102095">
        <ele>121</ele>
        <time>2014-11-08T16:54:10Z</time>
      </trkpt>
      <trkpt lat="60.003586644307" lon="15.77817030251">
        <ele>121.4</ele>
        <time>2014-11-08T16:54:16Z</time>
      </trkpt>
      <trkpt lat="60.003516403958" lon="15.777952540666">
        <ele>122</ele>
        <time>2014-11-08T16:54:22Z</time>
      </trkpt>
      <trkpt lat="60.003497544676" lon="15.777903422713">
        <ele>122</ele>
        <time>2014-11-08T16:54:23Z</time>
      </trkpt>
      <trkpt lat="60.003453623503" lon="15.777805438265">
        <ele>122.6</ele>
        <time>2014-11-08T16:54:26Z</time>
      </trkpt>
      <trkpt lat="60.003419676796" lon="15.777685409412">
        <ele>123.2</ele>
        <time>2014-11-08T16:54:29Z</time>
      </trkpt>
      <trkpt lat="60.003396375105" lon="15.777577115223">
        <ele>123.2</ele>
        <time>2014-11-08T16:54:31Z</time>
      </trkpt>
      <trkpt lat="60.003325967118" lon="15.777353569865">
        <ele>124.4</ele>
        <time>2014-11-08T16:54:36Z</time>
      </trkpt>
      <trkpt lat="60.003321273252" lon="15.777230607346">
        <ele>125.2</ele>
        <time>2014-11-08T16:54:39Z</time>
      </trkpt>
      <trkpt lat="60.003330074251" lon="15.777182998136">
        <ele>125.4</ele>
        <time>2014-11-08T16:54:40Z</time>
      </trkpt>
      <trkpt lat="60.003339713439" lon="15.777133461088">
        <ele>125.4</ele>
        <time>2014-11-08T16:54:41Z</time>
      </trkpt>
      <trkpt lat="60.003402074799" lon="15.776922404766">
        <ele>126.2</ele>
        <time>2014-11-08T16:54:46Z</time>
      </trkpt>
      <trkpt lat="60.003474745899" lon="15.77678443864">
        <ele>126.6</ele>
        <time>2014-11-08T16:54:50Z</time>
      </trkpt>
      <trkpt lat="60.003501148894" lon="15.776741439477">
        <ele>126.6</ele>
        <time>2014-11-08T16:54:51Z</time>
      </trkpt>
      <trkpt lat="60.003610448912" lon="15.776567766443">
        <ele>126.4</ele>
        <time>2014-11-08T16:54:57Z</time>
      </trkpt>
      <trkpt lat="60.003731902689" lon="15.77640959993">
        <ele>126.4</ele>
        <time>2014-11-08T16:55:03Z</time>
      </trkpt>
      <trkpt lat="60.00389367342" lon="15.776208350435">
        <ele>126.4</ele>
        <time>2014-11-08T16:55:10Z</time>
      </trkpt>
      <trkpt lat="60.003981515765" lon="15.776021433994">
        <ele>126.4</ele>
        <time>2014-11-08T16:55:15Z</time>
      </trkpt>
      <trkpt lat="60.004104729742" lon="15.77572831884">
        <ele>125.6</ele>
        <time>2014-11-08T16:55:22Z</time>
      </trkpt>
      <trkpt lat="60.004125265405" lon="15.775612229481">
        <ele>125.4</ele>
        <time>2014-11-08T16:55:24Z</time>
      </trkpt>
      <trkpt lat="60.004156613722" lon="15.775435538962">
        <ele>124.8</ele>
        <time>2014-11-08T16:55:27Z</time>
      </trkpt>
      <trkpt lat="60.004196763039" lon="15.775148207322">
        <ele>124.6</ele>
        <time>2014-11-08T16:55:32Z</time>
      </trkpt>
      <trkpt lat="60.004208413884" lon="15.775046534836">
        <ele>124.2</ele>
        <time>2014-11-08T16:55:34Z</time>
      </trkpt>
      <trkpt lat="60.004228865728" lon="15.77492156066">
        <ele>124.6</ele>
        <time>2014-11-08T16:55:36Z</time>
      </trkpt>
      <trkpt lat="60.004270859063" lon="15.774741349742">
        <ele>124.6</ele>
        <time>2014-11-08T16:55:40Z</time>
      </trkpt>
      <trkpt lat="60.004384601489" lon="15.77443423681">
        <ele>125</ele>
        <time>2014-11-08T16:55:47Z</time>
      </trkpt>
      <trkpt lat="60.004501780495" lon="15.774215636775">
        <ele>125.2</ele>
        <time>2014-11-08T16:55:53Z</time>
      </trkpt>
      <trkpt lat="60.004609990865" lon="15.774056380615">
        <ele>125</ele>
        <time>2014-11-08T16:55:58Z</time>
      </trkpt>
      <trkpt lat="60.004758182913" lon="15.773858232424">
        <ele>125</ele>
        <time>2014-11-08T16:56:04Z</time>
      </trkpt>
      <trkpt lat="60.004869494587" lon="15.773701574653">
        <ele>124.8</ele>
        <time>2014-11-08T16:56:09Z</time>
      </trkpt>
      <trkpt lat="60.00499480404" lon="15.773522788659">
        <ele>124.8</ele>
        <time>2014-11-08T16:56:15Z</time>
      </trkpt>
      <trkpt lat="60.005149533972" lon="15.773318437859">
        <ele>125.2</ele>
        <time>2014-11-08T16:56:22Z</time>
      </trkpt>
      <trkpt lat="60.005195131525" lon="15.773274851963">
        <ele>125.4</ele>
        <time>2014-11-08T16:56:24Z</time>
      </trkpt>
      <trkpt lat="60.005258414894" lon="15.773186925799">
        <ele>125.8</ele>
        <time>2014-11-08T16:56:27Z</time>
      </trkpt>
      <trkpt lat="60.005368553102" lon="15.773037644103">
        <ele>126.6</ele>
        <time>2014-11-08T16:56:32Z</time>
      </trkpt>
      <trkpt lat="60.005429573357" lon="15.772957680747">
        <ele>126.8</ele>
        <time>2014-11-08T16:56:35Z</time>
      </trkpt>
      <trkpt lat="60.005514565855" lon="15.772825414315">
        <ele>127.8</ele>
        <time>2014-11-08T16:56:40Z</time>
      </trkpt>
      <trkpt lat="60.005547590554" lon="15.77280160971">
        <ele>128.2</ele>
        <time>2014-11-08T16:56:42Z</time>
      </trkpt>
      <trkpt lat="60.005664601922" lon="15.772658027709">
        <ele>129</ele>
        <time>2014-11-08T16:56:47Z</time>
      </trkpt>
      <trkpt lat="60.005812207237" lon="15.772481085733">
        <ele>129.6</ele>
        <time>2014-11-08T16:56:54Z</time>
      </trkpt>
      <trkpt lat="60.005952268839" lon="15.772208841518">
        <ele>129.8</ele>
        <time>2014-11-08T16:57:01Z</time>
      </trkpt>
      <trkpt lat="60.006028041244" lon="15.771993258968">
        <ele>130</ele>
        <time>2014-11-08T16:57:06Z</time>
      </trkpt>
      <trkpt lat="60.006042039022" lon="15.771954283118">
        <ele>130</ele>
        <time>2014-11-08T16:57:07Z</time>
      </trkpt>
      <trkpt lat="60.006126277149" lon="15.771619342268">
        <ele>130.4</ele>
        <time>2014-11-08T16:57:14Z</time>
      </trkpt>
      <trkpt lat="60.006167599931" lon="15.771315163001">
        <ele>130.8</ele>
        <time>2014-11-08T16:57:20Z</time>
      </trkpt>
      <trkpt lat="60.006168689579" lon="15.771264452487">
        <ele>131</ele>
        <time>2014-11-08T16:57:21Z</time>
      </trkpt>
      <trkpt lat="60.006170365959" lon="15.771019449458">
        <ele>131.6</ele>
        <time>2014-11-08T16:57:26Z</time>
      </trkpt>
      <trkpt lat="60.00616944395" lon="15.770905204117">
        <ele>132</ele>
        <time>2014-11-08T16:57:28Z</time>
      </trkpt>
      <trkpt lat="60.006167097017" lon="15.770635474473">
        <ele>132.6</ele>
        <time>2014-11-08T16:57:33Z</time>
      </trkpt>
      <trkpt lat="60.006176065654" lon="15.770389297977">
        <ele>132.8</ele>
        <time>2014-11-08T16:57:38Z</time>
      </trkpt>
      <trkpt lat="60.006195846945" lon="15.77009995468">
        <ele>132.4</ele>
        <time>2014-11-08T16:57:43Z</time>
      </trkpt>
      <trkpt lat="60.006216382608" lon="15.769811868668">
        <ele>131.8</ele>
        <time>2014-11-08T16:57:48Z</time>
      </trkpt>
      <trkpt lat="60.006238427013" lon="15.769514394924">
        <ele>131.4</ele>
        <time>2014-11-08T16:57:53Z</time>
      </trkpt>
      <trkpt lat="60.006249239668" lon="15.769256651402">
        <ele>131.2</ele>
        <time>2014-11-08T16:57:58Z</time>
      </trkpt>
      <trkpt lat="60.00625602901" lon="15.769165204838">
        <ele>131</ele>
        <time>2014-11-08T16:58:00Z</time>
      </trkpt>
      <trkpt lat="60.006273966283" lon="15.768970074132">
        <ele>131.2</ele>
        <time>2014-11-08T16:58:03Z</time>
      </trkpt>
      <trkpt lat="60.006317635998" lon="15.768615184352">
        <ele>131</ele>
        <time>2014-11-08T16:58:10Z</time>
      </trkpt>
      <trkpt lat="60.006328448653" lon="15.768558690324">
        <ele>130.8</ele>
        <time>2014-11-08T16:58:11Z</time>
      </trkpt>
      <trkpt lat="60.00636591576" lon="15.768298013136">
        <ele>130.2</ele>
        <time>2014-11-08T16:58:16Z</time>
      </trkpt>
      <trkpt lat="60.006376812235" lon="15.768246967345">
        <ele>130</ele>
        <time>2014-11-08T16:58:17Z</time>
      </trkpt>
      <trkpt lat="60.006431629881" lon="15.768009675667">
        <ele>129.4</ele>
        <time>2014-11-08T16:58:22Z</time>
      </trkpt>
      <trkpt lat="60.006490219384" lon="15.767709519714">
        <ele>129</ele>
        <time>2014-11-08T16:58:28Z</time>
      </trkpt>
      <trkpt lat="60.006501451135" lon="15.767655875534">
        <ele>128.8</ele>
        <time>2014-11-08T16:58:29Z</time>
      </trkpt>
      <trkpt lat="60.006531625986" lon="15.767520759255">
        <ele>128.8</ele>
        <time>2014-11-08T16:58:32Z</time>
      </trkpt>
      <trkpt lat="60.006572278216" lon="15.767323030159">
        <ele>129</ele>
        <time>2014-11-08T16:58:36Z</time>
      </trkpt>
      <trkpt lat="60.006630532444" lon="15.767032429576">
        <ele>129.4</ele>
        <time>2014-11-08T16:58:42Z</time>
      </trkpt>
      <trkpt lat="60.006688367575" lon="15.766704697162">
        <ele>129.8</ele>
        <time>2014-11-08T16:58:49Z</time>
      </trkpt>
      <trkpt lat="60.006697168574" lon="15.76663990505">
        <ele>130</ele>
        <time>2014-11-08T16:58:50Z</time>
      </trkpt>
      <trkpt lat="60.006721895188" lon="15.766425412148">
        <ele>130.8</ele>
        <time>2014-11-08T16:58:55Z</time>
      </trkpt>
      <trkpt lat="60.006700018421" lon="15.7663256675">
        <ele>131.2</ele>
        <time>2014-11-08T16:58:58Z</time>
      </trkpt>
      <trkpt lat="60.006678225473" lon="15.766257522628">
        <ele>131.4</ele>
        <time>2014-11-08T16:59:00Z</time>
      </trkpt>
      <trkpt lat="60.006570182741" lon="15.766099272296">
        <ele>132</ele>
        <time>2014-11-08T16:59:05Z</time>
      </trkpt>
      <trkpt lat="60.006540510803" lon="15.766076305881">
        <ele>132.4</ele>
        <time>2014-11-08T16:59:06Z</time>
      </trkpt>
      <trkpt lat="60.006437497213" lon="15.766013609245">
        <ele>133.2</ele>
        <time>2014-11-08T16:59:10Z</time>
      </trkpt>
      <trkpt lat="60.006408495829" lon="15.765992822126">
        <ele>133.6</ele>
        <time>2014-11-08T16:59:11Z</time>
      </trkpt>
      <trkpt lat="60.006313612685" lon="15.765925180167">
        <ele>134.2</ele>
        <time>2014-11-08T16:59:15Z</time>
      </trkpt>
      <trkpt lat="60.006258375943" lon="15.765888383612">
        <ele>134.6</ele>
        <time>2014-11-08T16:59:17Z</time>
      </trkpt>
      <trkpt lat="60.006178831682" lon="15.765830464661">
        <ele>135</ele>
        <time>2014-11-08T16:59:20Z</time>
      </trkpt>
      <trkpt lat="60.006072213873" lon="15.765759721398">
        <ele>135.6</ele>
        <time>2014-11-08T16:59:24Z</time>
      </trkpt>
      <trkpt lat="60.006028711796" lon="15.765731222928">
        <ele>135.8</ele>
        <time>2014-11-08T16:59:26Z</time>
      </trkpt>
      <trkpt lat="60.005955789238" lon="15.765660479665">
        <ele>135.8</ele>
        <time>2014-11-08T16:59:29Z</time>
      </trkpt>
      <trkpt lat="60.005837101489" lon="15.765558052808">
        <ele>136.2</ele>
        <time>2014-11-08T16:59:34Z</time>
      </trkpt>
      <trkpt lat="60.005715982988" lon="15.765484627336">
        <ele>136</ele>
        <time>2014-11-08T16:59:39Z</time>
      </trkpt>
      <trkpt lat="60.005581034347" lon="15.765398796648">
        <ele>136.2</ele>
        <time>2014-11-08T16:59:44Z</time>
      </trkpt>
      <trkpt lat="60.005454970524" lon="15.765329478309">
        <ele>136.4</ele>
        <time>2014-11-08T16:59:49Z</time>
      </trkpt>
      <trkpt lat="60.005337204784" lon="15.765229398385">
        <ele>136.8</ele>
        <time>2014-11-08T16:59:54Z</time>
      </trkpt>
      <trkpt lat="60.005309041589" lon="15.765206348151">
        <ele>136.6</ele>
        <time>2014-11-08T16:59:55Z</time>
      </trkpt>
      <trkpt lat="60.005178116262" lon="15.76507315971">
        <ele>137</ele>
        <time>2014-11-08T17:00:00Z</time>
      </trkpt>
      <trkpt lat="60.005027912557" lon="15.764959417284">
        <ele>137.4</ele>
        <time>2014-11-08T17:00:06Z</time>
      </trkpt>
      <trkpt lat="60.004931688309" lon="15.764880375937">
        <ele>137.8</ele>
        <time>2014-11-08T17:00:10Z</time>
      </trkpt>
      <trkpt lat="60.004879552871" lon="15.764824887738">
        <ele>138</ele>
        <time>2014-11-08T17:00:13Z</time>
      </trkpt>
      <trkpt lat="60.004757679999" lon="15.764728831127">
        <ele>138.8</ele>
        <time>2014-11-08T17:00:18Z</time>
      </trkpt>
      <trkpt lat="60.004733875394" lon="15.764715252444">
        <ele>139</ele>
        <time>2014-11-08T17:00:19Z</time>
      </trkpt>
      <trkpt lat="60.004640081897" lon="15.764626236632">
        <ele>139.6</ele>
        <time>2014-11-08T17:00:23Z</time>
      </trkpt>
      <trkpt lat="60.004545031115" lon="15.76449053362">
        <ele>140.4</ele>
        <time>2014-11-08T17:00:28Z</time>
      </trkpt>
      <trkpt lat="60.004468085244" lon="15.764354495332">
        <ele>140.6</ele>
        <time>2014-11-08T17:00:32Z</time>
      </trkpt>
      <trkpt lat="60.004392396659" lon="15.764237148687">
        <ele>141.4</ele>
        <time>2014-11-08T17:00:36Z</time>
      </trkpt>
      <trkpt lat="60.00436456874" lon="15.764149054885">
        <ele>141.4</ele>
        <time>2014-11-08T17:00:38Z</time>
      </trkpt>
      <trkpt lat="60.004319222644" lon="15.764083340764">
        <ele>141.6</ele>
        <time>2014-11-08T17:00:40Z</time>
      </trkpt>
      <trkpt lat="60.004224758595" lon="15.76388636604">
        <ele>142.4</ele>
        <time>2014-11-08T17:00:44Z</time>
      </trkpt>
      <trkpt lat="60.004217969254" lon="15.763868093491">
        <ele>142.4</ele>
        <time>2014-11-08T17:00:45Z</time>
      </trkpt>
      <trkpt lat="60.004137335345" lon="15.763705819845">
        <ele>143.2</ele>
        <time>2014-11-08T17:00:49Z</time>
      </trkpt>
      <trkpt lat="60.004091402516" lon="15.763625269756">
        <ele>143.6</ele>
        <time>2014-11-08T17:00:51Z</time>
      </trkpt>
      <trkpt lat="60.004068687558" lon="15.763568859547">
        <ele>143.8</ele>
        <time>2014-11-08T17:00:53Z</time>
      </trkpt>
      <trkpt lat="60.003954526037" lon="15.763352941722">
        <ele>144.4</ele>
        <time>2014-11-08T17:00:58Z</time>
      </trkpt>
      <trkpt lat="60.003843130544" lon="15.763135598972">
        <ele>144.6</ele>
        <time>2014-11-08T17:01:03Z</time>
      </trkpt>
      <trkpt lat="60.003822008148" lon="15.763107938692">
        <ele>144.8</ele>
        <time>2014-11-08T17:01:04Z</time>
      </trkpt>
      <trkpt lat="60.003700051457" lon="15.762880872935">
        <ele>145</ele>
        <time>2014-11-08T17:01:10Z</time>
      </trkpt>
      <trkpt lat="60.003594271839" lon="15.762699153274">
        <ele>145.2</ele>
        <time>2014-11-08T17:01:15Z</time>
      </trkpt>
      <trkpt lat="60.003490420058" lon="15.762520115823">
        <ele>145.2</ele>
        <time>2014-11-08T17:01:20Z</time>
      </trkpt>
      <trkpt lat="60.00343400985" lon="15.762430178002">
        <ele>145</ele>
        <time>2014-11-08T17:01:23Z</time>
      </trkpt>
      <trkpt lat="60.003398722038" lon="15.762357925996">
        <ele>144.8</ele>
        <time>2014-11-08T17:01:25Z</time>
      </trkpt>
      <trkpt lat="60.003270478919" lon="15.762148294598">
        <ele>144.8</ele>
        <time>2014-11-08T17:01:31Z</time>
      </trkpt>
      <trkpt lat="60.003159753978" lon="15.761988451704">
        <ele>144.8</ele>
        <time>2014-11-08T17:01:36Z</time>
      </trkpt>
      <trkpt lat="60.003035031259" lon="15.761742359027">
        <ele>144</ele>
        <time>2014-11-08T17:01:42Z</time>
      </trkpt>
      <trkpt lat="60.002976777032" lon="15.761617217213">
        <ele>143.4</ele>
        <time>2014-11-08T17:01:45Z</time>
      </trkpt>
      <trkpt lat="60.002907542512" lon="15.761500205845">
        <ele>143</ele>
        <time>2014-11-08T17:01:48Z</time>
      </trkpt>
      <trkpt lat="60.002771504223" lon="15.761269032955">
        <ele>142.2</ele>
        <time>2014-11-08T17:01:54Z</time>
      </trkpt>
      <trkpt lat="60.002722050995" lon="15.761184543371">
        <ele>141.8</ele>
        <time>2014-11-08T17:01:56Z</time>
      </trkpt>
      <trkpt lat="60.002652648836" lon="15.761063173413">
        <ele>141.2</ele>
        <time>2014-11-08T17:01:59Z</time>
      </trkpt>
      <trkpt lat="60.002557262778" lon="15.760917663574">
        <ele>140.8</ele>
        <time>2014-11-08T17:02:03Z</time>
      </trkpt>
      <trkpt lat="60.002422565594" lon="15.760682132095">
        <ele>140.6</ele>
        <time>2014-11-08T17:02:09Z</time>
      </trkpt>
      <trkpt lat="60.002295998856" lon="15.760488007218">
        <ele>140.2</ele>
        <time>2014-11-08T17:02:14Z</time>
      </trkpt>
      <trkpt lat="60.002160044387" lon="15.760252727196">
        <ele>139.8</ele>
        <time>2014-11-08T17:02:20Z</time>
      </trkpt>
      <trkpt lat="60.002028280869" lon="15.760031277314">
        <ele>139.6</ele>
        <time>2014-11-08T17:02:26Z</time>
      </trkpt>
      <trkpt lat="60.001919483766" lon="15.759846791625">
        <ele>139.6</ele>
        <time>2014-11-08T17:02:31Z</time>
      </trkpt>
      <trkpt lat="60.00177799724" lon="15.759612685069">
        <ele>140.2</ele>
        <time>2014-11-08T17:02:38Z</time>
      </trkpt>
      <trkpt lat="60.001658890396" lon="15.759401544929">
        <ele>140.4</ele>
        <time>2014-11-08T17:02:44Z</time>
      </trkpt>
      <trkpt lat="60.001604491845" lon="15.759310182184">
        <ele>141.2</ele>
        <time>2014-11-08T17:02:47Z</time>
      </trkpt>
      <trkpt lat="60.001543387771" lon="15.75920574367">
        <ele>141.4</ele>
        <time>2014-11-08T17:02:50Z</time>
      </trkpt>
      <trkpt lat="60.001431489363" lon="15.759004158899">
        <ele>142</ele>
        <time>2014-11-08T17:02:56Z</time>
      </trkpt>
      <trkpt lat="60.001414977014" lon="15.758977001533">
        <ele>142.2</ele>
        <time>2014-11-08T17:02:57Z</time>
      </trkpt>
      <trkpt lat="60.001270053908" lon="15.758760664612">
        <ele>143.2</ele>
        <time>2014-11-08T17:03:04Z</time>
      </trkpt>
      <trkpt lat="60.001178188249" lon="15.758664943278">
        <ele>143.6</ele>
        <time>2014-11-08T17:03:08Z</time>
      </trkpt>
      <trkpt lat="60.001125549898" lon="15.758611885831">
        <ele>143.8</ele>
        <time>2014-11-08T17:03:10Z</time>
      </trkpt>
      <trkpt lat="60.001015663147" lon="15.758564276621">
        <ele>144.8</ele>
        <time>2014-11-08T17:03:15Z</time>
      </trkpt>
      <trkpt lat="60.000918600708" lon="15.758534688503">
        <ele>144.8</ele>
        <time>2014-11-08T17:03:19Z</time>
      </trkpt>
      <trkpt lat="60.000792872161" lon="15.758493198082">
        <ele>145.6</ele>
        <time>2014-11-08T17:03:24Z</time>
      </trkpt>
      <trkpt lat="60.000774851069" lon="15.758494371548">
        <ele>145.8</ele>
        <time>2014-11-08T17:03:25Z</time>
      </trkpt>
      <trkpt lat="60.000685667619" lon="15.75851239264">
        <ele>146.4</ele>
        <time>2014-11-08T17:03:29Z</time>
      </trkpt>
      <trkpt lat="60.000584917143" lon="15.758501412347">
        <ele>146.6</ele>
        <time>2014-11-08T17:03:33Z</time>
      </trkpt>
      <trkpt lat="60.000558933243" lon="15.758511386812">
        <ele>147</ele>
        <time>2014-11-08T17:03:34Z</time>
      </trkpt>
      <trkpt lat="60.000487267971" lon="15.758537286893">
        <ele>147</ele>
        <time>2014-11-08T17:03:37Z</time>
      </trkpt>
      <trkpt lat="60.000358605757" lon="15.758557571098">
        <ele>147.6</ele>
        <time>2014-11-08T17:03:43Z</time>
      </trkpt>
      <trkpt lat="60.000284677371" lon="15.758563186973">
        <ele>148.2</ele>
        <time>2014-11-08T17:03:46Z</time>
      </trkpt>
      <trkpt lat="60.000209324062" lon="15.758556984365">
        <ele>148.2</ele>
        <time>2014-11-08T17:03:49Z</time>
      </trkpt>
      <trkpt lat="60.000112596899" lon="15.758533598855">
        <ele>149.2</ele>
        <time>2014-11-08T17:03:53Z</time>
      </trkpt>
      <trkpt lat="60.000076470897" lon="15.758510213345">
        <ele>149.6</ele>
        <time>2014-11-08T17:03:55Z</time>
      </trkpt>
      <trkpt lat="59.999987538904" lon="15.758461765945">
        <ele>150.4</ele>
        <time>2014-11-08T17:03:59Z</time>
      </trkpt>
      <trkpt lat="59.999869856983" lon="15.758378282189">
        <ele>151.2</ele>
        <time>2014-11-08T17:04:05Z</time>
      </trkpt>
      <trkpt lat="59.999841190875" lon="15.758358584717">
        <ele>151.4</ele>
        <time>2014-11-08T17:04:06Z</time>
      </trkpt>
      <trkpt lat="59.99977581203" lon="15.758309885859">
        <ele>151.8</ele>
        <time>2014-11-08T17:04:09Z</time>
      </trkpt>
      <trkpt lat="59.999659722671" lon="15.758205531165">
        <ele>152.2</ele>
        <time>2014-11-08T17:04:13Z</time>
      </trkpt>
      <trkpt lat="59.999637845904" lon="15.758198825642">
        <ele>152.2</ele>
        <time>2014-11-08T17:04:14Z</time>
      </trkpt>
      <trkpt lat="59.999613706023" lon="15.758182983845">
        <ele>152.6</ele>
        <time>2014-11-08T17:04:15Z</time>
      </trkpt>
      <trkpt lat="59.999564420432" lon="15.758128836751">
        <ele>152.8</ele>
        <time>2014-11-08T17:04:17Z</time>
      </trkpt>
      <trkpt lat="59.999453192577" lon="15.758022638038">
        <ele>153.4</ele>
        <time>2014-11-08T17:04:21Z</time>
      </trkpt>
      <trkpt lat="59.999395357445" lon="15.75796706602">
        <ele>153.8</ele>
        <time>2014-11-08T17:04:23Z</time>
      </trkpt>
      <trkpt lat="59.999344563112" lon="15.757907638326">
        <ele>154</ele>
        <time>2014-11-08T17:04:25Z</time>
      </trkpt>
      <trkpt lat="59.999237023294" lon="15.757795069367">
        <ele>154.4</ele>
        <time>2014-11-08T17:04:29Z</time>
      </trkpt>
      <trkpt lat="59.999185642228" lon="15.757765900344">
        <ele>154.8</ele>
        <time>2014-11-08T17:04:31Z</time>
      </trkpt>
      <trkpt lat="59.999135266989" lon="15.757713261992">
        <ele>155</ele>
        <time>2014-11-08T17:04:33Z</time>
      </trkpt>
      <trkpt lat="59.999014148489" lon="15.757587114349">
        <ele>156</ele>
        <time>2014-11-08T17:04:38Z</time>
      </trkpt>
      <trkpt lat="59.998874338344" lon="15.757435988635">
        <ele>157</ele>
        <time>2014-11-08T17:04:44Z</time>
      </trkpt>
      <trkpt lat="59.998792111874" lon="15.757337417454">
        <ele>158</ele>
        <time>2014-11-08T17:04:48Z</time>
      </trkpt>
      <trkpt lat="59.998770151287" lon="15.757301710546">
        <ele>158.2</ele>
        <time>2014-11-08T17:04:49Z</time>
      </trkpt>
      <trkpt lat="59.998708376661" lon="15.75720439665">
        <ele>159</ele>
        <time>2014-11-08T17:04:52Z</time>
      </trkpt>
      <trkpt lat="59.998644171283" lon="15.757083613425">
        <ele>159.2</ele>
        <time>2014-11-08T17:04:55Z</time>
      </trkpt>
      <trkpt lat="59.998594885692" lon="15.756993005052">
        <ele>160</ele>
        <time>2014-11-08T17:04:58Z</time>
      </trkpt>
      <trkpt lat="59.998518107459" lon="15.756845483556">
        <ele>160.8</ele>
        <time>2014-11-08T17:05:02Z</time>
      </trkpt>
      <trkpt lat="59.998479215428" lon="15.75677247718">
        <ele>161</ele>
        <time>2014-11-08T17:05:04Z</time>
      </trkpt>
      <trkpt lat="59.998457254842" lon="15.756686897948">
        <ele>161.2</ele>
        <time>2014-11-08T17:05:06Z</time>
      </trkpt>
      <trkpt lat="59.998425487429" lon="15.756611209363">
        <ele>161.8</ele>
        <time>2014-11-08T17:05:08Z</time>
      </trkpt>
      <trkpt lat="59.998390702531" lon="15.756533425301">
        <ele>162.2</ele>
        <time>2014-11-08T17:05:10Z</time>
      </trkpt>
      <trkpt lat="59.998307554051" lon="15.756336869672">
        <ele>163</ele>
        <time>2014-11-08T17:05:15Z</time>
      </trkpt>
      <trkpt lat="59.998275702819" lon="15.756270233542">
        <ele>163.2</ele>
        <time>2014-11-08T17:05:17Z</time>
      </trkpt>
      <trkpt lat="59.998192302883" lon="15.756139056757">
        <ele>164</ele>
        <time>2014-11-08T17:05:21Z</time>
      </trkpt>
      <trkpt lat="59.998157685623" lon="15.756074264646">
        <ele>164.6</ele>
        <time>2014-11-08T17:05:23Z</time>
      </trkpt>
      <trkpt lat="59.998099347576" lon="15.755985919386">
        <ele>165.2</ele>
        <time>2014-11-08T17:05:26Z</time>
      </trkpt>
      <trkpt lat="59.99804100953" lon="15.755920708179">
        <ele>165.6</ele>
        <time>2014-11-08T17:05:29Z</time>
      </trkpt>
      <trkpt lat="59.9979985971" lon="15.755887348205">
        <ele>166.6</ele>
        <time>2014-11-08T17:05:31Z</time>
      </trkpt>
      <trkpt lat="59.997978564352" lon="15.755873350427">
        <ele>166.8</ele>
        <time>2014-11-08T17:05:32Z</time>
      </trkpt>
      <trkpt lat="59.997903630137" lon="15.75579690747">
        <ele>168</ele>
        <time>2014-11-08T17:05:36Z</time>
      </trkpt>
      <trkpt lat="59.997874042019" lon="15.755778634921">
        <ele>168</ele>
        <time>2014-11-08T17:05:37Z</time>
      </trkpt>
      <trkpt lat="59.997795335948" lon="15.755713423714">
        <ele>168.6</ele>
        <time>2014-11-08T17:05:41Z</time>
      </trkpt>
      <trkpt lat="59.997753510252" lon="15.755686853081">
        <ele>169.2</ele>
        <time>2014-11-08T17:05:43Z</time>
      </trkpt>
      <trkpt lat="59.997687125579" lon="15.755645111203">
        <ele>169.6</ele>
        <time>2014-11-08T17:05:46Z</time>
      </trkpt>
      <trkpt lat="59.99759173952" lon="15.75556573458">
        <ele>170.2</ele>
        <time>2014-11-08T17:05:50Z</time>
      </trkpt>
      <trkpt lat="59.997567599639" lon="15.755542935804">
        <ele>170.4</ele>
        <time>2014-11-08T17:05:51Z</time>
      </trkpt>
      <trkpt lat="59.997428962961" lon="15.755385858938">
        <ele>171.6</ele>
        <time>2014-11-08T17:05:57Z</time>
      </trkpt>
      <trkpt lat="59.99740742147" lon="15.755366999656">
        <ele>171.8</ele>
        <time>2014-11-08T17:05:58Z</time>
      </trkpt>
      <trkpt lat="59.997298540547" lon="15.755287455395">
        <ele>172.6</ele>
        <time>2014-11-08T17:06:03Z</time>
      </trkpt>
      <trkpt lat="59.997280603275" lon="15.755271529779">
        <ele>172.8</ele>
        <time>2014-11-08T17:06:04Z</time>
      </trkpt>
      <trkpt lat="59.997191755101" lon="15.755224758759">
        <ele>173.2</ele>
        <time>2014-11-08T17:06:08Z</time>
      </trkpt>
      <trkpt lat="59.99716417864" lon="15.7552090846">
        <ele>173.6</ele>
        <time>2014-11-08T17:06:10Z</time>
      </trkpt>
      <trkpt lat="59.997142301872" lon="15.755185279995">
        <ele>173.8</ele>
        <time>2014-11-08T17:06:11Z</time>
      </trkpt>
      <trkpt lat="59.997094357386" lon="15.755142951384">
        <ele>174.2</ele>
        <time>2014-11-08T17:06:13Z</time>
      </trkpt>
      <trkpt lat="59.997031325474" lon="15.755073130131">
        <ele>175</ele>
        <time>2014-11-08T17:06:16Z</time>
      </trkpt>
      <trkpt lat="59.996973657981" lon="15.755036752671">
        <ele>175.8</ele>
        <time>2014-11-08T17:06:19Z</time>
      </trkpt>
      <trkpt lat="59.996957145631" lon="15.755027448758">
        <ele>176</ele>
        <time>2014-11-08T17:06:20Z</time>
      </trkpt>
      <trkpt lat="59.996873578057" lon="15.754943881184">
        <ele>177.2</ele>
        <time>2014-11-08T17:06:24Z</time>
      </trkpt>
      <trkpt lat="59.996832003817" lon="15.754895936698">
        <ele>177.8</ele>
        <time>2014-11-08T17:06:27Z</time>
      </trkpt>
      <trkpt lat="59.996800236404" lon="15.754864420742">
        <ele>178.4</ele>
        <time>2014-11-08T17:06:29Z</time>
      </trkpt>
      <trkpt lat="59.99674256891" lon="15.754815470427">
        <ele>179</ele>
        <time>2014-11-08T17:06:32Z</time>
      </trkpt>
      <trkpt lat="59.996663024649" lon="15.754743721336">
        <ele>179.4</ele>
        <time>2014-11-08T17:06:36Z</time>
      </trkpt>
      <trkpt lat="59.996616337448" lon="15.754716983065">
        <ele>180</ele>
        <time>2014-11-08T17:06:38Z</time>
      </trkpt>
      <trkpt lat="59.996536038816" lon="15.754638779908">
        <ele>180.6</ele>
        <time>2014-11-08T17:06:42Z</time>
      </trkpt>
      <trkpt lat="59.996474180371" lon="15.754579603672">
        <ele>180.8</ele>
        <time>2014-11-08T17:06:45Z</time>
      </trkpt>
      <trkpt lat="59.996375441551" lon="15.754496455193">
        <ele>181.4</ele>
        <time>2014-11-08T17:06:49Z</time>
      </trkpt>
      <trkpt lat="59.996355744079" lon="15.754479439929">
        <ele>181.6</ele>
        <time>2014-11-08T17:06:50Z</time>
      </trkpt>
      <trkpt lat="59.996262956411" lon="15.75437458232">
        <ele>182.4</ele>
        <time>2014-11-08T17:06:54Z</time>
      </trkpt>
      <trkpt lat="59.996224148199" lon="15.75432529673">
        <ele>182.8</ele>
        <time>2014-11-08T17:06:56Z</time>
      </trkpt>
      <trkpt lat="59.996198834851" lon="15.754299648106">
        <ele>183</ele>
        <time>2014-11-08T17:06:57Z</time>
      </trkpt>
      <trkpt lat="59.996177209541" lon="15.754281710833">
        <ele>183.2</ele>
        <time>2014-11-08T17:06:58Z</time>
      </trkpt>
      <trkpt lat="59.996088026091" lon="15.754196802154">
        <ele>184</ele>
        <time>2014-11-08T17:07:02Z</time>
      </trkpt>
      <trkpt lat="59.996064724401" lon="15.754183139652">
        <ele>184</ele>
        <time>2014-11-08T17:07:03Z</time>
      </trkpt>
      <trkpt lat="59.996004542336" lon="15.754107953981">
        <ele>185</ele>
        <time>2014-11-08T17:07:06Z</time>
      </trkpt>
      <trkpt lat="59.995948048308" lon="15.754024805501">
        <ele>185.8</ele>
        <time>2014-11-08T17:07:09Z</time>
      </trkpt>
      <trkpt lat="59.995929440483" lon="15.753990607336">
        <ele>186.2</ele>
        <time>2014-11-08T17:07:10Z</time>
      </trkpt>
      <trkpt lat="59.995835479349" lon="15.753817101941">
        <ele>187.4</ele>
        <time>2014-11-08T17:07:16Z</time>
      </trkpt>
      <trkpt lat="59.995820811018" lon="15.753786088899">
        <ele>187.2</ele>
        <time>2014-11-08T17:07:17Z</time>
      </trkpt>
      <trkpt lat="59.995754426345" lon="15.753601938486">
        <ele>188.6</ele>
        <time>2014-11-08T17:07:22Z</time>
      </trkpt>
      <trkpt lat="59.99573581852" lon="15.753526417539">
        <ele>189</ele>
        <time>2014-11-08T17:07:24Z</time>
      </trkpt>
      <trkpt lat="59.995711427182" lon="15.753419967368">
        <ele>189.4</ele>
        <time>2014-11-08T17:07:27Z</time>
      </trkpt>
      <trkpt lat="59.99570983462" lon="15.753396330401">
        <ele>189.6</ele>
        <time>2014-11-08T17:07:28Z</time>
      </trkpt>
      <trkpt lat="59.995702290908" lon="15.753344614059">
        <ele>189.6</ele>
        <time>2014-11-08T17:07:29Z</time>
      </trkpt>
      <trkpt lat="59.995683683082" lon="15.753182675689">
        <ele>190.2</ele>
        <time>2014-11-08T17:07:33Z</time>
      </trkpt>
      <trkpt lat="59.995682509616" lon="15.753140682355">
        <ele>190.4</ele>
        <time>2014-11-08T17:07:34Z</time>
      </trkpt>
      <trkpt lat="59.995681503788" lon="15.753100616857">
        <ele>190.8</ele>
        <time>2014-11-08T17:07:35Z</time>
      </trkpt>
      <trkpt lat="59.995686197653" lon="15.752976899967">
        <ele>191.2</ele>
        <time>2014-11-08T17:07:38Z</time>
      </trkpt>
      <trkpt lat="59.995688125491" lon="15.752891907468">
        <ele>191.8</ele>
        <time>2014-11-08T17:07:40Z</time>
      </trkpt>
      <trkpt lat="59.995690388605" lon="15.752795180306">
        <ele>192.2</ele>
        <time>2014-11-08T17:07:42Z</time>
      </trkpt>
      <trkpt lat="59.99570120126" lon="15.752609353513">
        <ele>193</ele>
        <time>2014-11-08T17:07:46Z</time>
      </trkpt>
      <trkpt lat="59.995703883469" lon="15.752570042387">
        <ele>193.2</ele>
        <time>2014-11-08T17:07:47Z</time>
      </trkpt>
      <trkpt lat="59.995721234009" lon="15.752373654395">
        <ele>194</ele>
        <time>2014-11-08T17:07:51Z</time>
      </trkpt>
      <trkpt lat="59.995729615912" lon="15.752240549773">
        <ele>194.8</ele>
        <time>2014-11-08T17:07:54Z</time>
      </trkpt>
      <trkpt lat="59.995733471587" lon="15.752193359658">
        <ele>195.2</ele>
        <time>2014-11-08T17:07:55Z</time>
      </trkpt>
      <trkpt lat="59.995752917603" lon="15.751966796815">
        <ele>196.4</ele>
        <time>2014-11-08T17:08:00Z</time>
      </trkpt>
      <trkpt lat="59.995759036392" lon="15.751917595044">
        <ele>196.4</ele>
        <time>2014-11-08T17:08:01Z</time>
      </trkpt>
      <trkpt lat="59.995751157403" lon="15.751670161262">
        <ele>197.4</ele>
        <time>2014-11-08T17:08:07Z</time>
      </trkpt>
      <trkpt lat="59.995750235394" lon="15.751625401899">
        <ele>197.6</ele>
        <time>2014-11-08T17:08:08Z</time>
      </trkpt>
      <trkpt lat="59.995731879026" lon="15.751450136304">
        <ele>198.4</ele>
        <time>2014-11-08T17:08:13Z</time>
      </trkpt>
      <trkpt lat="59.995652418584" lon="15.751179317012">
        <ele>199.4</ele>
        <time>2014-11-08T17:08:20Z</time>
      </trkpt>
      <trkpt lat="59.995638588443" lon="15.751134390011">
        <ele>199.4</ele>
        <time>2014-11-08T17:08:21Z</time>
      </trkpt>
      <trkpt lat="59.995561391115" lon="15.750880669802">
        <ele>200.2</ele>
        <time>2014-11-08T17:08:27Z</time>
      </trkpt>
      <trkpt lat="59.99553674832" lon="15.750797269866">
        <ele>200.6</ele>
        <time>2014-11-08T17:08:29Z</time>
      </trkpt>
      <trkpt lat="59.995480924845" lon="15.750570539385">
        <ele>201.6</ele>
        <time>2014-11-08T17:08:35Z</time>
      </trkpt>
      <trkpt lat="59.995437255129" lon="15.750384377316">
        <ele>202.4</ele>
        <time>2014-11-08T17:08:39Z</time>
      </trkpt>
      <trkpt lat="59.99537313357" lon="15.750191006809">
        <ele>202.6</ele>
        <time>2014-11-08T17:08:44Z</time>
      </trkpt>
      <trkpt lat="59.995341869071" lon="15.750092687085">
        <ele>202.8</ele>
        <time>2014-11-08T17:08:46Z</time>
      </trkpt>
      <trkpt lat="59.995240783319" lon="15.749743999913">
        <ele>203.2</ele>
        <time>2014-11-08T17:08:54Z</time>
      </trkpt>
      <trkpt lat="59.995164508" lon="15.749453986064">
        <ele>203.6</ele>
        <time>2014-11-08T17:09:00Z</time>
      </trkpt>
      <trkpt lat="59.995121592656" lon="15.749325156212">
        <ele>203.6</ele>
        <time>2014-11-08T17:09:03Z</time>
      </trkpt>
      <trkpt lat="59.995093932375" lon="15.749238487333">
        <ele>203.8</ele>
        <time>2014-11-08T17:09:05Z</time>
      </trkpt>
      <trkpt lat="59.994998043403" lon="15.748894661665">
        <ele>204.2</ele>
        <time>2014-11-08T17:09:12Z</time>
      </trkpt>
      <trkpt lat="59.9949879013" lon="15.748841604218">
        <ele>204</ele>
        <time>2014-11-08T17:09:13Z</time>
      </trkpt>
      <trkpt lat="59.994908440858" lon="15.748546896502">
        <ele>204.4</ele>
        <time>2014-11-08T17:09:19Z</time>
      </trkpt>
      <trkpt lat="59.994822274894" lon="15.748195527121">
        <ele>204.4</ele>
        <time>2014-11-08T17:09:26Z</time>
      </trkpt>
      <trkpt lat="59.994810037315" lon="15.748158730567">
        <ele>204.4</ele>
        <time>2014-11-08T17:09:27Z</time>
      </trkpt>
      <trkpt lat="59.994721943513" lon="15.747892437503">
        <ele>204.6</ele>
        <time>2014-11-08T17:09:33Z</time>
      </trkpt>
      <trkpt lat="59.994670478627" lon="15.747696217149">
        <ele>204.6</ele>
        <time>2014-11-08T17:09:37Z</time>
      </trkpt>
      <trkpt lat="59.994615828618" lon="15.747512737289">
        <ele>204.6</ele>
        <time>2014-11-08T17:09:41Z</time>
      </trkpt>
      <trkpt lat="59.994576685131" lon="15.747383404523">
        <ele>204.6</ele>
        <time>2014-11-08T17:09:44Z</time>
      </trkpt>
      <trkpt lat="59.994545085356" lon="15.747291371226">
        <ele>204.6</ele>
        <time>2014-11-08T17:09:46Z</time>
      </trkpt>
      <trkpt lat="59.994450034574" lon="15.747036645189">
        <ele>204.6</ele>
        <time>2014-11-08T17:09:52Z</time>
      </trkpt>
      <trkpt lat="59.99432137236" lon="15.746733304113">
        <ele>204.8</ele>
        <time>2014-11-08T17:09:59Z</time>
      </trkpt>
      <trkpt lat="59.994198242202" lon="15.74649291113">
        <ele>204.8</ele>
        <time>2014-11-08T17:10:05Z</time>
      </trkpt>
      <trkpt lat="59.994059018791" lon="15.746252853423">
        <ele>205</ele>
        <time>2014-11-08T17:10:12Z</time>
      </trkpt>
      <trkpt lat="59.993941420689" lon="15.746046574786">
        <ele>205.2</ele>
        <time>2014-11-08T17:10:18Z</time>
      </trkpt>
      <trkpt lat="59.993842933327" lon="15.745858065784">
        <ele>205.4</ele>
        <time>2014-11-08T17:10:23Z</time>
      </trkpt>
      <trkpt lat="59.993778225034" lon="15.74576578103">
        <ele>205.8</ele>
        <time>2014-11-08T17:10:26Z</time>
      </trkpt>
      <trkpt lat="59.993668505922" lon="15.745602333918">
        <ele>206</ele>
        <time>2014-11-08T17:10:31Z</time>
      </trkpt>
      <trkpt lat="59.99356046319" lon="15.745410472155">
        <ele>206.4</ele>
        <time>2014-11-08T17:10:36Z</time>
      </trkpt>
      <trkpt lat="59.99349122867" lon="15.745287677273">
        <ele>206.8</ele>
        <time>2014-11-08T17:10:39Z</time>
      </trkpt>
      <trkpt lat="59.993403386325" lon="15.74514342472">
        <ele>207.2</ele>
        <time>2014-11-08T17:10:43Z</time>
      </trkpt>
      <trkpt lat="59.993265504017" lon="15.744899678975">
        <ele>208</ele>
        <time>2014-11-08T17:10:49Z</time>
      </trkpt>
      <trkpt lat="59.993136841804" lon="15.744677977636">
        <ele>208.4</ele>
        <time>2014-11-08T17:10:55Z</time>
      </trkpt>
      <trkpt lat="59.99302896671" lon="15.744490055367">
        <ele>209</ele>
        <time>2014-11-08T17:11:00Z</time>
      </trkpt>
      <trkpt lat="59.993006922305" lon="15.74445342645">
        <ele>209</ele>
        <time>2014-11-08T17:11:01Z</time>
      </trkpt>
      <trkpt lat="59.992879852653" lon="15.744229126722">
        <ele>209.2</ele>
        <time>2014-11-08T17:11:07Z</time>
      </trkpt>
      <trkpt lat="59.992746412754" lon="15.744011532515">
        <ele>209.2</ele>
        <time>2014-11-08T17:11:13Z</time>
      </trkpt>
      <trkpt lat="59.992635603994" lon="15.743827801198">
        <ele>209</ele>
        <time>2014-11-08T17:11:18Z</time>
      </trkpt>
      <trkpt lat="59.992508953437" lon="15.743598304689">
        <ele>208.8</ele>
        <time>2014-11-08T17:11:24Z</time>
      </trkpt>
      <trkpt lat="59.992377273738" lon="15.74337836355">
        <ele>209</ele>
        <time>2014-11-08T17:11:30Z</time>
      </trkpt>
      <trkpt lat="59.992231763899" lon="15.743114501238">
        <ele>208.8</ele>
        <time>2014-11-08T17:11:37Z</time>
      </trkpt>
      <trkpt lat="59.992077536881" lon="15.742855416611">
        <ele>209</ele>
        <time>2014-11-08T17:11:44Z</time>
      </trkpt>
      <trkpt lat="59.991939570755" lon="15.74259230867">
        <ele>208.8</ele>
        <time>2014-11-08T17:11:51Z</time>
      </trkpt>
      <trkpt lat="59.991796491668" lon="15.742317214608">
        <ele>208.8</ele>
        <time>2014-11-08T17:11:58Z</time>
      </trkpt>
      <trkpt lat="59.991686185822" lon="15.742115126923">
        <ele>208.6</ele>
        <time>2014-11-08T17:12:03Z</time>
      </trkpt>
      <trkpt lat="59.991551237181" lon="15.741874817759">
        <ele>208.4</ele>
        <time>2014-11-08T17:12:09Z</time>
      </trkpt>
      <trkpt lat="59.991453755647" lon="15.741710783914">
        <ele>208</ele>
        <time>2014-11-08T17:12:13Z</time>
      </trkpt>
      <trkpt lat="59.991407152265" lon="15.741640040651">
        <ele>208</ele>
        <time>2014-11-08T17:12:15Z</time>
      </trkpt>
      <trkpt lat="59.99125443399" lon="15.741435941309">
        <ele>207.4</ele>
        <time>2014-11-08T17:12:21Z</time>
      </trkpt>
      <trkpt lat="59.991228785366" lon="15.741409538314">
        <ele>207.6</ele>
        <time>2014-11-08T17:12:22Z</time>
      </trkpt>
      <trkpt lat="59.991100793704" lon="15.741291185841">
        <ele>206.8</ele>
        <time>2014-11-08T17:12:27Z</time>
      </trkpt>
      <trkpt lat="59.9910717085" lon="15.741262603551">
        <ele>206.8</ele>
        <time>2014-11-08T17:12:28Z</time>
      </trkpt>
      <trkpt lat="59.990944052115" lon="15.741172414273">
        <ele>206.4</ele>
        <time>2014-11-08T17:12:33Z</time>
      </trkpt>
      <trkpt lat="59.990765433758" lon="15.741097144783">
        <ele>206</ele>
        <time>2014-11-08T17:12:39Z</time>
      </trkpt>
      <trkpt lat="59.99067784287" lon="15.741079123691">
        <ele>205.8</ele>
        <time>2014-11-08T17:12:42Z</time>
      </trkpt>
      <trkpt lat="59.990538116544" lon="15.741065796465">
        <ele>205.6</ele>
        <time>2014-11-08T17:12:47Z</time>
      </trkpt>
      <trkpt lat="59.990398809314" lon="15.741076106206">
        <ele>205.2</ele>
        <time>2014-11-08T17:12:52Z</time>
      </trkpt>
      <trkpt lat="59.99034114182" lon="15.74109043926">
        <ele>205.2</ele>
        <time>2014-11-08T17:12:54Z</time>
      </trkpt>
      <trkpt lat="59.990178281441" lon="15.741130756214">
        <ele>205.6</ele>
        <time>2014-11-08T17:13:00Z</time>
      </trkpt>
      <trkpt lat="59.990037633106" lon="15.74116227217">
        <ele>205.4</ele>
        <time>2014-11-08T17:13:05Z</time>
      </trkpt>
      <trkpt lat="59.989834288135" lon="15.741208875552">
        <ele>205</ele>
        <time>2014-11-08T17:13:12Z</time>
      </trkpt>
      <trkpt lat="59.989744266495" lon="15.741241145879">
        <ele>204.8</ele>
        <time>2014-11-08T17:13:15Z</time>
      </trkpt>
      <trkpt lat="59.989610072225" lon="15.741280457005">
        <ele>204.6</ele>
        <time>2014-11-08T17:13:20Z</time>
      </trkpt>
      <trkpt lat="59.989497419447" lon="15.741316583008">
        <ele>204.2</ele>
        <time>2014-11-08T17:13:24Z</time>
      </trkpt>
      <trkpt lat="59.989355765283" lon="15.741360839456">
        <ele>204</ele>
        <time>2014-11-08T17:13:30Z</time>
      </trkpt>
      <trkpt lat="59.98927814886" lon="15.741390176117">
        <ele>203.8</ele>
        <time>2014-11-08T17:13:32Z</time>
      </trkpt>
      <trkpt lat="59.989176476374" lon="15.741430912167">
        <ele>203.4</ele>
        <time>2014-11-08T17:13:36Z</time>
      </trkpt>
      <trkpt lat="59.988985117525" lon="15.74149813503">
        <ele>203</ele>
        <time>2014-11-08T17:13:43Z</time>
      </trkpt>
      <trkpt lat="59.988794513047" lon="15.741546750069">
        <ele>202.8</ele>
        <time>2014-11-08T17:13:50Z</time>
      </trkpt>
      <trkpt lat="59.988601393998" lon="15.741583378986">
        <ele>202.2</ele>
        <time>2014-11-08T17:13:57Z</time>
      </trkpt>
      <trkpt lat="59.988571135327" lon="15.741584803909">
        <ele>202.2</ele>
        <time>2014-11-08T17:13:58Z</time>
      </trkpt>
      <trkpt lat="59.988361671567" lon="15.741571895778">
        <ele>202.2</ele>
        <time>2014-11-08T17:14:05Z</time>
      </trkpt>
      <trkpt lat="59.988182885572" lon="15.741522694007">
        <ele>201.8</ele>
        <time>2014-11-08T17:14:11Z</time>
      </trkpt>
      <trkpt lat="59.988034525886" lon="15.741456979886">
        <ele>201.8</ele>
        <time>2014-11-08T17:14:16Z</time>
      </trkpt>
      <trkpt lat="59.988003680483" lon="15.741438204423">
        <ele>201.6</ele>
        <time>2014-11-08T17:14:17Z</time>
      </trkpt>
      <trkpt lat="59.987831348553" lon="15.741340387613">
        <ele>201.2</ele>
        <time>2014-11-08T17:14:23Z</time>
      </trkpt>
      <trkpt lat="59.987693298608" lon="15.741206612438">
        <ele>201</ele>
        <time>2014-11-08T17:14:28Z</time>
      </trkpt>
      <trkpt lat="59.987547621131" lon="15.741073423997">
        <ele>200.8</ele>
        <time>2014-11-08T17:14:33Z</time>
      </trkpt>
      <trkpt lat="59.98751736246" lon="15.741046350449">
        <ele>200.8</ele>
        <time>2014-11-08T17:14:34Z</time>
      </trkpt>
      <trkpt lat="59.98739272356" lon="15.740922633559">
        <ele>200.2</ele>
        <time>2014-11-08T17:14:38Z</time>
      </trkpt>
      <trkpt lat="59.987220894545" lon="15.740781901404">
        <ele>200.2</ele>
        <time>2014-11-08T17:14:44Z</time>
      </trkpt>
      <trkpt lat="59.987055351958" lon="15.740642510355">
        <ele>199.8</ele>
        <time>2014-11-08T17:14:50Z</time>
      </trkpt>
      <trkpt lat="59.98702484183" lon="15.740611162037">
        <ele>199.6</ele>
        <time>2014-11-08T17:14:51Z</time>
      </trkpt>
      <trkpt lat="59.986880756915" lon="15.740478560328">
        <ele>199.4</ele>
        <time>2014-11-08T17:14:56Z</time>
      </trkpt>
      <trkpt lat="59.986734660342" lon="15.740347048268">
        <ele>199</ele>
        <time>2014-11-08T17:15:01Z</time>
      </trkpt>
      <trkpt lat="59.986583534628" lon="15.740206819028">
        <ele>198.6</ele>
        <time>2014-11-08T17:15:06Z</time>
      </trkpt>
      <trkpt lat="59.986560400575" lon="15.740186870098">
        <ele>198.6</ele>
        <time>2014-11-08T17:15:07Z</time>
      </trkpt>
      <trkpt lat="59.986468534917" lon="15.740127777681">
        <ele>198.4</ele>
        <time>2014-11-08T17:15:10Z</time>
      </trkpt>
      <trkpt lat="59.986330149695" lon="15.740012191236">
        <ele>197.6</ele>
        <time>2014-11-08T17:15:15Z</time>
      </trkpt>
      <trkpt lat="59.986278265715" lon="15.73996508494">
        <ele>197.6</ele>
        <time>2014-11-08T17:15:17Z</time>
      </trkpt>
      <trkpt lat="59.986082967371" lon="15.739814713597">
        <ele>197</ele>
        <time>2014-11-08T17:15:23Z</time>
      </trkpt>
      <trkpt lat="59.985924717039" lon="15.739709017798">
        <ele>196.8</ele>
        <time>2014-11-08T17:15:29Z</time>
      </trkpt>
      <trkpt lat="59.985897308215" lon="15.739676915109">
        <ele>196.4</ele>
        <time>2014-11-08T17:15:30Z</time>
      </trkpt>
      <trkpt lat="59.985792869702" lon="15.739589659497">
        <ele>196.2</ele>
        <time>2014-11-08T17:15:34Z</time>
      </trkpt>
      <trkpt lat="59.985690694302" lon="15.739524532109">
        <ele>196</ele>
        <time>2014-11-08T17:15:38Z</time>
      </trkpt>
      <trkpt lat="59.985551219434" lon="15.739498464391">
        <ele>195.8</ele>
        <time>2014-11-08T17:15:43Z</time>
      </trkpt>
      <trkpt lat="59.985480392352" lon="15.739469043911">
        <ele>195.4</ele>
        <time>2014-11-08T17:15:46Z</time>
      </trkpt>
      <trkpt lat="59.985367823392" lon="15.73944054544">
        <ele>194.8</ele>
        <time>2014-11-08T17:15:50Z</time>
      </trkpt>
      <trkpt lat="59.985250979662" lon="15.739435432479">
        <ele>194.4</ele>
        <time>2014-11-08T17:15:54Z</time>
      </trkpt>
      <trkpt lat="59.985192976892" lon="15.739446496591">
        <ele>194</ele>
        <time>2014-11-08T17:15:56Z</time>
      </trkpt>
      <trkpt lat="59.985040007159" lon="15.739461500198">
        <ele>193.2</ele>
        <time>2014-11-08T17:16:01Z</time>
      </trkpt>
      <trkpt lat="59.984855437651" lon="15.739564513788">
        <ele>192.4</ele>
        <time>2014-11-08T17:16:07Z</time>
      </trkpt>
      <trkpt lat="59.984827358276" lon="15.739580355585">
        <ele>192</ele>
        <time>2014-11-08T17:16:08Z</time>
      </trkpt>
      <trkpt lat="59.984654355794" lon="15.739687392488">
        <ele>191.4</ele>
        <time>2014-11-08T17:16:14Z</time>
      </trkpt>
      <trkpt lat="59.984541032463" lon="15.739775151014">
        <ele>191</ele>
        <time>2014-11-08T17:16:18Z</time>
      </trkpt>
      <trkpt lat="59.984511611983" lon="15.739793172106">
        <ele>190.8</ele>
        <time>2014-11-08T17:16:19Z</time>
      </trkpt>
      <trkpt lat="59.984396360815" lon="15.73989241384">
        <ele>190.4</ele>
        <time>2014-11-08T17:16:23Z</time>
      </trkpt>
      <trkpt lat="59.984233751893" lon="15.740072121844">
        <ele>190</ele>
        <time>2014-11-08T17:16:29Z</time>
      </trkpt>
      <trkpt lat="59.984207348898" lon="15.740107661113">
        <ele>189.8</ele>
        <time>2014-11-08T17:16:30Z</time>
      </trkpt>
      <trkpt lat="59.984105844051" lon="15.74026205577">
        <ele>189.8</ele>
        <time>2014-11-08T17:16:34Z</time>
      </trkpt>
      <trkpt lat="59.983994700015" lon="15.740472273901">
        <ele>189.8</ele>
        <time>2014-11-08T17:16:39Z</time>
      </trkpt>
      <trkpt lat="59.983887663111" lon="15.740762287751">
        <ele>190.2</ele>
        <time>2014-11-08T17:16:45Z</time>
      </trkpt>
      <trkpt lat="59.983809124678" lon="15.741100749001">
        <ele>189.4</ele>
        <time>2014-11-08T17:16:51Z</time>
      </trkpt>
      <trkpt lat="59.983757659793" lon="15.741471061483">
        <ele>189.6</ele>
        <time>2014-11-08T17:16:57Z</time>
      </trkpt>
      <trkpt lat="59.983710637316" lon="15.741838607937">
        <ele>189.2</ele>
        <time>2014-11-08T17:17:03Z</time>
      </trkpt>
      <trkpt lat="59.983658250421" lon="15.742092411965">
        <ele>188.8</ele>
        <time>2014-11-08T17:17:08Z</time>
      </trkpt>
      <trkpt lat="59.983604522422" lon="15.742308078334">
        <ele>188.6</ele>
        <time>2014-11-08T17:17:12Z</time>
      </trkpt>
      <trkpt lat="59.98349823989" lon="15.742580154911">
        <ele>188</ele>
        <time>2014-11-08T17:17:18Z</time>
      </trkpt>
      <trkpt lat="59.983480721712" lon="15.742613850161">
        <ele>187.8</ele>
        <time>2014-11-08T17:17:19Z</time>
      </trkpt>
      <trkpt lat="59.983354406431" lon="15.742723150179">
        <ele>187</ele>
        <time>2014-11-08T17:17:24Z</time>
      </trkpt>
      <trkpt lat="59.983330015093" lon="15.742751900107">
        <ele>186.4</ele>
        <time>2014-11-08T17:17:25Z</time>
      </trkpt>
      <trkpt lat="59.983265977353" lon="15.742796910927">
        <ele>185.8</ele>
        <time>2014-11-08T17:17:28Z</time>
      </trkpt>
      <trkpt lat="59.98324720189" lon="15.742810573429">
        <ele>185.4</ele>
        <time>2014-11-08T17:17:29Z</time>
      </trkpt>
      <trkpt lat="59.98313035816" lon="15.742901433259">
        <ele>184.2</ele>
        <time>2014-11-08T17:17:34Z</time>
      </trkpt>
      <trkpt lat="59.983010748401" lon="15.742979887873">
        <ele>183.2</ele>
        <time>2014-11-08T17:17:40Z</time>
      </trkpt>
      <trkpt lat="59.982883762568" lon="15.743009392172">
        <ele>182.6</ele>
        <time>2014-11-08T17:17:45Z</time>
      </trkpt>
      <trkpt lat="59.982805559412" lon="15.743036130443">
        <ele>182</ele>
        <time>2014-11-08T17:17:48Z</time>
      </trkpt>
      <trkpt lat="59.982716711238" lon="15.743078626692">
        <ele>181.4</ele>
        <time>2014-11-08T17:17:51Z</time>
      </trkpt>
      <trkpt lat="59.98262828216" lon="15.743093211204">
        <ele>180.8</ele>
        <time>2014-11-08T17:17:54Z</time>
      </trkpt>
      <trkpt lat="59.982512695715" lon="15.743096899241">
        <ele>180</ele>
        <time>2014-11-08T17:17:58Z</time>
      </trkpt>
      <trkpt lat="59.982467517257" lon="15.743102515116">
        <ele>179.6</ele>
        <time>2014-11-08T17:18:00Z</time>
      </trkpt>
      <trkpt lat="59.982356205583" lon="15.74311341159">
        <ele>179</ele>
        <time>2014-11-08T17:18:04Z</time>
      </trkpt>
      <trkpt lat="59.982248833403" lon="15.743135455996">
        <ele>178.4</ele>
        <time>2014-11-08T17:18:08Z</time>
      </trkpt>
      <trkpt lat="59.982113130391" lon="15.743179712445">
        <ele>177.4</ele>
        <time>2014-11-08T17:18:13Z</time>
      </trkpt>
      <trkpt lat="59.982051858678" lon="15.743194045499">
        <ele>177.2</ele>
        <time>2014-11-08T17:18:15Z</time>
      </trkpt>
      <trkpt lat="59.981923783198" lon="15.743186837062">
        <ele>176.4</ele>
        <time>2014-11-08T17:18:19Z</time>
      </trkpt>
      <trkpt lat="59.981800569221" lon="15.743223717436">
        <ele>175.6</ele>
        <time>2014-11-08T17:18:23Z</time>
      </trkpt>
      <trkpt lat="59.981766203418" lon="15.743227656931">
        <ele>175.4</ele>
        <time>2014-11-08T17:18:24Z</time>
      </trkpt>
      <trkpt lat="59.981630500406" lon="15.743258418515">
        <ele>175</ele>
        <time>2014-11-08T17:18:28Z</time>
      </trkpt>
      <trkpt lat="59.981491193175" lon="15.743296304718">
        <ele>174</ele>
        <time>2014-11-08T17:18:33Z</time>
      </trkpt>
      <trkpt lat="59.981336882338" lon="15.743364784867">
        <ele>173.2</ele>
        <time>2014-11-08T17:18:38Z</time>
      </trkpt>
      <trkpt lat="59.981298074126" lon="15.743381129578">
        <ele>173</ele>
        <time>2014-11-08T17:18:39Z</time>
      </trkpt>
      <trkpt lat="59.981207214296" lon="15.74343636632">
        <ele>172.8</ele>
        <time>2014-11-08T17:18:42Z</time>
      </trkpt>
      <trkpt lat="59.981090789661" lon="15.743507780135">
        <ele>171.8</ele>
        <time>2014-11-08T17:18:46Z</time>
      </trkpt>
      <trkpt lat="59.981048377231" lon="15.743532925844">
        <ele>171.6</ele>
        <time>2014-11-08T17:18:48Z</time>
      </trkpt>
      <trkpt lat="59.980886438861" lon="15.743623031303">
        <ele>170.6</ele>
        <time>2014-11-08T17:18:53Z</time>
      </trkpt>
      <trkpt lat="59.980848049745" lon="15.743634179235">
        <ele>170.6</ele>
        <time>2014-11-08T17:18:54Z</time>
      </trkpt>
      <trkpt lat="59.980707904324" lon="15.743687320501">
        <ele>169.6</ele>
        <time>2014-11-08T17:18:59Z</time>
      </trkpt>
      <trkpt lat="59.9806857761" lon="15.743702827021">
        <ele>169.4</ele>
        <time>2014-11-08T17:19:00Z</time>
      </trkpt>
      <trkpt lat="59.980560634285" lon="15.743793519214">
        <ele>168.6</ele>
        <time>2014-11-08T17:19:05Z</time>
      </trkpt>
      <trkpt lat="59.980513192713" lon="15.743838697672">
        <ele>168</ele>
        <time>2014-11-08T17:19:07Z</time>
      </trkpt>
      <trkpt lat="59.980420488864" lon="15.743924276903">
        <ele>167.6</ele>
        <time>2014-11-08T17:19:10Z</time>
      </trkpt>
      <trkpt lat="59.980278583243" lon="15.74402586557">
        <ele>167</ele>
        <time>2014-11-08T17:19:15Z</time>
      </trkpt>
      <trkpt lat="59.980257963762" lon="15.744038019329">
        <ele>166.8</ele>
        <time>2014-11-08T17:19:16Z</time>
      </trkpt>
      <trkpt lat="59.980105245486" lon="15.744103314355">
        <ele>166.2</ele>
        <time>2014-11-08T17:19:21Z</time>
      </trkpt>
      <trkpt lat="59.980048835278" lon="15.744133321568">
        <ele>165.8</ele>
        <time>2014-11-08T17:19:23Z</time>
      </trkpt>
      <trkpt lat="59.979935344309" lon="15.744198700413">
        <ele>165</ele>
        <time>2014-11-08T17:19:27Z</time>
      </trkpt>
      <trkpt lat="59.97989024967" lon="15.744226360694">
        <ele>164.8</ele>
        <time>2014-11-08T17:19:29Z</time>
      </trkpt>
      <trkpt lat="59.979722527787" lon="15.744293164462">
        <ele>164.2</ele>
        <time>2014-11-08T17:19:34Z</time>
      </trkpt>
      <trkpt lat="59.979649018496" lon="15.744310682639">
        <ele>163.8</ele>
        <time>2014-11-08T17:19:36Z</time>
      </trkpt>
      <trkpt lat="59.979507699609" lon="15.744327865541">
        <ele>163</ele>
        <time>2014-11-08T17:19:40Z</time>
      </trkpt>
      <trkpt lat="59.979437291622" lon="15.744334068149">
        <ele>162.8</ele>
        <time>2014-11-08T17:19:42Z</time>
      </trkpt>
      <trkpt lat="59.979304773733" lon="15.744330380112">
        <ele>162.2</ele>
        <time>2014-11-08T17:19:46Z</time>
      </trkpt>
      <trkpt lat="59.979213830084" lon="15.744328284636">
        <ele>161.8</ele>
        <time>2014-11-08T17:19:49Z</time>
      </trkpt>
      <trkpt lat="59.979099500924" lon="15.74433054775">
        <ele>161.4</ele>
        <time>2014-11-08T17:19:53Z</time>
      </trkpt>
      <trkpt lat="59.978945693001" lon="15.744320657104">
        <ele>160.8</ele>
        <time>2014-11-08T17:19:59Z</time>
      </trkpt>
      <trkpt lat="59.978867238387" lon="15.744284614921">
        <ele>160.6</ele>
        <time>2014-11-08T17:20:02Z</time>
      </trkpt>
      <trkpt lat="59.978776713833" lon="15.744268940762">
        <ele>160.4</ele>
        <time>2014-11-08T17:20:05Z</time>
      </trkpt>
      <trkpt lat="59.978656265885" lon="15.744235245511">
        <ele>160.2</ele>
        <time>2014-11-08T17:20:09Z</time>
      </trkpt>
      <trkpt lat="59.978514108807" lon="15.744174225256">
        <ele>159.4</ele>
        <time>2014-11-08T17:20:14Z</time>
      </trkpt>
      <trkpt lat="59.978488124907" lon="15.744166513905">
        <ele>159</ele>
        <time>2014-11-08T17:20:15Z</time>
      </trkpt>
      <trkpt lat="59.978371951729" lon="15.744137093425">
        <ele>158.6</ele>
        <time>2014-11-08T17:20:20Z</time>
      </trkpt>
      <trkpt lat="59.978350074962" lon="15.744125526398">
        <ele>158.2</ele>
        <time>2014-11-08T17:20:21Z</time>
      </trkpt>
      <trkpt lat="59.978243373334" lon="15.744089232758">
        <ele>157.8</ele>
        <time>2014-11-08T17:20:25Z</time>
      </trkpt>
      <trkpt lat="59.978152513504" lon="15.744049502537">
        <ele>157.4</ele>
        <time>2014-11-08T17:20:29Z</time>
      </trkpt>
      <trkpt lat="59.978128792718" lon="15.744039528072">
        <ele>157.2</ele>
        <time>2014-11-08T17:20:30Z</time>
      </trkpt>
      <trkpt lat="59.977996610105" lon="15.744011783972">
        <ele>156.4</ele>
        <time>2014-11-08T17:20:35Z</time>
      </trkpt>
      <trkpt lat="59.977930476889" lon="15.743985632434">
        <ele>155.8</ele>
        <time>2014-11-08T17:20:37Z</time>
      </trkpt>
      <trkpt lat="59.977830564603" lon="15.743957553059">
        <ele>155.6</ele>
        <time>2014-11-08T17:20:40Z</time>
      </trkpt>
      <trkpt lat="59.97769058682" lon="15.743934754282">
        <ele>154.8</ele>
        <time>2014-11-08T17:20:44Z</time>
      </trkpt>
      <trkpt lat="59.977647671476" lon="15.743926372379">
        <ele>154.8</ele>
        <time>2014-11-08T17:20:45Z</time>
      </trkpt>
      <trkpt lat="59.977505765855" lon="15.743898376822">
        <ele>153.8</ele>
        <time>2014-11-08T17:20:49Z</time>
      </trkpt>
      <trkpt lat="59.977466119453" lon="15.74388303794">
        <ele>153.6</ele>
        <time>2014-11-08T17:20:50Z</time>
      </trkpt>
      <trkpt lat="59.977305103093" lon="15.743844732642">
        <ele>152.6</ele>
        <time>2014-11-08T17:20:55Z</time>
      </trkpt>
      <trkpt lat="59.97724827379" lon="15.743834003806">
        <ele>152.4</ele>
        <time>2014-11-08T17:20:57Z</time>
      </trkpt>
      <trkpt lat="59.97709421441" lon="15.743805170059">
        <ele>151.4</ele>
        <time>2014-11-08T17:21:02Z</time>
      </trkpt>
      <trkpt lat="59.976939400658" lon="15.743763009086">
        <ele>150.6</ele>
        <time>2014-11-08T17:21:07Z</time>
      </trkpt>
      <trkpt lat="59.976850384846" lon="15.743742138147">
        <ele>150</ele>
        <time>2014-11-08T17:21:10Z</time>
      </trkpt>
      <trkpt lat="59.976717866957" lon="15.743711376563">
        <ele>149.4</ele>
        <time>2014-11-08T17:21:14Z</time>
      </trkpt>
      <trkpt lat="59.976664977148" lon="15.743700731546">
        <ele>149</ele>
        <time>2014-11-08T17:21:16Z</time>
      </trkpt>
      <trkpt lat="59.976553665474" lon="15.743681704625">
        <ele>148</ele>
        <time>2014-11-08T17:21:20Z</time>
      </trkpt>
      <trkpt lat="59.976488538086" lon="15.743666533381">
        <ele>147.8</ele>
        <time>2014-11-08T17:21:22Z</time>
      </trkpt>
      <trkpt lat="59.97637479566" lon="15.743633424863">
        <ele>147.2</ele>
        <time>2014-11-08T17:21:26Z</time>
      </trkpt>
      <trkpt lat="59.976292736828" lon="15.743605764583">
        <ele>146.8</ele>
        <time>2014-11-08T17:21:29Z</time>
      </trkpt>
      <trkpt lat="59.976166673005" lon="15.743562597781">
        <ele>146.4</ele>
        <time>2014-11-08T17:21:33Z</time>
      </trkpt>
      <trkpt lat="59.975994005799" lon="15.743590090424">
        <ele>145.6</ele>
        <time>2014-11-08T17:21:39Z</time>
      </trkpt>
      <trkpt lat="59.975905073807" lon="15.743756303564">
        <ele>145</ele>
        <time>2014-11-08T17:21:44Z</time>
      </trkpt>
      <trkpt lat="59.975834414363" lon="15.744038773701">
        <ele>145.2</ele>
        <time>2014-11-08T17:21:50Z</time>
      </trkpt>
      <trkpt lat="59.975736932829" lon="15.744348652661">
        <ele>146</ele>
        <time>2014-11-08T17:21:57Z</time>
      </trkpt>
      <trkpt lat="59.975716229528" lon="15.744392825291">
        <ele>146</ele>
        <time>2014-11-08T17:21:58Z</time>
      </trkpt>
      <trkpt lat="59.975624699146" lon="15.744603713974">
        <ele>146.4</ele>
        <time>2014-11-08T17:22:03Z</time>
      </trkpt>
      <trkpt lat="59.975593267009" lon="15.744691304862">
        <ele>146.6</ele>
        <time>2014-11-08T17:22:05Z</time>
      </trkpt>
      <trkpt lat="59.97552562505" lon="15.744860451669">
        <ele>146.8</ele>
        <time>2014-11-08T17:22:09Z</time>
      </trkpt>
      <trkpt lat="59.975401489064" lon="15.745122889057">
        <ele>146.4</ele>
        <time>2014-11-08T17:22:15Z</time>
      </trkpt>
      <trkpt lat="59.97530492954" lon="15.745329754427">
        <ele>146</ele>
        <time>2014-11-08T17:22:20Z</time>
      </trkpt>
      <trkpt lat="59.975230665877" lon="15.745505103841">
        <ele>145.6</ele>
        <time>2014-11-08T17:22:24Z</time>
      </trkpt>
      <trkpt lat="59.975211219862" lon="15.74555112049">
        <ele>145.6</ele>
        <time>2014-11-08T17:22:25Z</time>
      </trkpt>
      <trkpt lat="59.975100662559" lon="15.745759159327">
        <ele>145.4</ele>
        <time>2014-11-08T17:22:30Z</time>
      </trkpt>
      <trkpt lat="59.975026315078" lon="15.745934508741">
        <ele>144.6</ele>
        <time>2014-11-08T17:22:34Z</time>
      </trkpt>
      <trkpt lat="59.975007455796" lon="15.74597960338">
        <ele>144.4</ele>
        <time>2014-11-08T17:22:35Z</time>
      </trkpt>
      <trkpt lat="59.974897569045" lon="15.746275400743">
        <ele>143.8</ele>
        <time>2014-11-08T17:22:41Z</time>
      </trkpt>
      <trkpt lat="59.974808637053" lon="15.746542448178">
        <ele>143.4</ele>
        <time>2014-11-08T17:22:46Z</time>
      </trkpt>
      <trkpt lat="59.974779635668" lon="15.746640013531">
        <ele>143.2</ele>
        <time>2014-11-08T17:22:48Z</time>
      </trkpt>
      <trkpt lat="59.974684920162" lon="15.746960118413">
        <ele>142.6</ele>
        <time>2014-11-08T17:22:54Z</time>
      </trkpt>
      <trkpt lat="59.974661450833" lon="15.747059527785">
        <ele>142.4</ele>
        <time>2014-11-08T17:22:56Z</time>
      </trkpt>
      <trkpt lat="59.97461669147" lon="15.747221969068">
        <ele>142.4</ele>
        <time>2014-11-08T17:22:59Z</time>
      </trkpt>
      <trkpt lat="59.974550725892" lon="15.747483400628">
        <ele>142</ele>
        <time>2014-11-08T17:23:04Z</time>
      </trkpt>
      <trkpt lat="59.97449548915" lon="15.747683476657">
        <ele>141.2</ele>
        <time>2014-11-08T17:23:08Z</time>
      </trkpt>
      <trkpt lat="59.974462212995" lon="15.74779403396">
        <ele>141</ele>
        <time>2014-11-08T17:23:10Z</time>
      </trkpt>
      <trkpt lat="59.974385015666" lon="15.748062171042">
        <ele>140.2</ele>
        <time>2014-11-08T17:23:15Z</time>
      </trkpt>
      <trkpt lat="59.974372694269" lon="15.748103158548">
        <ele>140.2</ele>
        <time>2014-11-08T17:23:16Z</time>
      </trkpt>
      <trkpt lat="59.974298849702" lon="15.748371295631">
        <ele>139.4</ele>
        <time>2014-11-08T17:23:21Z</time>
      </trkpt>
      <trkpt lat="59.974223831668" lon="15.748635325581">
        <ele>139</ele>
        <time>2014-11-08T17:23:26Z</time>
      </trkpt>
      <trkpt lat="59.974158704281" lon="15.748897343874">
        <ele>138.4</ele>
        <time>2014-11-08T17:23:31Z</time>
      </trkpt>
      <trkpt lat="59.974124925211" lon="15.749068753794">
        <ele>138</ele>
        <time>2014-11-08T17:23:34Z</time>
      </trkpt>
      <trkpt lat="59.974106987938" lon="15.749229518697">
        <ele>137.8</ele>
        <time>2014-11-08T17:23:37Z</time>
      </trkpt>
      <trkpt lat="59.974070107564" lon="15.749520873651">
        <ele>137</ele>
        <time>2014-11-08T17:23:42Z</time>
      </trkpt>
      <trkpt lat="59.974059881642" lon="15.74963260442">
        <ele>136.8</ele>
        <time>2014-11-08T17:23:44Z</time>
      </trkpt>
      <trkpt lat="59.974057199433" lon="15.749869477004">
        <ele>136.8</ele>
        <time>2014-11-08T17:23:48Z</time>
      </trkpt>
      <trkpt lat="59.97407823801" lon="15.750158233568">
        <ele>136.4</ele>
        <time>2014-11-08T17:23:53Z</time>
      </trkpt>
      <trkpt lat="59.974126266316" lon="15.750470710918">
        <ele>137.2</ele>
        <time>2014-11-08T17:23:59Z</time>
      </trkpt>
      <trkpt lat="59.974169516936" lon="15.750726275146">
        <ele>137.6</ele>
        <time>2014-11-08T17:24:04Z</time>
      </trkpt>
      <trkpt lat="59.974197512493" lon="15.750886118039">
        <ele>137.8</ele>
        <time>2014-11-08T17:24:07Z</time>
      </trkpt>
      <trkpt lat="59.974224837497" lon="15.751040931791">
        <ele>138</ele>
        <time>2014-11-08T17:24:10Z</time>
      </trkpt>
      <trkpt lat="59.974274626002" lon="15.751352906227">
        <ele>138.6</ele>
        <time>2014-11-08T17:24:16Z</time>
      </trkpt>
      <trkpt lat="59.974281080067" lon="15.751403784379">
        <ele>139</ele>
        <time>2014-11-08T17:24:17Z</time>
      </trkpt>
      <trkpt lat="59.974318379536" lon="15.751624228433">
        <ele>139.2</ele>
        <time>2014-11-08T17:24:21Z</time>
      </trkpt>
      <trkpt lat="59.974348554388" lon="15.751879373565">
        <ele>140</ele>
        <time>2014-11-08T17:24:26Z</time>
      </trkpt>
      <trkpt lat="59.974353332072" lon="15.751972245052">
        <ele>140</ele>
        <time>2014-11-08T17:24:28Z</time>
      </trkpt>
      <trkpt lat="59.974374119192" lon="15.752246668562">
        <ele>140.6</ele>
        <time>2014-11-08T17:24:33Z</time>
      </trkpt>
      <trkpt lat="59.974403623492" lon="15.752623183653">
        <ele>140.4</ele>
        <time>2014-11-08T17:24:40Z</time>
      </trkpt>
      <trkpt lat="59.974424997345" lon="15.752993663773">
        <ele>140</ele>
        <time>2014-11-08T17:24:47Z</time>
      </trkpt>
      <trkpt lat="59.974440503865" lon="15.753251742572">
        <ele>140</ele>
        <time>2014-11-08T17:24:52Z</time>
      </trkpt>
      <trkpt lat="59.974449388683" lon="15.753532787785">
        <ele>139.6</ele>
        <time>2014-11-08T17:24:57Z</time>
      </trkpt>
      <trkpt lat="59.974447628483" lon="15.75380587019">
        <ele>139.6</ele>
        <time>2014-11-08T17:25:02Z</time>
      </trkpt>
      <trkpt lat="59.974444359541" lon="15.75407425873">
        <ele>140</ele>
        <time>2014-11-08T17:25:07Z</time>
      </trkpt>
      <trkpt lat="59.974395493045" lon="15.754414563999">
        <ele>139.8</ele>
        <time>2014-11-08T17:25:13Z</time>
      </trkpt>
      <trkpt lat="59.974349644035" lon="15.754683287814">
        <ele>139.4</ele>
        <time>2014-11-08T17:25:18Z</time>
      </trkpt>
      <trkpt lat="59.97427219525" lon="15.754930302501">
        <ele>139.2</ele>
        <time>2014-11-08T17:25:23Z</time>
      </trkpt>
      <trkpt lat="59.974153423682" lon="15.755177820101">
        <ele>139.2</ele>
        <time>2014-11-08T17:25:29Z</time>
      </trkpt>
      <trkpt lat="59.974022917449" lon="15.755397006869">
        <ele>139.2</ele>
        <time>2014-11-08T17:25:35Z</time>
      </trkpt>
      <trkpt lat="59.97395452112" lon="15.755501780659">
        <ele>139</ele>
        <time>2014-11-08T17:25:38Z</time>
      </trkpt>
      <trkpt lat="59.973907498643" lon="15.755572272465">
        <ele>139.2</ele>
        <time>2014-11-08T17:25:40Z</time>
      </trkpt>
      <trkpt lat="59.973819153383" lon="15.755708394572">
        <ele>139.6</ele>
        <time>2014-11-08T17:25:44Z</time>
      </trkpt>
      <trkpt lat="59.973687808961" lon="15.755899669603">
        <ele>139.6</ele>
        <time>2014-11-08T17:25:50Z</time>
      </trkpt>
      <trkpt lat="59.973550178111" lon="15.756090860814">
        <ele>139.8</ele>
        <time>2014-11-08T17:25:56Z</time>
      </trkpt>
      <trkpt lat="59.973451942205" lon="15.756220864132">
        <ele>139.4</ele>
        <time>2014-11-08T17:26:00Z</time>
      </trkpt>
      <trkpt lat="59.973362088203" lon="15.756423454732">
        <ele>138.8</ele>
        <time>2014-11-08T17:26:05Z</time>
      </trkpt>
      <trkpt lat="59.973326297477" lon="15.756497886032">
        <ele>138.8</ele>
        <time>2014-11-08T17:26:07Z</time>
      </trkpt>
      <trkpt lat="59.973208783194" lon="15.756755042821">
        <ele>138.4</ele>
        <time>2014-11-08T17:26:13Z</time>
      </trkpt>
      <trkpt lat="59.973112056032" lon="15.757020246238">
        <ele>138.4</ele>
        <time>2014-11-08T17:26:19Z</time>
      </trkpt>
      <trkpt lat="59.973033601418" lon="15.757249826565">
        <ele>138</ele>
        <time>2014-11-08T17:26:24Z</time>
      </trkpt>
      <trkpt lat="59.972935449332" lon="15.757505223155">
        <ele>138.2</ele>
        <time>2014-11-08T17:26:30Z</time>
      </trkpt>
      <trkpt lat="59.972903430462" lon="15.757583007216">
        <ele>137.8</ele>
        <time>2014-11-08T17:26:32Z</time>
      </trkpt>
      <trkpt lat="59.972825059667" lon="15.757793309167">
        <ele>137.8</ele>
        <time>2014-11-08T17:26:37Z</time>
      </trkpt>
      <trkpt lat="59.972750125453" lon="15.758003275841">
        <ele>138.2</ele>
        <time>2014-11-08T17:26:43Z</time>
      </trkpt>
      <trkpt lat="59.972682315856" lon="15.758174518123">
        <ele>138.8</ele>
        <time>2014-11-08T17:26:48Z</time>
      </trkpt>
      <trkpt lat="59.972667479888" lon="15.758205866441">
        <ele>138.8</ele>
        <time>2014-11-08T17:26:49Z</time>
      </trkpt>
      <trkpt lat="59.972573854029" lon="15.75841373764">
        <ele>139.6</ele>
        <time>2014-11-08T17:26:56Z</time>
      </trkpt>
      <trkpt lat="59.972541332245" lon="15.758491437882">
        <ele>139.8</ele>
        <time>2014-11-08T17:26:59Z</time>
      </trkpt>
      <trkpt lat="59.972514761612" lon="15.758555056527">
        <ele>140.2</ele>
        <time>2014-11-08T17:27:01Z</time>
      </trkpt>
      <trkpt lat="59.972423734143" lon="15.758762676269">
        <ele>140.8</ele>
        <time>2014-11-08T17:27:07Z</time>
      </trkpt>
      <trkpt lat="59.972403785214" lon="15.758800897747">
        <ele>141</ele>
        <time>2014-11-08T17:27:08Z</time>
      </trkpt>
      <trkpt lat="59.972333712503" lon="15.758937606588">
        <ele>141.6</ele>
        <time>2014-11-08T17:27:12Z</time>
      </trkpt>
      <trkpt lat="59.972281325608" lon="15.759047241881">
        <ele>142</ele>
        <time>2014-11-08T17:27:15Z</time>
      </trkpt>
      <trkpt lat="59.972231620923" lon="15.759171042591">
        <ele>142.4</ele>
        <time>2014-11-08T17:27:18Z</time>
      </trkpt>
      <trkpt lat="59.972123159096" lon="15.759376566857">
        <ele>143</ele>
        <time>2014-11-08T17:27:24Z</time>
      </trkpt>
      <trkpt lat="59.972041016445" lon="15.75951478444">
        <ele>143.2</ele>
        <time>2014-11-08T17:27:28Z</time>
      </trkpt>
      <trkpt lat="59.972021738067" lon="15.759554347023">
        <ele>143.2</ele>
        <time>2014-11-08T17:27:29Z</time>
      </trkpt>
      <trkpt lat="59.971927944571" lon="15.75978317298">
        <ele>143.4</ele>
        <time>2014-11-08T17:27:35Z</time>
      </trkpt>
      <trkpt lat="59.971825433895" lon="15.760000096634">
        <ele>144</ele>
        <time>2014-11-08T17:27:41Z</time>
      </trkpt>
      <trkpt lat="59.971755612642" lon="15.760130183771">
        <ele>144.2</ele>
        <time>2014-11-08T17:27:45Z</time>
      </trkpt>
      <trkpt lat="59.971739351749" lon="15.760168824345">
        <ele>144.4</ele>
        <time>2014-11-08T17:27:46Z</time>
      </trkpt>
      <trkpt lat="59.971680175513" lon="15.760291703045">
        <ele>144.6</ele>
        <time>2014-11-08T17:27:50Z</time>
      </trkpt>
      <trkpt lat="59.971577748656" lon="15.760456575081">
        <ele>145.4</ele>
        <time>2014-11-08T17:27:55Z</time>
      </trkpt>
      <trkpt lat="59.97146400623" lon="15.760681880638">
        <ele>145.4</ele>
        <time>2014-11-08T17:28:01Z</time>
      </trkpt>
      <trkpt lat="59.971351018175" lon="15.760895032436">
        <ele>145.6</ele>
        <time>2014-11-08T17:28:07Z</time>
      </trkpt>
      <trkpt lat="59.971258733422" lon="15.761083038524">
        <ele>146</ele>
        <time>2014-11-08T17:28:12Z</time>
      </trkpt>
      <trkpt lat="59.971148679033" lon="15.76130063273">
        <ele>146.4</ele>
        <time>2014-11-08T17:28:18Z</time>
      </trkpt>
      <trkpt lat="59.971005767584" lon="15.761576313525">
        <ele>147</ele>
        <time>2014-11-08T17:28:26Z</time>
      </trkpt>
      <trkpt lat="59.970911052078" lon="15.761780831963">
        <ele>147.4</ele>
        <time>2014-11-08T17:28:32Z</time>
      </trkpt>
      <trkpt lat="59.970891019329" lon="15.761821903288">
        <ele>147.4</ele>
        <time>2014-11-08T17:28:33Z</time>
      </trkpt>
      <trkpt lat="59.97083385475" lon="15.76196456328">
        <ele>147.8</ele>
        <time>2014-11-08T17:28:37Z</time>
      </trkpt>
      <trkpt lat="59.970758333802" lon="15.762134967372">
        <ele>148.4</ele>
        <time>2014-11-08T17:28:42Z</time>
      </trkpt>
      <trkpt lat="59.970747102052" lon="15.762169919908">
        <ele>148.4</ele>
        <time>2014-11-08T17:28:43Z</time>
      </trkpt>
      <trkpt lat="59.970644004643" lon="15.762378210202">
        <ele>149.4</ele>
        <time>2014-11-08T17:28:49Z</time>
      </trkpt>
      <trkpt lat="59.970630845055" lon="15.762407546863">
        <ele>149.6</ele>
        <time>2014-11-08T17:28:50Z</time>
      </trkpt>
      <trkpt lat="59.970576446503" lon="15.762493880466">
        <ele>149.8</ele>
        <time>2014-11-08T17:28:53Z</time>
      </trkpt>
      <trkpt lat="59.970565214753" lon="15.762527324259">
        <ele>150</ele>
        <time>2014-11-08T17:28:54Z</time>
      </trkpt>
      <trkpt lat="59.970467984676" lon="15.762684987858">
        <ele>150.6</ele>
        <time>2014-11-08T17:28:59Z</time>
      </trkpt>
      <trkpt lat="59.970428505912" lon="15.762769142166">
        <ele>150.8</ele>
        <time>2014-11-08T17:29:01Z</time>
      </trkpt>
      <trkpt lat="59.970397660509" lon="15.762815661728">
        <ele>150.8</ele>
        <time>2014-11-08T17:29:03Z</time>
      </trkpt>
      <trkpt lat="59.970319122076" lon="15.762931834906">
        <ele>151.2</ele>
        <time>2014-11-08T17:29:07Z</time>
      </trkpt>
      <trkpt lat="59.970281152055" lon="15.762986820191">
        <ele>151.2</ele>
        <time>2014-11-08T17:29:09Z</time>
      </trkpt>
      <trkpt lat="59.970160117373" lon="15.763097126037">
        <ele>151.4</ele>
        <time>2014-11-08T17:29:14Z</time>
      </trkpt>
      <trkpt lat="59.970028437674" lon="15.763187650591">
        <ele>151</ele>
        <time>2014-11-08T17:29:19Z</time>
      </trkpt>
      <trkpt lat="59.969903128222" lon="15.763255711645">
        <ele>150.6</ele>
        <time>2014-11-08T17:29:23Z</time>
      </trkpt>
      <trkpt lat="59.969780500978" lon="15.763312540948">
        <ele>150</ele>
        <time>2014-11-08T17:29:27Z</time>
      </trkpt>
      <trkpt lat="59.969723168761" lon="15.763347074389">
        <ele>149.6</ele>
        <time>2014-11-08T17:29:29Z</time>
      </trkpt>
      <trkpt lat="59.969581095502" lon="15.763414967805">
        <ele>148.8</ele>
        <time>2014-11-08T17:29:34Z</time>
      </trkpt>
      <trkpt lat="59.96955787763" lon="15.763423349708">
        <ele>148.6</ele>
        <time>2014-11-08T17:29:35Z</time>
      </trkpt>
      <trkpt lat="59.969400633126" lon="15.763504151255">
        <ele>147.8</ele>
        <time>2014-11-08T17:29:40Z</time>
      </trkpt>
      <trkpt lat="59.969371631742" lon="15.763520244509">
        <ele>147.6</ele>
        <time>2014-11-08T17:29:41Z</time>
      </trkpt>
      <trkpt lat="59.969254536554" lon="15.763572463766">
        <ele>146.8</ele>
        <time>2014-11-08T17:29:45Z</time>
      </trkpt>
      <trkpt lat="59.969221679494" lon="15.763583276421">
        <ele>146.4</ele>
        <time>2014-11-08T17:29:46Z</time>
      </trkpt>
      <trkpt lat="59.969081031159" lon="15.763648571447">
        <ele>145.6</ele>
        <time>2014-11-08T17:29:51Z</time>
      </trkpt>
      <trkpt lat="59.969048090279" lon="15.7636664249">
        <ele>145.4</ele>
        <time>2014-11-08T17:29:52Z</time>
      </trkpt>
      <trkpt lat="59.968927893788" lon="15.763710010797">
        <ele>144.2</ele>
        <time>2014-11-08T17:29:56Z</time>
      </trkpt>
      <trkpt lat="59.968761093915" lon="15.7637703605">
        <ele>143.4</ele>
        <time>2014-11-08T17:30:02Z</time>
      </trkpt>
      <trkpt lat="59.968682304025" lon="15.763787711039">
        <ele>143.2</ele>
        <time>2014-11-08T17:30:05Z</time>
      </trkpt>
      <trkpt lat="59.968580212444" lon="15.763791399077">
        <ele>142.8</ele>
        <time>2014-11-08T17:30:08Z</time>
      </trkpt>
      <trkpt lat="59.968525227159" lon="15.76380237937">
        <ele>142.2</ele>
        <time>2014-11-08T17:30:10Z</time>
      </trkpt>
      <trkpt lat="59.968436378986" lon="15.763813778758">
        <ele>141.8</ele>
        <time>2014-11-08T17:30:13Z</time>
      </trkpt>
      <trkpt lat="59.968293299899" lon="15.763818388805">
        <ele>141.2</ele>
        <time>2014-11-08T17:30:18Z</time>
      </trkpt>
      <trkpt lat="59.968267818913" lon="15.763824675232">
        <ele>141.2</ele>
        <time>2014-11-08T17:30:19Z</time>
      </trkpt>
      <trkpt lat="59.968116022646" lon="15.763839343563">
        <ele>140.6</ele>
        <time>2014-11-08T17:30:24Z</time>
      </trkpt>
      <trkpt lat="59.967944612727" lon="15.763881001621">
        <ele>140.4</ele>
        <time>2014-11-08T17:30:30Z</time>
      </trkpt>
      <trkpt lat="59.96789323166" lon="15.763897262514">
        <ele>140</ele>
        <time>2014-11-08T17:30:32Z</time>
      </trkpt>
      <trkpt lat="59.967813938856" lon="15.763913774863">
        <ele>140.2</ele>
        <time>2014-11-08T17:30:35Z</time>
      </trkpt>
      <trkpt lat="59.967676391825" lon="15.763953588903">
        <ele>140.8</ele>
        <time>2014-11-08T17:30:40Z</time>
      </trkpt>
      <trkpt lat="59.967648060992" lon="15.763956354931">
        <ele>141.2</ele>
        <time>2014-11-08T17:30:41Z</time>
      </trkpt>
      <trkpt lat="59.96754094027" lon="15.763984518126">
        <ele>141.8</ele>
        <time>2014-11-08T17:30:45Z</time>
      </trkpt>
      <trkpt lat="59.967463994399" lon="15.764005724341">
        <ele>142.2</ele>
        <time>2014-11-08T17:30:48Z</time>
      </trkpt>
      <trkpt lat="59.967414457351" lon="15.764014944434">
        <ele>142.6</ele>
        <time>2014-11-08T17:30:50Z</time>
      </trkpt>
      <trkpt lat="59.967342624441" lon="15.76403606683">
        <ele>143.4</ele>
        <time>2014-11-08T17:30:53Z</time>
      </trkpt>
      <trkpt lat="59.967296523973" lon="15.764049477875">
        <ele>144</ele>
        <time>2014-11-08T17:30:55Z</time>
      </trkpt>
      <trkpt lat="59.967241035774" lon="15.76404905878">
        <ele>144.4</ele>
        <time>2014-11-08T17:30:57Z</time>
      </trkpt>
      <trkpt lat="59.967168783769" lon="15.764051489532">
        <ele>144.8</ele>
        <time>2014-11-08T17:31:00Z</time>
      </trkpt>
      <trkpt lat="59.967061998323" lon="15.764036737382">
        <ele>145.2</ele>
        <time>2014-11-08T17:31:04Z</time>
      </trkpt>
      <trkpt lat="59.966898802668" lon="15.763977393508">
        <ele>145.4</ele>
        <time>2014-11-08T17:31:10Z</time>
      </trkpt>
      <trkpt lat="59.966723956168" lon="15.763907404616">
        <ele>145.2</ele>
        <time>2014-11-08T17:31:16Z</time>
      </trkpt>
      <trkpt lat="59.966531423852" lon="15.763785615563">
        <ele>144.4</ele>
        <time>2014-11-08T17:31:23Z</time>
      </trkpt>
      <trkpt lat="59.966364288703" lon="15.763654941693">
        <ele>143.6</ele>
        <time>2014-11-08T17:31:29Z</time>
      </trkpt>
      <trkpt lat="59.966340484098" lon="15.763639183715">
        <ele>143.6</ele>
        <time>2014-11-08T17:31:30Z</time>
      </trkpt>
      <trkpt lat="59.966314667836" lon="15.763615882024">
        <ele>143.4</ele>
        <time>2014-11-08T17:31:31Z</time>
      </trkpt>
      <trkpt lat="59.966220539063" lon="15.763527285308">
        <ele>143.2</ele>
        <time>2014-11-08T17:31:35Z</time>
      </trkpt>
      <trkpt lat="59.966096822172" lon="15.763426953927">
        <ele>143.6</ele>
        <time>2014-11-08T17:31:40Z</time>
      </trkpt>
      <trkpt lat="59.965984839946" lon="15.76333492063">
        <ele>143.6</ele>
        <time>2014-11-08T17:31:45Z</time>
      </trkpt>
      <trkpt lat="59.965829690918" lon="15.763214221224">
        <ele>144.2</ele>
        <time>2014-11-08T17:31:52Z</time>
      </trkpt>
      <trkpt lat="59.965807981789" lon="15.763194356114">
        <ele>144.6</ele>
        <time>2014-11-08T17:31:53Z</time>
      </trkpt>
      <trkpt lat="59.965686444193" lon="15.763090420514">
        <ele>144.6</ele>
        <time>2014-11-08T17:31:58Z</time>
      </trkpt>
      <trkpt lat="59.96558887884" lon="15.763016911224">
        <ele>145</ele>
        <time>2014-11-08T17:32:03Z</time>
      </trkpt>
      <trkpt lat="59.965404309332" lon="15.762968463823">
        <ele>145.4</ele>
        <time>2014-11-08T17:32:09Z</time>
      </trkpt>
      <trkpt lat="59.965352844447" lon="15.762966284528">
        <ele>145.6</ele>
        <time>2014-11-08T17:32:11Z</time>
      </trkpt>
      <trkpt lat="59.96528076008" lon="15.763017749414">
        <ele>146</ele>
        <time>2014-11-08T17:32:14Z</time>
      </trkpt>
      <trkpt lat="59.965177411214" lon="15.763249592856">
        <ele>146.2</ele>
        <time>2014-11-08T17:32:20Z</time>
      </trkpt>
      <trkpt lat="59.965086383745" lon="15.763557711616">
        <ele>146.2</ele>
        <time>2014-11-08T17:32:27Z</time>
      </trkpt>
      <trkpt lat="59.965017484501" lon="15.763801541179">
        <ele>146.8</ele>
        <time>2014-11-08T17:32:32Z</time>
      </trkpt>
      <trkpt lat="59.96499418281" lon="15.763900112361">
        <ele>146.8</ele>
        <time>2014-11-08T17:32:34Z</time>
      </trkpt>
      <trkpt lat="59.964940454811" lon="15.764191970229">
        <ele>147</ele>
        <time>2014-11-08T17:32:40Z</time>
      </trkpt>
      <trkpt lat="59.96488689445" lon="15.764444516972">
        <ele>147.2</ele>
        <time>2014-11-08T17:32:45Z</time>
      </trkpt>
      <trkpt lat="59.964828053489" lon="15.764711648226">
        <ele>146.6</ele>
        <time>2014-11-08T17:32:51Z</time>
      </trkpt>
      <trkpt lat="59.964777259156" lon="15.764994956553">
        <ele>146.6</ele>
        <time>2014-11-08T17:32:57Z</time>
      </trkpt>
      <trkpt lat="59.964723447338" lon="15.7653008122">
        <ele>146.4</ele>
        <time>2014-11-08T17:33:04Z</time>
      </trkpt>
      <trkpt lat="59.964739289135" lon="15.765569368377">
        <ele>146.8</ele>
        <time>2014-11-08T17:33:10Z</time>
      </trkpt>
      <trkpt lat="59.964844062924" lon="15.765809258446">
        <ele>145.8</ele>
        <time>2014-11-08T17:33:17Z</time>
      </trkpt>
      <trkpt lat="59.964996110648" lon="15.766012603417">
        <ele>145.8</ele>
        <time>2014-11-08T17:33:24Z</time>
      </trkpt>
      <trkpt lat="59.965055538341" lon="15.766092231497">
        <ele>145.8</ele>
        <time>2014-11-08T17:33:27Z</time>
      </trkpt>
      <trkpt lat="59.965101219714" lon="15.76616213657">
        <ele>145.6</ele>
        <time>2014-11-08T17:33:29Z</time>
      </trkpt>
      <trkpt lat="59.965208424255" lon="15.766319967806">
        <ele>145.4</ele>
        <time>2014-11-08T17:33:34Z</time>
      </trkpt>
      <trkpt lat="59.965355107561" lon="15.766534209251">
        <ele>145.4</ele>
        <time>2014-11-08T17:33:41Z</time>
      </trkpt>
      <trkpt lat="59.965471867472" lon="15.766715174541">
        <ele>145.2</ele>
        <time>2014-11-08T17:33:47Z</time>
      </trkpt>
      <trkpt lat="59.965632632375" lon="15.766950119287">
        <ele>145</ele>
        <time>2014-11-08T17:33:55Z</time>
      </trkpt>
      <trkpt lat="59.965779986233" lon="15.767156397924">
        <ele>144.8</ele>
        <time>2014-11-08T17:34:02Z</time>
      </trkpt>
      <trkpt lat="59.965799432248" lon="15.767182800919">
        <ele>144.6</ele>
        <time>2014-11-08T17:34:03Z</time>
      </trkpt>
      <trkpt lat="59.965924490243" lon="15.76735672541">
        <ele>144.6</ele>
        <time>2014-11-08T17:34:09Z</time>
      </trkpt>
      <trkpt lat="59.966076537967" lon="15.767577085644">
        <ele>144.2</ele>
        <time>2014-11-08T17:34:16Z</time>
      </trkpt>
      <trkpt lat="59.966204613447" lon="15.767751680687">
        <ele>144</ele>
        <time>2014-11-08T17:34:22Z</time>
      </trkpt>
      <trkpt lat="59.96633419767" lon="15.767932562158">
        <ele>143.4</ele>
        <time>2014-11-08T17:34:28Z</time>
      </trkpt>
      <trkpt lat="59.966355320066" lon="15.767962904647">
        <ele>143.4</ele>
        <time>2014-11-08T17:34:29Z</time>
      </trkpt>
      <trkpt lat="59.96650217101" lon="15.76819114387">
        <ele>142.6</ele>
        <time>2014-11-08T17:34:36Z</time>
      </trkpt>
      <trkpt lat="59.966584565118" lon="15.768314776942">
        <ele>142.4</ele>
        <time>2014-11-08T17:34:40Z</time>
      </trkpt>
      <trkpt lat="59.966672826558" lon="15.768450144678">
        <ele>142</ele>
        <time>2014-11-08T17:34:44Z</time>
      </trkpt>
      <trkpt lat="59.966758657247" lon="15.768590457737">
        <ele>141.4</ele>
        <time>2014-11-08T17:34:48Z</time>
      </trkpt>
      <trkpt lat="59.966821018606" lon="15.768692968413">
        <ele>140.8</ele>
        <time>2014-11-08T17:34:51Z</time>
      </trkpt>
      <trkpt lat="59.966934006661" lon="15.768872844055">
        <ele>140.4</ele>
        <time>2014-11-08T17:34:56Z</time>
      </trkpt>
      <trkpt lat="59.966951273382" lon="15.768906036392">
        <ele>140.2</ele>
        <time>2014-11-08T17:34:57Z</time>
      </trkpt>
      <trkpt lat="59.967056298628" lon="15.76908540912">
        <ele>139.4</ele>
        <time>2014-11-08T17:35:02Z</time>
      </trkpt>
      <trkpt lat="59.967100890353" lon="15.769159672782">
        <ele>139</ele>
        <time>2014-11-08T17:35:04Z</time>
      </trkpt>
      <trkpt lat="59.967192420736" lon="15.76930870302">
        <ele>138.2</ele>
        <time>2014-11-08T17:35:08Z</time>
      </trkpt>
      <trkpt lat="59.967283783481" lon="15.769463349134">
        <ele>137.4</ele>
        <time>2014-11-08T17:35:12Z</time>
      </trkpt>
      <trkpt lat="59.967329967767" lon="15.769545156509">
        <ele>137</ele>
        <time>2014-11-08T17:35:14Z</time>
      </trkpt>
      <trkpt lat="59.967485954985" lon="15.769822848961">
        <ele>135.8</ele>
        <time>2014-11-08T17:35:21Z</time>
      </trkpt>
      <trkpt lat="59.967506239191" lon="15.769855538383">
        <ele>135.8</ele>
        <time>2014-11-08T17:35:22Z</time>
      </trkpt>
      <trkpt lat="59.967622747645" lon="15.770076988265">
        <ele>134.6</ele>
        <time>2014-11-08T17:35:28Z</time>
      </trkpt>
      <trkpt lat="59.967641774565" lon="15.770111521706">
        <ele>134.6</ele>
        <time>2014-11-08T17:35:29Z</time>
      </trkpt>
      <trkpt lat="59.96776775457" lon="15.770351495594">
        <ele>133.8</ele>
        <time>2014-11-08T17:35:36Z</time>
      </trkpt>
      <trkpt lat="59.967788876966" lon="15.770390219986">
        <ele>133.6</ele>
        <time>2014-11-08T17:35:37Z</time>
      </trkpt>
      <trkpt lat="59.96787940152" lon="15.770573113114">
        <ele>132.8</ele>
        <time>2014-11-08T17:35:42Z</time>
      </trkpt>
      <trkpt lat="59.96789926663" lon="15.770611334592">
        <ele>132.4</ele>
        <time>2014-11-08T17:35:43Z</time>
      </trkpt>
      <trkpt lat="59.968005213886" lon="15.770794479176">
        <ele>132</ele>
        <time>2014-11-08T17:35:48Z</time>
      </trkpt>
      <trkpt lat="59.968048967421" lon="15.770890703425">
        <ele>131.4</ele>
        <time>2014-11-08T17:35:51Z</time>
      </trkpt>
      <trkpt lat="59.968115435913" lon="15.771009642631">
        <ele>131.2</ele>
        <time>2014-11-08T17:35:54Z</time>
      </trkpt>
      <trkpt lat="59.968233117834" lon="15.771212819964">
        <ele>130.4</ele>
        <time>2014-11-08T17:36:00Z</time>
      </trkpt>
      <trkpt lat="59.968364965171" lon="15.771426223218">
        <ele>129.4</ele>
        <time>2014-11-08T17:36:06Z</time>
      </trkpt>
      <trkpt lat="59.968399247155" lon="15.77151607722">
        <ele>129.2</ele>
        <time>2014-11-08T17:36:08Z</time>
      </trkpt>
      <trkpt lat="59.968466889113" lon="15.771696791053">
        <ele>128</ele>
        <time>2014-11-08T17:36:12Z</time>
      </trkpt>
      <trkpt lat="59.968565041199" lon="15.771941374987">
        <ele>127.2</ele>
        <time>2014-11-08T17:36:17Z</time>
      </trkpt>
      <trkpt lat="59.968583062291" lon="15.771995186806">
        <ele>127</ele>
        <time>2014-11-08T17:36:18Z</time>
      </trkpt>
      <trkpt lat="59.968666462228" lon="15.77216274105">
        <ele>126.4</ele>
        <time>2014-11-08T17:36:22Z</time>
      </trkpt>
      <trkpt lat="59.968740222976" lon="15.772278327495">
        <ele>126</ele>
        <time>2014-11-08T17:36:25Z</time>
      </trkpt>
      <trkpt lat="59.968779869378" lon="15.772323673591">
        <ele>125.6</ele>
        <time>2014-11-08T17:36:27Z</time>
      </trkpt>
      <trkpt lat="59.968873662874" lon="15.772420149297">
        <ele>125</ele>
        <time>2014-11-08T17:36:31Z</time>
      </trkpt>
      <trkpt lat="59.968924457207" lon="15.772497849539">
        <ele>124.6</ele>
        <time>2014-11-08T17:36:33Z</time>
      </trkpt>
      <trkpt lat="59.969085054472" lon="15.772772105411">
        <ele>123.8</ele>
        <time>2014-11-08T17:36:40Z</time>
      </trkpt>
      <trkpt lat="59.969107350335" lon="15.772805465385">
        <ele>123.6</ele>
        <time>2014-11-08T17:36:41Z</time>
      </trkpt>
      <trkpt lat="59.96920902282" lon="15.773066310212">
        <ele>122.8</ele>
        <time>2014-11-08T17:36:47Z</time>
      </trkpt>
      <trkpt lat="59.969233749434" lon="15.773123810068">
        <ele>122.8</ele>
        <time>2014-11-08T17:36:48Z</time>
      </trkpt>
      <trkpt lat="59.969322178513" lon="15.77334525995">
        <ele>122.4</ele>
        <time>2014-11-08T17:36:53Z</time>
      </trkpt>
      <trkpt lat="59.969455786049" lon="15.773662682623">
        <ele>121.6</ele>
        <time>2014-11-08T17:37:00Z</time>
      </trkpt>
      <trkpt lat="59.969560308382" lon="15.773917073384">
        <ele>121.4</ele>
        <time>2014-11-08T17:37:06Z</time>
      </trkpt>
      <trkpt lat="59.969699028879" lon="15.774222845212">
        <ele>121.2</ele>
        <time>2014-11-08T17:37:13Z</time>
      </trkpt>
      <trkpt lat="59.969714703038" lon="15.774267185479">
        <ele>121</ele>
        <time>2014-11-08T17:37:14Z</time>
      </trkpt>
      <trkpt lat="59.969823919237" lon="15.774512356147">
        <ele>121</ele>
        <time>2014-11-08T17:37:20Z</time>
      </trkpt>
      <trkpt lat="59.969930201769" lon="15.774697680026">
        <ele>120.4</ele>
        <time>2014-11-08T17:37:25Z</time>
      </trkpt>
      <trkpt lat="59.970040759072" lon="15.774935642257">
        <ele>120.2</ele>
        <time>2014-11-08T17:37:31Z</time>
      </trkpt>
      <trkpt lat="59.970166655257" lon="15.77519514598">
        <ele>120</ele>
        <time>2014-11-08T17:37:37Z</time>
      </trkpt>
      <trkpt lat="59.97027981095" lon="15.775391450152">
        <ele>119.6</ele>
        <time>2014-11-08T17:37:42Z</time>
      </trkpt>
      <trkpt lat="59.970320547" lon="15.775481890887">
        <ele>119.2</ele>
        <time>2014-11-08T17:37:44Z</time>
      </trkpt>
      <trkpt lat="59.970364132896" lon="15.775584904477">
        <ele>119</ele>
        <time>2014-11-08T17:37:47Z</time>
      </trkpt>
      <trkpt lat="59.970482150093" lon="15.775830410421">
        <ele>118.4</ele>
        <time>2014-11-08T17:37:53Z</time>
      </trkpt>
      <trkpt lat="59.970512324944" lon="15.775915486738">
        <ele>118.2</ele>
        <time>2014-11-08T17:37:55Z</time>
      </trkpt>
      <trkpt lat="59.970591114834" lon="15.776080274954">
        <ele>117.8</ele>
        <time>2014-11-08T17:37:59Z</time>
      </trkpt>
      <trkpt lat="59.970670323819" lon="15.776235759258">
        <ele>117</ele>
        <time>2014-11-08T17:38:03Z</time>
      </trkpt>
      <trkpt lat="59.970717513934" lon="15.776317482814">
        <ele>117</ele>
        <time>2014-11-08T17:38:05Z</time>
      </trkpt>
      <trkpt lat="59.970831088722" lon="15.776552762836">
        <ele>116.4</ele>
        <time>2014-11-08T17:38:11Z</time>
      </trkpt>
      <trkpt lat="59.970877859741" lon="15.776641694829">
        <ele>115.8</ele>
        <time>2014-11-08T17:38:13Z</time>
      </trkpt>
      <trkpt lat="59.970970395952" lon="15.776827018708">
        <ele>115.4</ele>
        <time>2014-11-08T17:38:18Z</time>
      </trkpt>
      <trkpt lat="59.971109200269" lon="15.777102867141">
        <ele>115.2</ele>
        <time>2014-11-08T17:38:26Z</time>
      </trkpt>
      <trkpt lat="59.971120599657" lon="15.777126587927">
        <ele>115.2</ele>
        <time>2014-11-08T17:38:27Z</time>
      </trkpt>
      <trkpt lat="59.971248172224" lon="15.777383157983">
        <ele>115.2</ele>
        <time>2014-11-08T17:38:34Z</time>
      </trkpt>
      <trkpt lat="59.971260242164" lon="15.777406124398">
        <ele>115.2</ele>
        <time>2014-11-08T17:38:35Z</time>
      </trkpt>
      <trkpt lat="59.971389826387" lon="15.777683984488">
        <ele>115</ele>
        <time>2014-11-08T17:38:42Z</time>
      </trkpt>
      <trkpt lat="59.971475573257" lon="15.777868805453">
        <ele>114.8</ele>
        <time>2014-11-08T17:38:47Z</time>
      </trkpt>
      <trkpt lat="59.971516476944" lon="15.777949774638">
        <ele>114.8</ele>
        <time>2014-11-08T17:38:49Z</time>
      </trkpt>
      <trkpt lat="59.971648659557" lon="15.778223192319">
        <ele>114.6</ele>
        <time>2014-11-08T17:38:56Z</time>
      </trkpt>
      <trkpt lat="59.97177740559" lon="15.778473056853">
        <ele>114.6</ele>
        <time>2014-11-08T17:39:03Z</time>
      </trkpt>
      <trkpt lat="59.971905983984" lon="15.778752677143">
        <ele>114.4</ele>
        <time>2014-11-08T17:39:10Z</time>
      </trkpt>
      <trkpt lat="59.972032131627" lon="15.779002374038">
        <ele>114.6</ele>
        <time>2014-11-08T17:39:17Z</time>
      </trkpt>
      <trkpt lat="59.972170181572" lon="15.779260536656">
        <ele>114.6</ele>
        <time>2014-11-08T17:39:24Z</time>
      </trkpt>
      <trkpt lat="59.972282247618" lon="15.779476203024">
        <ele>114.6</ele>
        <time>2014-11-08T17:39:30Z</time>
      </trkpt>
      <trkpt lat="59.972411245108" lon="15.779743921012">
        <ele>114.6</ele>
        <time>2014-11-08T17:39:37Z</time>
      </trkpt>
      <trkpt lat="59.972432199866" lon="15.779783986509">
        <ele>114.6</ele>
        <time>2014-11-08T17:39:38Z</time>
      </trkpt>
      <trkpt lat="59.972445778549" lon="15.779816843569">
        <ele>114.4</ele>
        <time>2014-11-08T17:39:39Z</time>
      </trkpt>
      <trkpt lat="59.97253831476" lon="15.780013985932">
        <ele>114.4</ele>
        <time>2014-11-08T17:39:44Z</time>
      </trkpt>
      <trkpt lat="59.972634119913" lon="15.780209368095">
        <ele>114.2</ele>
        <time>2014-11-08T17:39:49Z</time>
      </trkpt>
      <trkpt lat="59.972743252292" lon="15.780435092747">
        <ele>114</ele>
        <time>2014-11-08T17:39:55Z</time>
      </trkpt>
      <trkpt lat="59.97285079211" lon="15.78066509217">
        <ele>114</ele>
        <time>2014-11-08T17:40:01Z</time>
      </trkpt>
      <trkpt lat="59.972903681919" lon="15.78077330254">
        <ele>113.6</ele>
        <time>2014-11-08T17:40:04Z</time>
      </trkpt>
      <trkpt lat="59.972992362455" lon="15.78095426783">
        <ele>113.6</ele>
        <time>2014-11-08T17:40:08Z</time>
      </trkpt>
      <trkpt lat="59.973102416843" lon="15.781183261424">
        <ele>113.4</ele>
        <time>2014-11-08T17:40:14Z</time>
      </trkpt>
      <trkpt lat="59.973235856742" lon="15.781455002725">
        <ele>113.6</ele>
        <time>2014-11-08T17:40:21Z</time>
      </trkpt>
      <trkpt lat="59.973320933059" lon="15.781721379608">
        <ele>113.6</ele>
        <time>2014-11-08T17:40:27Z</time>
      </trkpt>
      <trkpt lat="59.973402321339" lon="15.781989432871">
        <ele>113.8</ele>
        <time>2014-11-08T17:40:33Z</time>
      </trkpt>
      <trkpt lat="59.973507598042" lon="15.782249355689">
        <ele>114</ele>
        <time>2014-11-08T17:40:39Z</time>
      </trkpt>
      <trkpt lat="59.973623352125" lon="15.782544063404">
        <ele>114</ele>
        <time>2014-11-08T17:40:46Z</time>
      </trkpt>
      <trkpt lat="59.973634248599" lon="15.782574238256">
        <ele>114.2</ele>
        <time>2014-11-08T17:40:47Z</time>
      </trkpt>
      <trkpt lat="59.973719995469" lon="15.782777415588">
        <ele>114.8</ele>
        <time>2014-11-08T17:40:52Z</time>
      </trkpt>
      <trkpt lat="59.973738351837" lon="15.782815217972">
        <ele>114.8</ele>
        <time>2014-11-08T17:40:53Z</time>
      </trkpt>
      <trkpt lat="59.973847400397" lon="15.783052006736">
        <ele>115.2</ele>
        <time>2014-11-08T17:40:59Z</time>
      </trkpt>
      <trkpt lat="59.973964327946" lon="15.783321065828">
        <ele>115.6</ele>
        <time>2014-11-08T17:41:06Z</time>
      </trkpt>
      <trkpt lat="59.973983522505" lon="15.783357443288">
        <ele>116</ele>
        <time>2014-11-08T17:41:07Z</time>
      </trkpt>
      <trkpt lat="59.97406097129" lon="15.783512005582">
        <ele>116.2</ele>
        <time>2014-11-08T17:41:11Z</time>
      </trkpt>
      <trkpt lat="59.974164571613" lon="15.78372691758">
        <ele>116.6</ele>
        <time>2014-11-08T17:41:17Z</time>
      </trkpt>
      <trkpt lat="59.974265825003" lon="15.783930849284">
        <ele>117</ele>
        <time>2014-11-08T17:41:22Z</time>
      </trkpt>
      <trkpt lat="59.974284013733" lon="15.783972004429">
        <ele>117</ele>
        <time>2014-11-08T17:41:23Z</time>
      </trkpt>
      <trkpt lat="59.974418710917" lon="15.78424106352">
        <ele>117.8</ele>
        <time>2014-11-08T17:41:31Z</time>
      </trkpt>
      <trkpt lat="59.9744340498" lon="15.784282134846">
        <ele>118</ele>
        <time>2014-11-08T17:41:32Z</time>
      </trkpt>
      <trkpt lat="59.974496997893" lon="15.784415239468">
        <ele>118.4</ele>
        <time>2014-11-08T17:41:36Z</time>
      </trkpt>
      <trkpt lat="59.974571429193" lon="15.784575752914">
        <ele>118.8</ele>
        <time>2014-11-08T17:41:41Z</time>
      </trkpt>
      <trkpt lat="59.974615601823" lon="15.784658985212">
        <ele>119</ele>
        <time>2014-11-08T17:41:43Z</time>
      </trkpt>
      <trkpt lat="59.974665474147" lon="15.784728806466">
        <ele>119.2</ele>
        <time>2014-11-08T17:41:46Z</time>
      </trkpt>
      <trkpt lat="59.974779887125" lon="15.784813044593">
        <ele>119.6</ele>
        <time>2014-11-08T17:41:51Z</time>
      </trkpt>
      <trkpt lat="59.974902430549" lon="15.784888146445">
        <ele>120</ele>
        <time>2014-11-08T17:41:57Z</time>
      </trkpt>
      <trkpt lat="59.974979879335" lon="15.784965679049">
        <ele>119.8</ele>
        <time>2014-11-08T17:42:01Z</time>
      </trkpt>
      <trkpt lat="59.975098147988" lon="15.78512920998">
        <ele>119.6</ele>
        <time>2014-11-08T17:42:06Z</time>
      </trkpt>
      <trkpt lat="59.975257907063" lon="15.78538720496">
        <ele>119.6</ele>
        <time>2014-11-08T17:42:14Z</time>
      </trkpt>
      <trkpt lat="59.97537936084" lon="15.785604128614">
        <ele>119.6</ele>
        <time>2014-11-08T17:42:21Z</time>
      </trkpt>
      <trkpt lat="59.975483547896" lon="15.785770509392">
        <ele>119.8</ele>
        <time>2014-11-08T17:42:26Z</time>
      </trkpt>
      <trkpt lat="59.975550267845" lon="15.785935213789">
        <ele>119.4</ele>
        <time>2014-11-08T17:42:31Z</time>
      </trkpt>
      <trkpt lat="59.975610114634" lon="15.78618356958">
        <ele>119.6</ele>
        <time>2014-11-08T17:42:37Z</time>
      </trkpt>
      <trkpt lat="59.975623022765" lon="15.78640258871">
        <ele>119.6</ele>
        <time>2014-11-08T17:42:41Z</time>
      </trkpt>
      <trkpt lat="59.975627129897" lon="15.786627139896">
        <ele>119.6</ele>
        <time>2014-11-08T17:42:45Z</time>
      </trkpt>
      <trkpt lat="59.97563383542" lon="15.786686064675">
        <ele>119.6</ele>
        <time>2014-11-08T17:42:46Z</time>
      </trkpt>
      <trkpt lat="59.975661076605" lon="15.786956129596">
        <ele>119.6</ele>
        <time>2014-11-08T17:42:51Z</time>
      </trkpt>
      <trkpt lat="59.975672056898" lon="15.786999212578">
        <ele>119.8</ele>
        <time>2014-11-08T17:42:52Z</time>
      </trkpt>
      <trkpt lat="59.975736094639" lon="15.787252346054">
        <ele>119.8</ele>
        <time>2014-11-08T17:42:57Z</time>
      </trkpt>
      <trkpt lat="59.975796192884" lon="15.787577982992">
        <ele>119.6</ele>
        <time>2014-11-08T17:43:03Z</time>
      </trkpt>
      <trkpt lat="59.975825529546" lon="15.787875121459">
        <ele>119.8</ele>
        <time>2014-11-08T17:43:09Z</time>
      </trkpt>
      <trkpt lat="59.975891746581" lon="15.788098582998">
        <ele>119.6</ele>
        <time>2014-11-08T17:43:14Z</time>
      </trkpt>
      <trkpt lat="59.975952012464" lon="15.788284828886">
        <ele>119.4</ele>
        <time>2014-11-08T17:43:18Z</time>
      </trkpt>
      <trkpt lat="59.975955951959" lon="15.788307292387">
        <ele>119.4</ele>
        <time>2014-11-08T17:43:19Z</time>
      </trkpt>
      <trkpt lat="59.976031556726" lon="15.788563610986">
        <ele>119.2</ele>
        <time>2014-11-08T17:43:25Z</time>
      </trkpt>
      <trkpt lat="59.976114453748" lon="15.788820600137">
        <ele>119</ele>
        <time>2014-11-08T17:43:30Z</time>
      </trkpt>
      <trkpt lat="59.976177150384" lon="15.789035176858">
        <ele>118.8</ele>
        <time>2014-11-08T17:43:35Z</time>
      </trkpt>
      <trkpt lat="59.976220568642" lon="15.789234917611">
        <ele>118.6</ele>
        <time>2014-11-08T17:43:40Z</time>
      </trkpt>
      <trkpt lat="59.97628829442" lon="15.789462737739">
        <ele>118.4</ele>
        <time>2014-11-08T17:43:45Z</time>
      </trkpt>
      <trkpt lat="59.976396001875" lon="15.789767755195">
        <ele>118.4</ele>
        <time>2014-11-08T17:43:51Z</time>
      </trkpt>
      <trkpt lat="59.976487699896" lon="15.790014518425">
        <ele>118.4</ele>
        <time>2014-11-08T17:43:56Z</time>
      </trkpt>
      <trkpt lat="59.976525921375" lon="15.790125913918">
        <ele>118</ele>
        <time>2014-11-08T17:43:58Z</time>
      </trkpt>
      <trkpt lat="59.976585684344" lon="15.790308974683">
        <ele>117.8</ele>
        <time>2014-11-08T17:44:02Z</time>
      </trkpt>
      <trkpt lat="59.976680232212" lon="15.790538052097">
        <ele>117.8</ele>
        <time>2014-11-08T17:44:07Z</time>
      </trkpt>
      <trkpt lat="59.976774193347" lon="15.790789257735">
        <ele>117.6</ele>
        <time>2014-11-08T17:44:13Z</time>
      </trkpt>
      <trkpt lat="59.976878212765" lon="15.791018670425">
        <ele>117.4</ele>
        <time>2014-11-08T17:44:18Z</time>
      </trkpt>
      <trkpt lat="59.977002516389" lon="15.791315725073">
        <ele>117</ele>
        <time>2014-11-08T17:44:25Z</time>
      </trkpt>
      <trkpt lat="59.977026991546" lon="15.791365848854">
        <ele>117.2</ele>
        <time>2014-11-08T17:44:26Z</time>
      </trkpt>
      <trkpt lat="59.977040318772" lon="15.791395772249">
        <ele>117</ele>
        <time>2014-11-08T17:44:27Z</time>
      </trkpt>
      <trkpt lat="59.977121539414" lon="15.791547233239">
        <ele>116.8</ele>
        <time>2014-11-08T17:44:31Z</time>
      </trkpt>
      <trkpt lat="59.977230671793" lon="15.791738256812">
        <ele>116.8</ele>
        <time>2014-11-08T17:44:36Z</time>
      </trkpt>
      <trkpt lat="59.977375846356" lon="15.791987283155">
        <ele>116.6</ele>
        <time>2014-11-08T17:44:43Z</time>
      </trkpt>
      <trkpt lat="59.977479698136" lon="15.792145365849">
        <ele>116.8</ele>
        <time>2014-11-08T17:44:48Z</time>
      </trkpt>
      <trkpt lat="59.977594027296" lon="15.79233312048">
        <ele>116.8</ele>
        <time>2014-11-08T17:44:54Z</time>
      </trkpt>
      <trkpt lat="59.977689580992" lon="15.792514337227">
        <ele>117</ele>
        <time>2014-11-08T17:44:59Z</time>
      </trkpt>
      <trkpt lat="59.977772058919" lon="15.792633863166">
        <ele>117.2</ele>
        <time>2014-11-08T17:45:03Z</time>
      </trkpt>
      <trkpt lat="59.977882448584" lon="15.79278934747">
        <ele>117.6</ele>
        <time>2014-11-08T17:45:09Z</time>
      </trkpt>
      <trkpt lat="59.978009853512" lon="15.792973162606">
        <ele>117.8</ele>
        <time>2014-11-08T17:45:15Z</time>
      </trkpt>
      <trkpt lat="59.978089146316" lon="15.793092688546">
        <ele>118</ele>
        <time>2014-11-08T17:45:19Z</time>
      </trkpt>
      <trkpt lat="59.978223508224" lon="15.793269965798">
        <ele>118.4</ele>
        <time>2014-11-08T17:45:25Z</time>
      </trkpt>
      <trkpt lat="59.978330712765" lon="15.7934342511">
        <ele>118.6</ele>
        <time>2014-11-08T17:45:30Z</time>
      </trkpt>
      <trkpt lat="59.978503128514" lon="15.793666513637">
        <ele>118.6</ele>
        <time>2014-11-08T17:45:38Z</time>
      </trkpt>
      <trkpt lat="59.978635981679" lon="15.793839013204">
        <ele>118.4</ele>
        <time>2014-11-08T17:45:44Z</time>
      </trkpt>
      <trkpt lat="59.978736815974" lon="15.793979912996">
        <ele>118.2</ele>
        <time>2014-11-08T17:45:49Z</time>
      </trkpt>
      <trkpt lat="59.978879475966" lon="15.794146293774">
        <ele>118</ele>
        <time>2014-11-08T17:45:55Z</time>
      </trkpt>
      <trkpt lat="59.979012245312" lon="15.794311417267">
        <ele>117.8</ele>
        <time>2014-11-08T17:46:01Z</time>
      </trkpt>
      <trkpt lat="59.979151887819" lon="15.794495064765">
        <ele>117.6</ele>
        <time>2014-11-08T17:46:07Z</time>
      </trkpt>
      <trkpt lat="59.979270910844" lon="15.794649291784">
        <ele>117.4</ele>
        <time>2014-11-08T17:46:12Z</time>
      </trkpt>
      <trkpt lat="59.979380127043" lon="15.79479848966">
        <ele>117.2</ele>
        <time>2014-11-08T17:46:17Z</time>
      </trkpt>
      <trkpt lat="59.979460090399" lon="15.794914830476">
        <ele>117</ele>
        <time>2014-11-08T17:46:21Z</time>
      </trkpt>
      <trkpt lat="59.979483308271" lon="15.794954393059">
        <ele>117</ele>
        <time>2014-11-08T17:46:22Z</time>
      </trkpt>
      <trkpt lat="59.979623537511" lon="15.795147176832">
        <ele>116.4</ele>
        <time>2014-11-08T17:46:28Z</time>
      </trkpt>
      <trkpt lat="59.979727724567" lon="15.795295620337">
        <ele>116.4</ele>
        <time>2014-11-08T17:46:33Z</time>
      </trkpt>
      <trkpt lat="59.979839371517" lon="15.795461162925">
        <ele>115.8</ele>
        <time>2014-11-08T17:46:38Z</time>
      </trkpt>
      <trkpt lat="59.979882873595" lon="15.79552905634">
        <ele>115.8</ele>
        <time>2014-11-08T17:46:40Z</time>
      </trkpt>
      <trkpt lat="59.980020001531" lon="15.795726533979">
        <ele>115.8</ele>
        <time>2014-11-08T17:46:46Z</time>
      </trkpt>
      <trkpt lat="59.980132821947" lon="15.795887885615">
        <ele>115.4</ele>
        <time>2014-11-08T17:46:51Z</time>
      </trkpt>
      <trkpt lat="59.980231812224" lon="15.796032724902">
        <ele>115.2</ele>
        <time>2014-11-08T17:46:56Z</time>
      </trkpt>
      <trkpt lat="59.980361815542" lon="15.79622073099">
        <ele>114.8</ele>
        <time>2014-11-08T17:47:02Z</time>
      </trkpt>
      <trkpt lat="59.980425350368" lon="15.796310333535">
        <ele>114.8</ele>
        <time>2014-11-08T17:47:05Z</time>
      </trkpt>
      <trkpt lat="59.980509085581" lon="15.796428686008">
        <ele>114.8</ele>
        <time>2014-11-08T17:47:09Z</time>
      </trkpt>
      <trkpt lat="59.980625677854" lon="15.796606969088">
        <ele>114.6</ele>
        <time>2014-11-08T17:47:14Z</time>
      </trkpt>
      <trkpt lat="59.980706898496" lon="15.796731775627">
        <ele>114.8</ele>
        <time>2014-11-08T17:47:18Z</time>
      </trkpt>
      <trkpt lat="59.980815695599" lon="15.796899329871">
        <ele>114.4</ele>
        <time>2014-11-08T17:47:23Z</time>
      </trkpt>
      <trkpt lat="59.980904627591" lon="15.797046180815">
        <ele>114.4</ele>
        <time>2014-11-08T17:47:27Z</time>
      </trkpt>
      <trkpt lat="59.98101552017" lon="15.7972222846">
        <ele>114.2</ele>
        <time>2014-11-08T17:47:32Z</time>
      </trkpt>
      <trkpt lat="59.981111157686" lon="15.797381121665">
        <ele>113.8</ele>
        <time>2014-11-08T17:47:36Z</time>
      </trkpt>
      <trkpt lat="59.981152396649" lon="15.797447087243">
        <ele>114</ele>
        <time>2014-11-08T17:47:38Z</time>
      </trkpt>
      <trkpt lat="59.981293799356" lon="15.797630567104">
        <ele>113.6</ele>
        <time>2014-11-08T17:47:44Z</time>
      </trkpt>
      <trkpt lat="59.981384407729" lon="15.797804323956">
        <ele>113.4</ele>
        <time>2014-11-08T17:47:49Z</time>
      </trkpt>
      <trkpt lat="59.981521032751" lon="15.798047985882">
        <ele>113.6</ele>
        <time>2014-11-08T17:47:56Z</time>
      </trkpt>
      <trkpt lat="59.981646761298" lon="15.798310004175">
        <ele>114</ele>
        <time>2014-11-08T17:48:03Z</time>
      </trkpt>
      <trkpt lat="59.981722366065" lon="15.798561293632">
        <ele>113.8</ele>
        <time>2014-11-08T17:48:09Z</time>
      </trkpt>
      <trkpt lat="59.981841975823" lon="15.798863293603">
        <ele>114.2</ele>
        <time>2014-11-08T17:48:16Z</time>
      </trkpt>
      <trkpt lat="59.98192537576" lon="15.79908432439">
        <ele>114</ele>
        <time>2014-11-08T17:48:21Z</time>
      </trkpt>
      <trkpt lat="59.982026042417" lon="15.799343576655">
        <ele>114</ele>
        <time>2014-11-08T17:48:27Z</time>
      </trkpt>
      <trkpt lat="59.982131654397" lon="15.799609199166">
        <ele>114.4</ele>
        <time>2014-11-08T17:48:33Z</time>
      </trkpt>
      <trkpt lat="59.982241038233" lon="15.799931231886">
        <ele>114.4</ele>
        <time>2014-11-08T17:48:40Z</time>
      </trkpt>
      <trkpt lat="59.982321169227" lon="15.800219234079">
        <ele>114.4</ele>
        <time>2014-11-08T17:48:46Z</time>
      </trkpt>
      <trkpt lat="59.982400881127" lon="15.800511427224">
        <ele>114.2</ele>
        <time>2014-11-08T17:48:52Z</time>
      </trkpt>
      <trkpt lat="59.982475982979" lon="15.800811164081">
        <ele>114.4</ele>
        <time>2014-11-08T17:48:58Z</time>
      </trkpt>
      <trkpt lat="59.982538092881" lon="15.801086677238">
        <ele>114.6</ele>
        <time>2014-11-08T17:49:04Z</time>
      </trkpt>
      <trkpt lat="59.98255812563" lon="15.801169238985">
        <ele>115</ele>
        <time>2014-11-08T17:49:06Z</time>
      </trkpt>
      <trkpt lat="59.982579667121" lon="15.80125356093">
        <ele>115</ele>
        <time>2014-11-08T17:49:08Z</time>
      </trkpt>
      <trkpt lat="59.982637166977" lon="15.801534019411">
        <ele>115.6</ele>
        <time>2014-11-08T17:49:14Z</time>
      </trkpt>
      <trkpt lat="59.982681758702" lon="15.801772316918">
        <ele>115.4</ele>
        <time>2014-11-08T17:49:19Z</time>
      </trkpt>
      <trkpt lat="59.9827390071" lon="15.80203961581">
        <ele>115.4</ele>
        <time>2014-11-08T17:49:24Z</time>
      </trkpt>
      <trkpt lat="59.982777647674" lon="15.802269782871">
        <ele>115</ele>
        <time>2014-11-08T17:49:29Z</time>
      </trkpt>
      <trkpt lat="59.98284378089" lon="15.802582930773">
        <ele>114.6</ele>
        <time>2014-11-08T17:49:35Z</time>
      </trkpt>
      <trkpt lat="59.982911590487" lon="15.802941760048">
        <ele>114</ele>
        <time>2014-11-08T17:49:42Z</time>
      </trkpt>
      <trkpt lat="59.982967497781" lon="15.803210651502">
        <ele>113.2</ele>
        <time>2014-11-08T17:49:47Z</time>
      </trkpt>
      <trkpt lat="59.983006389812" lon="15.803435957059">
        <ele>112.6</ele>
        <time>2014-11-08T17:49:51Z</time>
      </trkpt>
      <trkpt lat="59.983027931303" lon="15.803529163823">
        <ele>112.6</ele>
        <time>2014-11-08T17:49:53Z</time>
      </trkpt>
      <trkpt lat="59.983087442815" lon="15.803845748305">
        <ele>112</ele>
        <time>2014-11-08T17:49:59Z</time>
      </trkpt>
      <trkpt lat="59.983135135844" lon="15.804076753557">
        <ele>111.6</ele>
        <time>2014-11-08T17:50:03Z</time>
      </trkpt>
      <trkpt lat="59.983139242977" lon="15.804120842367">
        <ele>111.4</ele>
        <time>2014-11-08T17:50:04Z</time>
      </trkpt>
      <trkpt lat="59.983188947663" lon="15.804373975843">
        <ele>110.8</ele>
        <time>2014-11-08T17:50:09Z</time>
      </trkpt>
      <trkpt lat="59.983242256567" lon="15.804638341069">
        <ele>110.6</ele>
        <time>2014-11-08T17:50:14Z</time>
      </trkpt>
      <trkpt lat="59.983267067" lon="15.804781001061">
        <ele>110.6</ele>
        <time>2014-11-08T17:50:17Z</time>
      </trkpt>
      <trkpt lat="59.983299672604" lon="15.804942017421">
        <ele>110.2</ele>
        <time>2014-11-08T17:50:20Z</time>
      </trkpt>
      <trkpt lat="59.983358345926" lon="15.805251309648">
        <ele>110</ele>
        <time>2014-11-08T17:50:26Z</time>
      </trkpt>
      <trkpt lat="59.983400339261" lon="15.805458091199">
        <ele>109.6</ele>
        <time>2014-11-08T17:50:30Z</time>
      </trkpt>
      <trkpt lat="59.983443589881" lon="15.805676020682">
        <ele>109</ele>
        <time>2014-11-08T17:50:34Z</time>
      </trkpt>
      <trkpt lat="59.98348608613" lon="15.805889340118">
        <ele>108.4</ele>
        <time>2014-11-08T17:50:38Z</time>
      </trkpt>
      <trkpt lat="59.98350603506" lon="15.806040382013">
        <ele>108</ele>
        <time>2014-11-08T17:50:41Z</time>
      </trkpt>
      <trkpt lat="59.983546938747" lon="15.806266441941">
        <ele>107.6</ele>
        <time>2014-11-08T17:50:45Z</time>
      </trkpt>
      <trkpt lat="59.983558086678" lon="15.806324696168">
        <ele>107.4</ele>
        <time>2014-11-08T17:50:46Z</time>
      </trkpt>
      <trkpt lat="59.983596391976" lon="15.806588726118">
        <ele>106.8</ele>
        <time>2014-11-08T17:50:51Z</time>
      </trkpt>
      <trkpt lat="59.983626818284" lon="15.806802716106">
        <ele>106.4</ele>
        <time>2014-11-08T17:50:55Z</time>
      </trkpt>
      <trkpt lat="59.98365313746" lon="15.806970102713">
        <ele>106.2</ele>
        <time>2014-11-08T17:50:58Z</time>
      </trkpt>
      <trkpt lat="59.98372153379" lon="15.807348797098">
        <ele>105.2</ele>
        <time>2014-11-08T17:51:05Z</time>
      </trkpt>
      <trkpt lat="59.983807783574" lon="15.807575527579">
        <ele>104.6</ele>
        <time>2014-11-08T17:51:10Z</time>
      </trkpt>
      <trkpt lat="59.983926638961" lon="15.807699579746">
        <ele>104.2</ele>
        <time>2014-11-08T17:51:15Z</time>
      </trkpt>
      <trkpt lat="59.983945917338" lon="15.807723719627">
        <ele>104.2</ele>
        <time>2014-11-08T17:51:16Z</time>
      </trkpt>
      <trkpt lat="59.984011799097" lon="15.807871324942">
        <ele>104</ele>
        <time>2014-11-08T17:51:20Z</time>
      </trkpt>
      <trkpt lat="59.984011296183" lon="15.808085566387">
        <ele>104</ele>
        <time>2014-11-08T17:51:24Z</time>
      </trkpt>
      <trkpt lat="59.984001908451" lon="15.808121524751">
        <ele>104</ele>
        <time>2014-11-08T17:51:25Z</time>
      </trkpt>
      <trkpt lat="59.983978774399" lon="15.808425284922">
        <ele>103.8</ele>
        <time>2014-11-08T17:51:30Z</time>
      </trkpt>
      <trkpt lat="59.98396829702" lon="15.808681184426">
        <ele>103.6</ele>
        <time>2014-11-08T17:51:35Z</time>
      </trkpt>
      <trkpt lat="59.984021773562" lon="15.808937838301">
        <ele>103.4</ele>
        <time>2014-11-08T17:51:40Z</time>
      </trkpt>
      <trkpt lat="59.984065108001" lon="15.809086952358">
        <ele>103.2</ele>
        <time>2014-11-08T17:51:43Z</time>
      </trkpt>
      <trkpt lat="59.98410676606" lon="15.80924872309">
        <ele>103.2</ele>
        <time>2014-11-08T17:51:46Z</time>
      </trkpt>
      <trkpt lat="59.984162757173" lon="15.80949104391">
        <ele>103</ele>
        <time>2014-11-08T17:51:51Z</time>
      </trkpt>
      <trkpt lat="59.984242385253" lon="15.809825314209">
        <ele>103.2</ele>
        <time>2014-11-08T17:51:58Z</time>
      </trkpt>
      <trkpt lat="59.984320672229" lon="15.810126727447">
        <ele>103.2</ele>
        <time>2014-11-08T17:52:04Z</time>
      </trkpt>
      <trkpt lat="59.984396528453" lon="15.810355972499">
        <ele>103</ele>
        <time>2014-11-08T17:52:09Z</time>
      </trkpt>
      <trkpt lat="59.984471630305" lon="15.810668533668">
        <ele>103</ele>
        <time>2014-11-08T17:52:15Z</time>
      </trkpt>
      <trkpt lat="59.984544217587" lon="15.810959134251">
        <ele>102.8</ele>
        <time>2014-11-08T17:52:21Z</time>
      </trkpt>
      <trkpt lat="59.984626024961" lon="15.811252919957">
        <ele>102.6</ele>
        <time>2014-11-08T17:52:27Z</time>
      </trkpt>
      <trkpt lat="59.984689727426" lon="15.81151929684">
        <ele>102.2</ele>
        <time>2014-11-08T17:52:32Z</time>
      </trkpt>
      <trkpt lat="59.984697941691" lon="15.811558440328">
        <ele>102.2</ele>
        <time>2014-11-08T17:52:33Z</time>
      </trkpt>
      <trkpt lat="59.984735911712" lon="15.81171920523">
        <ele>101.6</ele>
        <time>2014-11-08T17:52:36Z</time>
      </trkpt>
      <trkpt lat="59.984797853976" lon="15.811944510788">
        <ele>101.2</ele>
        <time>2014-11-08T17:52:41Z</time>
      </trkpt>
      <trkpt lat="59.984846217558" lon="15.812074011192">
        <ele>101</ele>
        <time>2014-11-08T17:52:44Z</time>
      </trkpt>
      <trkpt lat="59.984891479835" lon="15.812136372551">
        <ele>101.2</ele>
        <time>2014-11-08T17:52:46Z</time>
      </trkpt>
      <trkpt lat="59.985024500638" lon="15.812319014221">
        <ele>100.6</ele>
        <time>2014-11-08T17:52:52Z</time>
      </trkpt>
      <trkpt lat="59.985087784007" lon="15.812555132434">
        <ele>100.4</ele>
        <time>2014-11-08T17:52:57Z</time>
      </trkpt>
      <trkpt lat="59.985116031021" lon="15.812726626173">
        <ele>100</ele>
        <time>2014-11-08T17:53:00Z</time>
      </trkpt>
      <trkpt lat="59.985129777342" lon="15.812832824886">
        <ele>100</ele>
        <time>2014-11-08T17:53:02Z</time>
      </trkpt>
      <trkpt lat="59.985178057104" lon="15.813096687198">
        <ele>99.8</ele>
        <time>2014-11-08T17:53:07Z</time>
      </trkpt>
      <trkpt lat="59.985251231119" lon="15.813324088231">
        <ele>99.4</ele>
        <time>2014-11-08T17:53:12Z</time>
      </trkpt>
      <trkpt lat="59.985348461196" lon="15.813586609438">
        <ele>99</ele>
        <time>2014-11-08T17:53:18Z</time>
      </trkpt>
      <trkpt lat="59.985342761502" lon="15.813792049885">
        <ele>98.8</ele>
        <time>2014-11-08T17:53:22Z</time>
      </trkpt>
      <trkpt lat="59.985330607742" lon="15.814006039873">
        <ele>98</ele>
        <time>2014-11-08T17:53:26Z</time>
      </trkpt>
      <trkpt lat="59.985342342407" lon="15.814108969644">
        <ele>97.8</ele>
        <time>2014-11-08T17:53:28Z</time>
      </trkpt>
      <trkpt lat="59.985363800079" lon="15.81425473094">
        <ele>97.8</ele>
        <time>2014-11-08T17:53:31Z</time>
      </trkpt>
      <trkpt lat="59.985398082063" lon="15.81439672038">
        <ele>97.8</ele>
        <time>2014-11-08T17:53:34Z</time>
      </trkpt>
      <trkpt lat="59.985501766205" lon="15.814716322348">
        <ele>98</ele>
        <time>2014-11-08T17:53:41Z</time>
      </trkpt>
      <trkpt lat="59.985626237467" lon="15.815029051155">
        <ele>99.2</ele>
        <time>2014-11-08T17:53:48Z</time>
      </trkpt>
      <trkpt lat="59.985645348206" lon="15.815073978156">
        <ele>99</ele>
        <time>2014-11-08T17:53:49Z</time>
      </trkpt>
      <trkpt lat="59.985741320997" lon="15.815274221823">
        <ele>99.8</ele>
        <time>2014-11-08T17:53:54Z</time>
      </trkpt>
      <trkpt lat="59.985777279362" lon="15.815356532112">
        <ele>100.4</ele>
        <time>2014-11-08T17:53:56Z</time>
      </trkpt>
      <trkpt lat="59.985870821401" lon="15.815540347248">
        <ele>100.8</ele>
        <time>2014-11-08T17:54:01Z</time>
      </trkpt>
      <trkpt lat="59.985999148339" lon="15.815743021667">
        <ele>100.8</ele>
        <time>2014-11-08T17:54:07Z</time>
      </trkpt>
      <trkpt lat="59.98613845557" lon="15.815900601447">
        <ele>100.4</ele>
        <time>2014-11-08T17:54:13Z</time>
      </trkpt>
      <trkpt lat="59.986268039793" lon="15.815951060504">
        <ele>100.4</ele>
        <time>2014-11-08T17:54:18Z</time>
      </trkpt>
      <trkpt lat="59.986458225176" lon="15.815886519849">
        <ele>100.2</ele>
        <time>2014-11-08T17:54:25Z</time>
      </trkpt>
      <trkpt lat="59.986574817449" lon="15.815744027495">
        <ele>99.6</ele>
        <time>2014-11-08T17:54:30Z</time>
      </trkpt>
      <trkpt lat="59.986635502428" lon="15.815625339746">
        <ele>99.2</ele>
        <time>2014-11-08T17:54:33Z</time>
      </trkpt>
      <trkpt lat="59.986742371693" lon="15.815397184342">
        <ele>99</ele>
        <time>2014-11-08T17:54:38Z</time>
      </trkpt>
      <trkpt lat="59.9868595507" lon="15.815222002566">
        <ele>98.8</ele>
        <time>2014-11-08T17:54:43Z</time>
      </trkpt>
      <trkpt lat="59.987023249269" lon="15.815002312884">
        <ele>98.4</ele>
        <time>2014-11-08T17:54:50Z</time>
      </trkpt>
      <trkpt lat="59.987145625055" lon="15.814830902964">
        <ele>98.6</ele>
        <time>2014-11-08T17:54:56Z</time>
      </trkpt>
      <trkpt lat="59.9872334674" lon="15.814709616825">
        <ele>99.4</ele>
        <time>2014-11-08T17:55:01Z</time>
      </trkpt>
      <trkpt lat="59.987361459062" lon="15.814579278231">
        <ele>100.2</ele>
        <time>2014-11-08T17:55:07Z</time>
      </trkpt>
      <trkpt lat="59.987410828471" lon="15.814538626">
        <ele>100.6</ele>
        <time>2014-11-08T17:55:09Z</time>
      </trkpt>
      <trkpt lat="59.987492971122" lon="15.81445380114">
        <ele>101.4</ele>
        <time>2014-11-08T17:55:13Z</time>
      </trkpt>
      <trkpt lat="59.987512668595" lon="15.814445922151">
        <ele>101.6</ele>
        <time>2014-11-08T17:55:14Z</time>
      </trkpt>
      <trkpt lat="59.987602354959" lon="15.814383309335">
        <ele>102.2</ele>
        <time>2014-11-08T17:55:18Z</time>
      </trkpt>
      <trkpt lat="59.987664381042" lon="15.814386159182">
        <ele>102.8</ele>
        <time>2014-11-08T17:55:21Z</time>
      </trkpt>
      <trkpt lat="59.987691538408" lon="15.814446089789">
        <ele>103</ele>
        <time>2014-11-08T17:55:23Z</time>
      </trkpt>
      <trkpt lat="59.987710816786" lon="15.814554383978">
        <ele>103.2</ele>
        <time>2014-11-08T17:55:25Z</time>
      </trkpt>
      <trkpt lat="59.987743841484" lon="15.814723614603">
        <ele>103</ele>
        <time>2014-11-08T17:55:28Z</time>
      </trkpt>
      <trkpt lat="59.987768651918" lon="15.815002229065">
        <ele>101.8</ele>
        <time>2014-11-08T17:55:33Z</time>
      </trkpt>
      <trkpt lat="59.98779874295" lon="15.81525544636">
        <ele>101.4</ele>
        <time>2014-11-08T17:55:37Z</time>
      </trkpt>
      <trkpt lat="59.987795054913" lon="15.815396932885">
        <ele>101.4</ele>
        <time>2014-11-08T17:55:40Z</time>
      </trkpt>
      <trkpt lat="59.987776614726" lon="15.815417133272">
        <ele>101.4</ele>
        <time>2014-11-08T17:55:41Z</time>
      </trkpt>
      <trkpt lat="59.98768273741" lon="15.815478572622">
        <ele>101</ele>
        <time>2014-11-08T17:55:45Z</time>
      </trkpt>
      <trkpt lat="59.987656669691" lon="15.815486116335">
        <ele>101</ele>
        <time>2014-11-08T17:55:46Z</time>
      </trkpt>
      <trkpt lat="59.987581232563" lon="15.8155462984">
        <ele>100.8</ele>
        <time>2014-11-08T17:55:49Z</time>
      </trkpt>
      <trkpt lat="59.987537730485" lon="15.81557739526">
        <ele>100.6</ele>
        <time>2014-11-08T17:55:51Z</time>
      </trkpt>
      <trkpt lat="59.987390292808" lon="15.815695161">
        <ele>100.2</ele>
        <time>2014-11-08T17:55:57Z</time>
      </trkpt>
      <trkpt lat="59.987238245085" lon="15.815822314471">
        <ele>99.8</ele>
        <time>2014-11-08T17:56:03Z</time>
      </trkpt>
      <trkpt lat="59.987145792693" lon="15.815891465172">
        <ele>99.6</ele>
        <time>2014-11-08T17:56:07Z</time>
      </trkpt>
      <trkpt lat="59.987088125199" lon="15.815942091867">
        <ele>99.4</ele>
        <time>2014-11-08T17:56:09Z</time>
      </trkpt>
      <trkpt lat="59.986941358075" lon="15.816050386056">
        <ele>99</ele>
        <time>2014-11-08T17:56:15Z</time>
      </trkpt>
      <trkpt lat="59.986834237352" lon="15.816216012463">
        <ele>98.6</ele>
        <time>2014-11-08T17:56:20Z</time>
      </trkpt>
      <trkpt lat="59.986829040572" lon="15.816273596138">
        <ele>98.6</ele>
        <time>2014-11-08T17:56:21Z</time>
      </trkpt>
      <trkpt lat="59.986830633134" lon="15.816508624703">
        <ele>98.4</ele>
        <time>2014-11-08T17:56:25Z</time>
      </trkpt>
      <trkpt lat="59.986833818257" lon="15.816563442349">
        <ele>98.2</ele>
        <time>2014-11-08T17:56:26Z</time>
      </trkpt>
      <trkpt lat="59.986833231524" lon="15.816772738472">
        <ele>97.4</ele>
        <time>2014-11-08T17:56:30Z</time>
      </trkpt>
      <trkpt lat="59.986835410818" lon="15.816883463413">
        <ele>97</ele>
        <time>2014-11-08T17:56:32Z</time>
      </trkpt>
      <trkpt lat="59.986836500466" lon="15.817200634629">
        <ele>97</ele>
        <time>2014-11-08T17:56:38Z</time>
      </trkpt>
      <trkpt lat="59.986819485202" lon="15.817457791418">
        <ele>96.8</ele>
        <time>2014-11-08T17:56:43Z</time>
      </trkpt>
      <trkpt lat="59.98677816242" lon="15.817637331784">
        <ele>97</ele>
        <time>2014-11-08T17:56:47Z</time>
      </trkpt>
      <trkpt lat="59.986693840474" lon="15.817947797477">
        <ele>97.2</ele>
        <time>2014-11-08T17:56:53Z</time>
      </trkpt>
      <trkpt lat="59.986599208787" lon="15.818170420825">
        <ele>97</ele>
        <time>2014-11-08T17:56:58Z</time>
      </trkpt>
      <trkpt lat="59.98654271476" lon="15.818388434127">
        <ele>97.2</ele>
        <time>2014-11-08T17:57:03Z</time>
      </trkpt>
      <trkpt lat="59.986529219896" lon="15.818608710542">
        <ele>97.6</ele>
        <time>2014-11-08T17:57:07Z</time>
      </trkpt>
      <trkpt lat="59.986536176875" lon="15.818942310289">
        <ele>98.2</ele>
        <time>2014-11-08T17:57:13Z</time>
      </trkpt>
      <trkpt lat="59.986549839377" lon="15.819099303335">
        <ele>98.4</ele>
        <time>2014-11-08T17:57:16Z</time>
      </trkpt>
      <trkpt lat="59.986563334242" lon="15.81924338825">
        <ele>98.6</ele>
        <time>2014-11-08T17:57:19Z</time>
      </trkpt>
      <trkpt lat="59.98659200035" lon="15.819573467597">
        <ele>99</ele>
        <time>2014-11-08T17:57:25Z</time>
      </trkpt>
      <trkpt lat="59.986596861854" lon="15.819855099544">
        <ele>98.8</ele>
        <time>2014-11-08T17:57:30Z</time>
      </trkpt>
      <trkpt lat="59.986586635932" lon="15.82018869929">
        <ele>98.4</ele>
        <time>2014-11-08T17:57:36Z</time>
      </trkpt>
      <trkpt lat="59.986564591527" lon="15.820515844971">
        <ele>98.6</ele>
        <time>2014-11-08T17:57:42Z</time>
      </trkpt>
      <trkpt lat="59.9865288008" lon="15.820865957066">
        <ele>98.8</ele>
        <time>2014-11-08T17:57:48Z</time>
      </trkpt>
      <trkpt lat="59.986491166055" lon="15.821207100525">
        <ele>98.4</ele>
        <time>2014-11-08T17:57:54Z</time>
      </trkpt>
      <trkpt lat="59.986467026174" lon="15.821478841826">
        <ele>98</ele>
        <time>2014-11-08T17:57:59Z</time>
      </trkpt>
      <trkpt lat="59.986420758069" lon="15.821829540655">
        <ele>98</ele>
        <time>2014-11-08T17:58:05Z</time>
      </trkpt>
      <trkpt lat="59.986386140808" lon="15.822104467079">
        <ele>98</ele>
        <time>2014-11-08T17:58:10Z</time>
      </trkpt>
      <trkpt lat="59.986371891573" lon="15.822365395725">
        <ele>98</ele>
        <time>2014-11-08T17:58:15Z</time>
      </trkpt>
      <trkpt lat="59.986335095018" lon="15.822755238041">
        <ele>97.6</ele>
        <time>2014-11-08T17:58:22Z</time>
      </trkpt>
      <trkpt lat="59.986302657053" lon="15.823065955192">
        <ele>97.8</ele>
        <time>2014-11-08T17:58:28Z</time>
      </trkpt>
      <trkpt lat="59.986250773072" lon="15.823383461684">
        <ele>97.8</ele>
        <time>2014-11-08T17:58:34Z</time>
      </trkpt>
      <trkpt lat="59.986219173297" lon="15.823648581281">
        <ele>97.6</ele>
        <time>2014-11-08T17:58:39Z</time>
      </trkpt>
      <trkpt lat="59.986188830808" lon="15.823910012841">
        <ele>97.6</ele>
        <time>2014-11-08T17:58:44Z</time>
      </trkpt>
      <trkpt lat="59.986190674827" lon="15.823952676728">
        <ele>97.4</ele>
        <time>2014-11-08T17:58:45Z</time>
      </trkpt>
      <trkpt lat="59.98616267927" lon="15.824158955365">
        <ele>97.4</ele>
        <time>2014-11-08T17:58:49Z</time>
      </trkpt>
      <trkpt lat="59.986133007333" lon="15.824392475188">
        <ele>97.4</ele>
        <time>2014-11-08T17:58:54Z</time>
      </trkpt>
      <trkpt lat="59.986050864682" lon="15.824514012784">
        <ele>98</ele>
        <time>2014-11-08T17:58:59Z</time>
      </trkpt>
      <trkpt lat="59.985942905769" lon="15.824437066913">
        <ele>98</ele>
        <time>2014-11-08T17:59:03Z</time>
      </trkpt>
      <trkpt lat="59.985790690407" lon="15.824336986989">
        <ele>98</ele>
        <time>2014-11-08T17:59:09Z</time>
      </trkpt>
      <trkpt lat="59.985648533329" lon="15.82424771972">
        <ele>98.4</ele>
        <time>2014-11-08T17:59:15Z</time>
      </trkpt>
      <trkpt lat="59.98561902903" lon="15.824229111895">
        <ele>98.6</ele>
        <time>2014-11-08T17:59:16Z</time>
      </trkpt>
      <trkpt lat="59.985492210835" lon="15.824164235964">
        <ele>99</ele>
        <time>2014-11-08T17:59:21Z</time>
      </trkpt>
      <trkpt lat="59.985346281901" lon="15.824207235128">
        <ele>99.4</ele>
        <time>2014-11-08T17:59:27Z</time>
      </trkpt>
      <trkpt lat="59.985294649377" lon="15.824270099401">
        <ele>99.6</ele>
        <time>2014-11-08T17:59:29Z</time>
      </trkpt>
      <trkpt lat="59.985236646608" lon="15.824385015294">
        <ele>99.8</ele>
        <time>2014-11-08T17:59:32Z</time>
      </trkpt>
      <trkpt lat="59.985101111233" lon="15.824668491259">
        <ele>100.2</ele>
        <time>2014-11-08T17:59:39Z</time>
      </trkpt>
      <trkpt lat="59.984974041581" lon="15.824923384935">
        <ele>100.4</ele>
        <time>2014-11-08T17:59:45Z</time>
      </trkpt>
      <trkpt lat="59.984955852851" lon="15.82496018149">
        <ele>100.2</ele>
        <time>2014-11-08T17:59:46Z</time>
      </trkpt>
      <trkpt lat="59.984814617783" lon="15.825227061287">
        <ele>100.2</ele>
        <time>2014-11-08T17:59:53Z</time>
      </trkpt>
      <trkpt lat="59.984777066857" lon="15.825297972187">
        <ele>100.6</ele>
        <time>2014-11-08T17:59:55Z</time>
      </trkpt>
      <trkpt lat="59.984715962783" lon="15.825419928879">
        <ele>100.8</ele>
        <time>2014-11-08T17:59:58Z</time>
      </trkpt>
      <trkpt lat="59.984639016911" lon="15.825554290786">
        <ele>101</ele>
        <time>2014-11-08T18:00:02Z</time>
      </trkpt>
      <trkpt lat="59.98449283652" lon="15.825809603557">
        <ele>101</ele>
        <time>2014-11-08T18:00:09Z</time>
      </trkpt>
      <trkpt lat="59.98447297141" lon="15.825840700418">
        <ele>101.2</ele>
        <time>2014-11-08T18:00:10Z</time>
      </trkpt>
      <trkpt lat="59.984337268397" lon="15.826063994318">
        <ele>101.2</ele>
        <time>2014-11-08T18:00:17Z</time>
      </trkpt>
      <trkpt lat="59.984208354726" lon="15.826335400343">
        <ele>101.4</ele>
        <time>2014-11-08T18:00:24Z</time>
      </trkpt>
      <trkpt lat="59.984205169603" lon="15.826527178288">
        <ele>101.2</ele>
        <time>2014-11-08T18:00:28Z</time>
      </trkpt>
      <trkpt lat="59.984223274514" lon="15.826573614031">
        <ele>101.2</ele>
        <time>2014-11-08T18:00:29Z</time>
      </trkpt>
      <trkpt lat="59.984291838482" lon="15.826686937362">
        <ele>101</ele>
        <time>2014-11-08T18:00:32Z</time>
      </trkpt>
      <trkpt lat="59.984400132671" lon="15.826871423051">
        <ele>101.2</ele>
        <time>2014-11-08T18:00:37Z</time>
      </trkpt>
      <trkpt lat="59.984509851784" lon="15.827013580129">
        <ele>102</ele>
        <time>2014-11-08T18:00:42Z</time>
      </trkpt>
      <trkpt lat="59.984604148194" lon="15.827085832134">
        <ele>102.8</ele>
        <time>2014-11-08T18:00:47Z</time>
      </trkpt>
      <trkpt lat="59.984635412693" lon="15.827101254836">
        <ele>103.2</ele>
        <time>2014-11-08T18:00:48Z</time>
      </trkpt>
      <trkpt lat="59.984715124592" lon="15.827189935371">
        <ele>104</ele>
        <time>2014-11-08T18:00:52Z</time>
      </trkpt>
      <trkpt lat="59.984780168161" lon="15.827266629785">
        <ele>104.2</ele>
        <time>2014-11-08T18:00:55Z</time>
      </trkpt>
      <trkpt lat="59.984824005514" lon="15.82737266086">
        <ele>104.6</ele>
        <time>2014-11-08T18:00:58Z</time>
      </trkpt>
      <trkpt lat="59.984814450145" lon="15.827541723847">
        <ele>104.8</ele>
        <time>2014-11-08T18:01:02Z</time>
      </trkpt>
      <trkpt lat="59.984796177596" lon="15.827637696639">
        <ele>105.2</ele>
        <time>2014-11-08T18:01:04Z</time>
      </trkpt>
      <trkpt lat="59.98479232192" lon="15.827671475708">
        <ele>105.4</ele>
        <time>2014-11-08T18:01:05Z</time>
      </trkpt>
      <trkpt lat="59.98479064554" lon="15.827700057998">
        <ele>105.6</ele>
        <time>2014-11-08T18:01:07Z</time>
      </trkpt>
      <trkpt lat="59.98478452675" lon="15.827713217586">
        <ele>105.2</ele>
        <time>2014-11-08T18:01:09Z</time>
      </trkpt>
      <trkpt lat="59.984761476517" lon="15.827738698572">
        <ele>105.6</ele>
        <time>2014-11-08T18:01:14Z</time>
      </trkpt>
      <trkpt lat="59.984757201746" lon="15.827742805704">
        <ele>106.4</ele>
        <time>2014-11-08T18:01:15Z</time>
      </trkpt>
      <trkpt lat="59.984726691619" lon="15.827745571733">
        <ele>106.4</ele>
        <time>2014-11-08T18:01:21Z</time>
      </trkpt>
    </trkseg>
  </trk>
</gpx>